Wetterdaten: Sonntag, 03.04.2016
Datum Zeit Temp. A. Feuchte A. Luftdruck Regen Wind Richtung Richtung Sonnenschein ET UV Solar Taupunkt Windchill Windben Empfang
03.04.2016 00:00 9,3 C 70 % 1015,7 hPa 0,0 l/m 11,9 km/h (2 Bft) O-NO 65 0 min 0,000 mm 0,0 UV-I 0 W/m 4,1 C 5,8 C 16,1 km/h (3 Bft) 100,00 %
03.04.2016 00:02 9,2 C 71 % 1015,8 hPa 0,0 l/m 14,0 km/h (3 Bft) O-NO 67 0 min 0,000 mm 0,0 UV-I 0 W/m 4,2 C 4,6 C 19,3 km/h (3 Bft) 91,67 %
03.04.2016 00:03 9,2 C 71 % 1015,7 hPa 0,0 l/m 11,3 km/h (2 Bft) O-NO 65 0 min 0,000 mm 0,0 UV-I 0 W/m 4,2 C 6,0 C 16,1 km/h (3 Bft) 95,83 %
03.04.2016 00:04 9,2 C 71 % 1015,8 hPa 0,0 l/m 16,0 km/h (3 Bft) O-NO 75 0 min 0,000 mm 0,0 UV-I 0 W/m 4,2 C 3,7 C 20,9 km/h (4 Bft) 100,00 %
03.04.2016 00:05 9,2 C 71 % 1015,7 hPa 0,0 l/m 14,3 km/h (3 Bft) NO 54 0 min 0,000 mm 0,0 UV-I 0 W/m 4,2 C 4,5 C 19,3 km/h (3 Bft) 96,15 %
03.04.2016 00:06 9,2 C 71 % 1015,8 hPa 0,0 l/m 12,5 km/h (3 Bft) O-NO 63 0 min 0,000 mm 0,0 UV-I 0 W/m 4,2 C 5,3 C 19,3 km/h (3 Bft) 86,96 %
03.04.2016 00:07 9,2 C 71 % 1015,7 hPa 0,0 l/m 14,9 km/h (3 Bft) O 89 0 min 0,000 mm 0,0 UV-I 0 W/m 4,2 C 4,2 C 17,7 km/h (3 Bft) 95,83 %
03.04.2016 00:08 9,2 C 71 % 1015,7 hPa 0,0 l/m 12,9 km/h (3 Bft) O-NO 69 0 min 0,000 mm 0,0 UV-I 0 W/m 4,2 C 5,1 C 16,1 km/h (3 Bft) 95,83 %
03.04.2016 00:09 9,1 C 71 % 1015,7 hPa 0,0 l/m 13,9 km/h (3 Bft) O-NO 67 0 min 0,000 mm 0,0 UV-I 0 W/m 4,1 C 4,5 C 17,7 km/h (3 Bft) 95,65 %
03.04.2016 00:10 9,1 C 71 % 1015,8 hPa 0,0 l/m 8,8 km/h (2 Bft) NO 49 0 min 0,000 mm 0,0 UV-I 0 W/m 4,1 C 7,4 C 12,9 km/h (3 Bft) 95,83 %
03.04.2016 00:11 9,1 C 71 % 1015,8 hPa 0,0 l/m 9,8 km/h (2 Bft) O-NO 65 0 min 0,000 mm 0,0 UV-I 0 W/m 4,1 C 6,7 C 12,9 km/h (3 Bft) 100,00 %
03.04.2016 00:12 9,1 C 71 % 1015,7 hPa 0,0 l/m 11,6 km/h (2 Bft) O-NO 59 0 min 0,000 mm 0,0 UV-I 0 W/m 4,1 C 5,7 C 16,1 km/h (3 Bft) 95,83 %
03.04.2016 00:13 9,1 C 71 % 1015,7 hPa 0,0 l/m 13,9 km/h (3 Bft) O-NO 73 0 min 0,000 mm 0,0 UV-I 0 W/m 4,1 C 4,5 C 17,7 km/h (3 Bft) 95,65 %
03.04.2016 00:14 9,1 C 71 % 1015,7 hPa 0,0 l/m 9,7 km/h (2 Bft) O-NO 71 0 min 0,000 mm 0,0 UV-I 0 W/m 4,1 C 6,8 C 12,9 km/h (3 Bft) 100,00 %
03.04.2016 00:15 9,1 C 71 % 1015,7 hPa 0,0 l/m 10,1 km/h (2 Bft) NO 56 0 min 0,000 mm 0,0 UV-I 0 W/m 4,1 C 6,5 C 14,5 km/h (3 Bft) 100,00 %
03.04.2016 00:16 9,1 C 71 % 1015,7 hPa 0,0 l/m 11,7 km/h (2 Bft) O-NO 63 0 min 0,000 mm 0,0 UV-I 0 W/m 4,1 C 5,6 C 16,1 km/h (3 Bft) 100,00 %
03.04.2016 00:17 9,1 C 71 % 1015,7 hPa 0,0 l/m 15,5 km/h (3 Bft) O-NO 75 0 min 0,000 mm 0,0 UV-I 0 W/m 4,1 C 3,8 C 19,3 km/h (3 Bft) 100,00 %
03.04.2016 00:18 9,1 C 71 % 1015,7 hPa 0,0 l/m 13,0 km/h (3 Bft) O-NO 74 0 min 0,000 mm 0,0 UV-I 0 W/m 4,1 C 5,0 C 19,3 km/h (3 Bft) 100,00 %
03.04.2016 00:19 9,1 C 71 % 1015,7 hPa 0,0 l/m 11,4 km/h (2 Bft) O-NO 65 0 min 0,000 mm 0,0 UV-I 0 W/m 4,1 C 5,8 C 17,7 km/h (3 Bft) 95,65 %
03.04.2016 00:20 9,1 C 71 % 1015,7 hPa 0,0 l/m 10,8 km/h (2 Bft) O-NO 67 0 min 0,000 mm 0,0 UV-I 0 W/m 4,1 C 6,1 C 14,5 km/h (3 Bft) 100,00 %
03.04.2016 00:21 9,1 C 72 % 1015,7 hPa 0,0 l/m 12,4 km/h (3 Bft) O-NO 65 0 min 0,000 mm 0,0 UV-I 0 W/m 4,3 C 5,3 C 16,1 km/h (3 Bft) 100,00 %
03.04.2016 00:22 9,0 C 72 % 1015,7 hPa 0,0 l/m 11,3 km/h (2 Bft) O-NO 65 0 min 0,000 mm 0,0 UV-I 0 W/m 4,2 C 5,7 C 19,3 km/h (3 Bft) 100,00 %
03.04.2016 00:23 9,0 C 72 % 1015,7 hPa 0,0 l/m 11,9 km/h (2 Bft) O-NO 74 0 min 0,000 mm 0,0 UV-I 0 W/m 4,2 C 5,4 C 17,7 km/h (3 Bft) 100,00 %
03.04.2016 00:24 8,9 C 72 % 1015,7 hPa 0,0 l/m 12,1 km/h (2 Bft) O 83 0 min 0,000 mm 0,0 UV-I 0 W/m 4,1 C 5,2 C 17,7 km/h (3 Bft) 100,00 %
03.04.2016 00:25 8,9 C 72 % 1015,7 hPa 0,0 l/m 9,4 km/h (2 Bft) O-NO 69 0 min 0,000 mm 0,0 UV-I 0 W/m 4,1 C 6,8 C 14,5 km/h (3 Bft) 100,00 %
03.04.2016 00:26 8,9 C 72 % 1015,7 hPa 0,0 l/m 11,8 km/h (2 Bft) O-NO 57 0 min 0,000 mm 0,0 UV-I 0 W/m 4,1 C 5,4 C 17,7 km/h (3 Bft) 96,30 %
03.04.2016 00:27 8,9 C 72 % 1015,7 hPa 0,0 l/m 12,6 km/h (3 Bft) O-NO 57 0 min 0,000 mm 0,0 UV-I 0 W/m 4,1 C 4,9 C 16,1 km/h (3 Bft) 100,00 %
03.04.2016 00:28 8,9 C 72 % 1015,7 hPa 0,0 l/m 13,2 km/h (3 Bft) O-NO 61 0 min 0,000 mm 0,0 UV-I 0 W/m 4,1 C 4,6 C 17,7 km/h (3 Bft) 95,83 %
03.04.2016 00:29 8,9 C 72 % 1015,7 hPa 0,0 l/m 13,2 km/h (3 Bft) O 84 0 min 0,000 mm 0,0 UV-I 0 W/m 4,1 C 4,6 C 17,7 km/h (3 Bft) 100,00 %
03.04.2016 00:30 8,9 C 72 % 1015,7 hPa 0,0 l/m 13,3 km/h (3 Bft) O-NO 59 0 min 0,000 mm 0,0 UV-I 0 W/m 4,1 C 4,6 C 16,1 km/h (3 Bft) 100,00 %
03.04.2016 00:31 8,9 C 72 % 1015,7 hPa 0,0 l/m 15,3 km/h (3 Bft) O 100 0 min 0,000 mm 0,0 UV-I 0 W/m 4,1 C 3,7 C 20,9 km/h (4 Bft) 91,67 %
03.04.2016 00:32 8,8 C 72 % 1015,7 hPa 0,0 l/m 13,7 km/h (3 Bft) O-NO 57 0 min 0,000 mm 0,0 UV-I 0 W/m 4,0 C 4,3 C 17,7 km/h (3 Bft) 100,00 %
03.04.2016 00:33 8,8 C 73 % 1015,7 hPa 0,0 l/m 13,7 km/h (3 Bft) O-NO 67 0 min 0,000 mm 0,0 UV-I 0 W/m 4,2 C 4,3 C 17,7 km/h (3 Bft) 100,00 %
03.04.2016 00:34 8,8 C 73 % 1015,6 hPa 0,0 l/m 13,0 km/h (3 Bft) O-NO 74 0 min 0,000 mm 0,0 UV-I 0 W/m 4,2 C 4,6 C 17,7 km/h (3 Bft) 100,00 %
03.04.2016 00:35 8,8 C 73 % 1015,7 hPa 0,0 l/m 12,7 km/h (3 Bft) O-NO 69 0 min 0,000 mm 0,0 UV-I 0 W/m 4,2 C 4,8 C 16,1 km/h (3 Bft) 100,00 %
03.04.2016 00:36 8,8 C 73 % 1015,6 hPa 0,0 l/m 12,7 km/h (3 Bft) O-NO 65 0 min 0,000 mm 0,0 UV-I 0 W/m 4,2 C 4,8 C 19,3 km/h (3 Bft) 100,00 %
03.04.2016 00:37 8,8 C 73 % 1015,6 hPa 0,0 l/m 12,9 km/h (3 Bft) NO 39 0 min 0,000 mm 0,0 UV-I 0 W/m 4,2 C 4,7 C 19,3 km/h (3 Bft) 100,00 %
03.04.2016 00:38 8,8 C 73 % 1015,6 hPa 0,0 l/m 15,5 km/h (3 Bft) O-NO 78 0 min 0,000 mm 0,0 UV-I 0 W/m 4,2 C 3,5 C 20,9 km/h (4 Bft) 100,00 %
03.04.2016 00:39 8,8 C 73 % 1015,6 hPa 0,0 l/m 12,9 km/h (3 Bft) O-NO 66 0 min 0,000 mm 0,0 UV-I 0 W/m 4,2 C 4,7 C 19,3 km/h (3 Bft) 100,00 %
03.04.2016 00:40 8,8 C 72 % 1015,7 hPa 0,0 l/m 13,9 km/h (3 Bft) O 85 0 min 0,000 mm 0,0 UV-I 0 W/m 4,0 C 4,2 C 17,7 km/h (3 Bft) 100,00 %
03.04.2016 00:41 8,8 C 72 % 1015,6 hPa 0,0 l/m 13,1 km/h (3 Bft) O-NO 76 0 min 0,000 mm 0,0 UV-I 0 W/m 4,0 C 4,6 C 17,7 km/h (3 Bft) 100,00 %
03.04.2016 00:42 8,8 C 73 % 1015,6 hPa 0,0 l/m 11,9 km/h (2 Bft) O 82 0 min 0,000 mm 0,0 UV-I 0 W/m 4,2 C 5,2 C 17,7 km/h (3 Bft) 100,00 %
03.04.2016 00:43 8,8 C 72 % 1015,6 hPa 0,0 l/m 13,8 km/h (3 Bft) O-NO 78 0 min 0,000 mm 0,0 UV-I 0 W/m 4,0 C 4,2 C 16,1 km/h (3 Bft) 100,00 %
03.04.2016 00:44 8,8 C 72 % 1015,5 hPa 0,0 l/m 14,1 km/h (3 Bft) O 89 0 min 0,000 mm 0,0 UV-I 0 W/m 4,0 C 4,1 C 17,7 km/h (3 Bft) 100,00 %
03.04.2016 00:45 8,8 C 72 % 1015,5 hPa 0,0 l/m 13,8 km/h (3 Bft) O-NO 72 0 min 0,000 mm 0,0 UV-I 0 W/m 4,0 C 4,2 C 17,7 km/h (3 Bft) 100,00 %
03.04.2016 00:46 8,8 C 72 % 1015,5 hPa 0,0 l/m 14,2 km/h (3 Bft) O-NO 69 0 min 0,000 mm 0,0 UV-I 0 W/m 4,0 C 4,0 C 19,3 km/h (3 Bft) 100,00 %
03.04.2016 00:47 8,8 C 73 % 1015,5 hPa 0,0 l/m 14,0 km/h (3 Bft) O-NO 65 0 min 0,000 mm 0,0 UV-I 0 W/m 4,2 C 4,1 C 17,7 km/h (3 Bft) 100,00 %
03.04.2016 00:48 8,8 C 73 % 1015,5 hPa 0,0 l/m 14,4 km/h (3 Bft) O-NO 63 0 min 0,000 mm 0,0 UV-I 0 W/m 4,2 C 4,0 C 19,3 km/h (3 Bft) 100,00 %
03.04.2016 00:49 8,8 C 73 % 1015,5 hPa 0,0 l/m 16,0 km/h (3 Bft) O-NO 68 0 min 0,000 mm 0,0 UV-I 0 W/m 4,2 C 3,3 C 20,9 km/h (4 Bft) 100,00 %
03.04.2016 00:50 8,7 C 73 % 1015,5 hPa 0,0 l/m 13,5 km/h (3 Bft) O-NO 69 0 min 0,000 mm 0,0 UV-I 0 W/m 4,1 C 4,3 C 19,3 km/h (3 Bft) 100,00 %
03.04.2016 00:51 8,7 C 73 % 1015,5 hPa 0,0 l/m 14,8 km/h (3 Bft) O 94 0 min 0,000 mm 0,0 UV-I 0 W/m 4,1 C 3,6 C 20,9 km/h (4 Bft) 100,00 %
03.04.2016 00:52 8,7 C 73 % 1015,5 hPa 0,0 l/m 12,6 km/h (3 Bft) O-NO 73 0 min 0,000 mm 0,0 UV-I 0 W/m 4,1 C 4,7 C 16,1 km/h (3 Bft) 100,00 %
03.04.2016 00:53 8,7 C 73 % 1015,5 hPa 0,0 l/m 11,8 km/h (2 Bft) NO 46 0 min 0,000 mm 0,0 UV-I 0 W/m 4,1 C 5,1 C 16,1 km/h (3 Bft) 100,00 %
03.04.2016 00:54 8,7 C 73 % 1015,5 hPa 0,0 l/m 14,5 km/h (3 Bft) O-NO 63 0 min 0,000 mm 0,0 UV-I 0 W/m 4,1 C 3,8 C 22,5 km/h (4 Bft) 100,00 %
03.04.2016 00:55 8,7 C 73 % 1015,5 hPa 0,0 l/m 16,3 km/h (3 Bft) O-NO 70 0 min 0,000 mm 0,0 UV-I 0 W/m 4,1 C 3,0 C 22,5 km/h (4 Bft) 100,00 %
03.04.2016 00:56 8,7 C 73 % 1015,5 hPa 0,0 l/m 15,2 km/h (3 Bft) NO 36 0 min 0,000 mm 0,0 UV-I 0 W/m 4,1 C 3,5 C 19,3 km/h (3 Bft) 100,00 %
03.04.2016 00:57 8,7 C 73 % 1015,5 hPa 0,0 l/m 15,2 km/h (3 Bft) O-NO 57 0 min 0,000 mm 0,0 UV-I 0 W/m 4,1 C 3,5 C 22,5 km/h (4 Bft) 100,00 %
03.04.2016 00:58 8,7 C 73 % 1015,4 hPa 0,0 l/m 12,4 km/h (3 Bft) O-NO 70 0 min 0,000 mm 0,0 UV-I 0 W/m 4,1 C 4,8 C 17,7 km/h (3 Bft) 100,00 %
03.04.2016 00:59 8,6 C 73 % 1015,4 hPa 0,0 l/m 15,2 km/h (3 Bft) NO 55 0 min 0,000 mm 0,0 UV-I 0 W/m 4,0 C 3,3 C 19,3 km/h (3 Bft) 95,65 %
03.04.2016 01:00 8,7 C 73 % 1015,4 hPa 0,0 l/m 17,3 km/h (3 Bft) O-NO 68 0 min 0,051 mm 0,0 UV-I 0 W/m 4,1 C 2,6 C 19,3 km/h (3 Bft) 100,00 %
03.04.2016 01:01 8,7 C 73 % 1015,4 hPa 0,0 l/m 14,3 km/h (3 Bft) NO 46 0 min 0,000 mm 0,0 UV-I 0 W/m 4,1 C 3,9 C 19,3 km/h (3 Bft) 95,65 %
03.04.2016 01:02 8,7 C 73 % 1015,4 hPa 0,0 l/m 14,9 km/h (3 Bft) O-NO 66 0 min 0,000 mm 0,0 UV-I 0 W/m 4,1 C 3,6 C 20,9 km/h (4 Bft) 100,00 %
03.04.2016 01:03 8,7 C 73 % 1015,4 hPa 0,0 l/m 18,3 km/h (3 Bft) O-NO 75 0 min 0,000 mm 0,0 UV-I 0 W/m 4,1 C 2,2 C 25,7 km/h (4 Bft) 95,65 %
03.04.2016 01:04 8,7 C 73 % 1015,4 hPa 0,0 l/m 16,1 km/h (3 Bft) NO 52 0 min 0,000 mm 0,0 UV-I 0 W/m 4,1 C 3,1 C 24,1 km/h (4 Bft) 100,00 %
03.04.2016 01:05 8,7 C 73 % 1015,4 hPa 0,0 l/m 17,4 km/h (3 Bft) NO 51 0 min 0,000 mm 0,0 UV-I 0 W/m 4,1 C 2,6 C 20,9 km/h (4 Bft) 100,00 %
03.04.2016 01:06 8,6 C 73 % 1015,4 hPa 0,0 l/m 15,6 km/h (3 Bft) O-NO 66 0 min 0,000 mm 0,0 UV-I 0 W/m 4,0 C 3,2 C 20,9 km/h (4 Bft) 100,00 %
03.04.2016 01:07 8,6 C 73 % 1015,4 hPa 0,0 l/m 17,7 km/h (3 Bft) O-NO 66 0 min 0,000 mm 0,0 UV-I 0 W/m 4,0 C 2,3 C 20,9 km/h (4 Bft) 100,00 %
03.04.2016 01:08 8,6 C 73 % 1015,4 hPa 0,0 l/m 16,8 km/h (3 Bft) O-NO 76 0 min 0,000 mm 0,0 UV-I 0 W/m 4,0 C 2,7 C 20,9 km/h (4 Bft) 91,30 %
03.04.2016 01:09 8,6 C 73 % 1015,3 hPa 0,0 l/m 13,9 km/h (3 Bft) O 86 0 min 0,000 mm 0,0 UV-I 0 W/m 4,0 C 3,9 C 17,7 km/h (3 Bft) 100,00 %
03.04.2016 01:10 8,6 C 73 % 1015,4 hPa 0,0 l/m 15,2 km/h (3 Bft) O-NO 63 0 min 0,000 mm 0,0 UV-I 0 W/m 4,0 C 3,3 C 19,3 km/h (3 Bft) 100,00 %
03.04.2016 01:11 8,6 C 73 % 1015,4 hPa 0,0 l/m 14,4 km/h (3 Bft) O-NO 68 0 min 0,000 mm 0,0 UV-I 0 W/m 4,0 C 3,7 C 17,7 km/h (3 Bft) 100,00 %
03.04.2016 01:12 8,6 C 73 % 1015,4 hPa 0,0 l/m 15,0 km/h (3 Bft) O 83 0 min 0,000 mm 0,0 UV-I 0 W/m 4,0 C 3,4 C 22,5 km/h (4 Bft) 95,65 %
03.04.2016 01:13 8,6 C 73 % 1015,4 hPa 0,0 l/m 13,2 km/h (3 Bft) NO 40 0 min 0,000 mm 0,0 UV-I 0 W/m 4,0 C 4,3 C 17,7 km/h (3 Bft) 100,00 %
03.04.2016 01:14 8,6 C 73 % 1015,4 hPa 0,0 l/m 10,3 km/h (2 Bft) O-NO 64 0 min 0,000 mm 0,0 UV-I 0 W/m 4,0 C 5,9 C 16,1 km/h (3 Bft) 100,00 %
03.04.2016 01:15 8,6 C 73 % 1015,4 hPa 0,0 l/m 11,3 km/h (2 Bft) NO 56 0 min 0,000 mm 0,0 UV-I 0 W/m 4,0 C 5,3 C 16,1 km/h (3 Bft) 100,00 %
03.04.2016 01:16 8,5 C 73 % 1015,4 hPa 0,0 l/m 12,7 km/h (3 Bft) NO 49 0 min 0,000 mm 0,0 UV-I 0 W/m 3,9 C 4,4 C 17,7 km/h (3 Bft) 91,30 %
03.04.2016 01:17 8,5 C 73 % 1015,4 hPa 0,0 l/m 14,0 km/h (3 Bft) O-NO 70 0 min 0,000 mm 0,0 UV-I 0 W/m 3,9 C 3,8 C 19,3 km/h (3 Bft) 100,00 %
03.04.2016 01:18 8,4 C 73 % 1015,4 hPa 0,0 l/m 13,6 km/h (3 Bft) NO 52 0 min 0,000 mm 0,0 UV-I 0 W/m 3,8 C 3,9 C 20,9 km/h (4 Bft) 100,00 %
03.04.2016 01:19 8,4 C 73 % 1015,4 hPa 0,0 l/m 11,8 km/h (2 Bft) O-NO 66 0 min 0,000 mm 0,0 UV-I 0 W/m 3,8 C 4,8 C 14,5 km/h (3 Bft) 100,00 %
03.04.2016 01:20 8,4 C 73 % 1015,3 hPa 0,0 l/m 10,8 km/h (2 Bft) O-NO 69 0 min 0,000 mm 0,0 UV-I 0 W/m 3,8 C 5,3 C 14,5 km/h (3 Bft) 100,00 %
03.04.2016 01:21 8,4 C 73 % 1015,3 hPa 0,0 l/m 12,2 km/h (2 Bft) O 80 0 min 0,000 mm 0,0 UV-I 0 W/m 3,8 C 4,6 C 19,3 km/h (3 Bft) 100,00 %
03.04.2016 01:22 8,4 C 73 % 1015,3 hPa 0,0 l/m 13,0 km/h (3 Bft) O-NO 65 0 min 0,000 mm 0,0 UV-I 0 W/m 3,8 C 4,1 C 17,7 km/h (3 Bft) 95,65 %
03.04.2016 01:23 8,4 C 74 % 1015,3 hPa 0,0 l/m 11,8 km/h (2 Bft) O-NO 66 0 min 0,000 mm 0,0 UV-I 0 W/m 4,0 C 4,8 C 14,5 km/h (3 Bft) 100,00 %
03.04.2016 01:24 8,4 C 74 % 1015,3 hPa 0,0 l/m 12,8 km/h (3 Bft) O-NO 67 0 min 0,000 mm 0,0 UV-I 0 W/m 4,0 C 4,3 C 16,1 km/h (3 Bft) 95,83 %
03.04.2016 01:25 8,4 C 73 % 1015,3 hPa 0,0 l/m 13,0 km/h (3 Bft) NO 48 0 min 0,000 mm 0,0 UV-I 0 W/m 3,8 C 4,1 C 19,3 km/h (3 Bft) 100,00 %
03.04.2016 01:26 8,4 C 73 % 1015,2 hPa 0,0 l/m 11,9 km/h (2 Bft) NO 55 0 min 0,000 mm 0,0 UV-I 0 W/m 3,8 C 4,7 C 16,1 km/h (3 Bft) 100,00 %
03.04.2016 01:27 8,4 C 74 % 1015,3 hPa 0,0 l/m 14,6 km/h (3 Bft) O-NO 74 0 min 0,000 mm 0,0 UV-I 0 W/m 4,0 C 3,4 C 20,9 km/h (4 Bft) 100,00 %
03.04.2016 01:28 8,4 C 73 % 1015,2 hPa 0,0 l/m 12,4 km/h (3 Bft) O-NO 63 0 min 0,000 mm 0,0 UV-I 0 W/m 3,8 C 4,5 C 16,1 km/h (3 Bft) 100,00 %
03.04.2016 01:29 8,4 C 74 % 1015,2 hPa 0,0 l/m 11,5 km/h (2 Bft) NO 52 0 min 0,000 mm 0,0 UV-I 0 W/m 4,0 C 4,9 C 17,7 km/h (3 Bft) 100,00 %
03.04.2016 01:30 8,4 C 74 % 1015,2 hPa 0,0 l/m 11,5 km/h (2 Bft) NO 51 0 min 0,000 mm 0,0 UV-I 0 W/m 4,0 C 4,9 C 16,1 km/h (3 Bft) 100,00 %
03.04.2016 01:31 8,3 C 74 % 1015,2 hPa 0,0 l/m 11,7 km/h (2 Bft) NO 53 0 min 0,000 mm 0,0 UV-I 0 W/m 3,9 C 4,7 C 16,1 km/h (3 Bft) 100,00 %
03.04.2016 01:32 8,3 C 74 % 1015,2 hPa 0,0 l/m 10,2 km/h (2 Bft) NO 48 0 min 0,000 mm 0,0 UV-I 0 W/m 3,9 C 5,6 C 14,5 km/h (3 Bft) 100,00 %
03.04.2016 01:33 8,3 C 74 % 1015,3 hPa 0,0 l/m 10,7 km/h (2 Bft) O-NO 62 0 min 0,000 mm 0,0 UV-I 0 W/m 3,9 C 5,3 C 14,5 km/h (3 Bft) 95,65 %
03.04.2016 01:34 8,3 C 74 % 1015,3 hPa 0,0 l/m 9,8 km/h (2 Bft) O-NO 63 0 min 0,000 mm 0,0 UV-I 0 W/m 3,9 C 5,8 C 16,1 km/h (3 Bft) 100,00 %
03.04.2016 01:35 8,3 C 74 % 1015,3 hPa 0,0 l/m 9,5 km/h (2 Bft) NO 54 0 min 0,000 mm 0,0 UV-I 0 W/m 3,9 C 6,0 C 14,5 km/h (3 Bft) 100,00 %
03.04.2016 01:36 8,3 C 74 % 1015,3 hPa 0,0 l/m 10,9 km/h (2 Bft) O-NO 61 0 min 0,000 mm 0,0 UV-I 0 W/m 3,9 C 5,2 C 14,5 km/h (3 Bft) 100,00 %
03.04.2016 01:37 8,3 C 74 % 1015,3 hPa 0,0 l/m 9,4 km/h (2 Bft) O-NO 69 0 min 0,000 mm 0,0 UV-I 0 W/m 3,9 C 6,1 C 14,5 km/h (3 Bft) 96,15 %
03.04.2016 01:38 8,3 C 74 % 1015,3 hPa 0,0 l/m 7,2 km/h (2 Bft) O-NO 59 0 min 0,000 mm 0,0 UV-I 0 W/m 3,9 C 7,7 C 9,7 km/h (2 Bft) 100,00 %
03.04.2016 01:39 8,3 C 74 % 1015,3 hPa 0,0 l/m 9,3 km/h (2 Bft) NO 53 0 min 0,000 mm 0,0 UV-I 0 W/m 3,9 C 6,2 C 16,1 km/h (3 Bft) 100,00 %
03.04.2016 01:40 8,2 C 74 % 1015,3 hPa 0,0 l/m 9,4 km/h (2 Bft) NO 51 0 min 0,000 mm 0,0 UV-I 0 W/m 3,8 C 6,0 C 14,5 km/h (3 Bft) 100,00 %
03.04.2016 01:41 8,2 C 74 % 1015,3 hPa 0,0 l/m 7,6 km/h (2 Bft) NO 43 0 min 0,000 mm 0,0 UV-I 0 W/m 3,8 C 7,3 C 12,9 km/h (3 Bft) 100,00 %
03.04.2016 01:42 8,2 C 74 % 1015,4 hPa 0,0 l/m 8,0 km/h (2 Bft) NO 53 0 min 0,000 mm 0,0 UV-I 0 W/m 3,8 C 7,0 C 11,3 km/h (2 Bft) 100,00 %
03.04.2016 01:43 8,2 C 74 % 1015,4 hPa 0,0 l/m 7,4 km/h (2 Bft) NO 40 0 min 0,000 mm 0,0 UV-I 0 W/m 3,8 C 7,4 C 9,7 km/h (2 Bft) 100,00 %
03.04.2016 01:44 8,2 C 75 % 1015,4 hPa 0,0 l/m 6,2 km/h (2 Bft) O-NO 64 0 min 0,000 mm 0,0 UV-I 0 W/m 4,0 C 8,2 C 9,7 km/h (2 Bft) 100,00 %
03.04.2016 01:45 8,1 C 75 % 1015,4 hPa 0,0 l/m 5,1 km/h (1 Bft) NO 53 0 min 0,000 mm 0,0 UV-I 0 W/m 3,9 C 8,1 C 6,4 km/h (2 Bft) 91,67 %
03.04.2016 01:46 8,1 C 75 % 1015,4 hPa 0,0 l/m 6,2 km/h (2 Bft) NO 46 0 min 0,000 mm 0,0 UV-I 0 W/m 3,9 C 8,1 C 8,0 km/h (2 Bft) 100,00 %
03.04.2016 01:47 7,9 C 75 % 1015,4 hPa 0,0 l/m 5,4 km/h (1 Bft) NO 40 0 min 0,000 mm 0,0 UV-I 0 W/m 3,7 C 7,9 C 6,4 km/h (2 Bft) 95,83 %
03.04.2016 01:48 7,8 C 76 % 1015,4 hPa 0,0 l/m 5,4 km/h (1 Bft) NO 41 0 min 0,000 mm 0,0 UV-I 0 W/m 3,8 C 7,8 C 8,0 km/h (2 Bft) 100,00 %
03.04.2016 01:49 7,7 C 76 % 1015,4 hPa 0,0 l/m 5,6 km/h (1 Bft) N-NO 30 0 min 0,000 mm 0,0 UV-I 0 W/m 3,7 C 7,7 C 8,0 km/h (2 Bft) 96,30 %
03.04.2016 01:50 7,7 C 76 % 1015,4 hPa 0,0 l/m 6,1 km/h (2 Bft) NO 53 0 min 0,000 mm 0,0 UV-I 0 W/m 3,7 C 7,7 C 8,0 km/h (2 Bft) 95,65 %
03.04.2016 01:51 7,6 C 77 % 1015,4 hPa 0,0 l/m 6,1 km/h (2 Bft) NO 35 0 min 0,000 mm 0,0 UV-I 0 W/m 3,8 C 7,6 C 8,0 km/h (2 Bft) 100,00 %
03.04.2016 01:52 7,5 C 77 % 1015,3 hPa 0,0 l/m 6,8 km/h (2 Bft) NO 49 0 min 0,000 mm 0,0 UV-I 0 W/m 3,7 C 7,2 C 8,0 km/h (2 Bft) 96,15 %
03.04.2016 01:53 7,4 C 78 % 1015,3 hPa 0,0 l/m 6,8 km/h (2 Bft) NO 34 0 min 0,000 mm 0,0 UV-I 0 W/m 3,8 C 7,1 C 9,7 km/h (2 Bft) 100,00 %
03.04.2016 01:54 7,3 C 78 % 1015,3 hPa 0,0 l/m 6,8 km/h (2 Bft) NO 50 0 min 0,000 mm 0,0 UV-I 0 W/m 3,7 C 7,0 C 8,0 km/h (2 Bft) 95,65 %
03.04.2016 01:55 7,2 C 78 % 1015,3 hPa 0,0 l/m 6,1 km/h (2 Bft) NO 46 0 min 0,000 mm 0,0 UV-I 0 W/m 3,6 C 7,2 C 8,0 km/h (2 Bft) 95,83 %
03.04.2016 01:56 7,2 C 78 % 1015,3 hPa 0,0 l/m 8,2 km/h (2 Bft) NO 35 0 min 0,000 mm 0,0 UV-I 0 W/m 3,6 C 5,8 C 11,3 km/h (2 Bft) 100,00 %
03.04.2016 01:57 7,2 C 78 % 1015,2 hPa 0,0 l/m 7,6 km/h (2 Bft) NO 38 0 min 0,000 mm 0,0 UV-I 0 W/m 3,6 C 6,2 C 9,7 km/h (2 Bft) 95,83 %
03.04.2016 01:58 7,1 C 79 % 1015,2 hPa 0,0 l/m 6,8 km/h (2 Bft) N-NO 27 0 min 0,000 mm 0,0 UV-I 0 W/m 3,7 C 6,8 C 8,0 km/h (2 Bft) 100,00 %
03.04.2016 01:59 7,1 C 79 % 1015,2 hPa 0,0 l/m 9,0 km/h (2 Bft) NO 34 0 min 0,000 mm 0,0 UV-I 0 W/m 3,7 C 5,1 C 11,3 km/h (2 Bft) 96,30 %
03.04.2016 02:00 7,1 C 79 % 1015,2 hPa 0,0 l/m 8,9 km/h (2 Bft) NO 42 0 min 0,000 mm 0,0 UV-I 0 W/m 3,7 C 5,1 C 12,9 km/h (3 Bft) 100,00 %
03.04.2016 02:01 7,1 C 79 % 1015,2 hPa 0,0 l/m 8,0 km/h (2 Bft) NO 42 0 min 0,025 mm 0,0 UV-I 0 W/m 3,7 C 5,8 C 12,9 km/h (3 Bft) 91,67 %
03.04.2016 02:02 7,0 C 79 % 1015,2 hPa 0,0 l/m 7,8 km/h (2 Bft) N-NO 30 0 min 0,000 mm 0,0 UV-I 0 W/m 3,6 C 5,9 C 9,7 km/h (2 Bft) 95,65 %
03.04.2016 02:03 7,0 C 79 % 1015,2 hPa 0,0 l/m 6,2 km/h (2 Bft) N-NO 32 0 min 0,000 mm 0,0 UV-I 0 W/m 3,6 C 7,0 C 9,7 km/h (2 Bft) 95,83 %
03.04.2016 02:04 6,9 C 79 % 1015,2 hPa 0,0 l/m 9,2 km/h (2 Bft) NO 34 0 min 0,000 mm 0,0 UV-I 0 W/m 3,5 C 4,7 C 12,9 km/h (3 Bft) 100,00 %
03.04.2016 02:05 6,9 C 79 % 1015,2 hPa 0,0 l/m 8,5 km/h (2 Bft) N-NO 26 0 min 0,000 mm 0,0 UV-I 0 W/m 3,5 C 5,2 C 11,3 km/h (2 Bft) 95,65 %
03.04.2016 02:06 6,9 C 80 % 1015,2 hPa 0,0 l/m 8,2 km/h (2 Bft) N-NO 21 0 min 0,000 mm 0,0 UV-I 0 W/m 3,7 C 5,4 C 9,7 km/h (2 Bft) 100,00 %
03.04.2016 02:07 7,0 C 79 % 1015,1 hPa 0,0 l/m 7,5 km/h (2 Bft) NO 48 0 min 0,000 mm 0,0 UV-I 0 W/m 3,6 C 6,1 C 11,3 km/h (2 Bft) 91,30 %
03.04.2016 02:08 7,0 C 79 % 1015,1 hPa 0,0 l/m 9,4 km/h (2 Bft) NO 38 0 min 0,000 mm 0,0 UV-I 0 W/m 3,6 C 4,7 C 14,5 km/h (3 Bft) 95,83 %
03.04.2016 02:09 7,1 C 79 % 1015,1 hPa 0,0 l/m 7,0 km/h (2 Bft) NO 55 0 min 0,000 mm 0,0 UV-I 0 W/m 3,7 C 6,6 C 9,7 km/h (2 Bft) 100,00 %
03.04.2016 02:10 7,1 C 79 % 1015,1 hPa 0,0 l/m 6,9 km/h (2 Bft) NO 43 0 min 0,000 mm 0,0 UV-I 0 W/m 3,7 C 6,7 C 8,0 km/h (2 Bft) 95,83 %
03.04.2016 02:11 7,1 C 79 % 1015,1 hPa 0,0 l/m 6,9 km/h (2 Bft) O-NO 62 0 min 0,000 mm 0,0 UV-I 0 W/m 3,7 C 6,7 C 11,3 km/h (2 Bft) 100,00 %
03.04.2016 02:12 7,2 C 79 % 1015,1 hPa 0,0 l/m 6,3 km/h (2 Bft) NO 49 0 min 0,000 mm 0,0 UV-I 0 W/m 3,8 C 7,2 C 9,7 km/h (2 Bft) 95,83 %
03.04.2016 02:13 7,2 C 79 % 1015,1 hPa 0,0 l/m 6,1 km/h (2 Bft) NO 52 0 min 0,000 mm 0,0 UV-I 0 W/m 3,8 C 7,2 C 8,0 km/h (2 Bft) 96,15 %
03.04.2016 02:14 7,2 C 78 % 1015,1 hPa 0,0 l/m 5,1 km/h (1 Bft) NO 44 0 min 0,000 mm 0,0 UV-I 0 W/m 3,6 C 7,2 C 6,4 km/h (2 Bft) 95,83 %
03.04.2016 02:15 7,2 C 78 % 1015,1 hPa 0,0 l/m 7,1 km/h (2 Bft) NO 51 0 min 0,000 mm 0,0 UV-I 0 W/m 3,6 C 6,6 C 9,7 km/h (2 Bft) 95,65 %
03.04.2016 02:16 7,3 C 78 % 1015,1 hPa 0,0 l/m 7,6 km/h (2 Bft) O-NO 64 0 min 0,000 mm 0,0 UV-I 0 W/m 3,7 C 6,3 C 9,7 km/h (2 Bft) 100,00 %
03.04.2016 02:17 7,2 C 78 % 1015,1 hPa 0,0 l/m 9,1 km/h (2 Bft) NO 47 0 min 0,000 mm 0,0 UV-I 0 W/m 3,6 C 5,1 C 11,3 km/h (2 Bft) 92,86 %
03.04.2016 02:18 7,3 C 78 % 1015,1 hPa 0,0 l/m 8,2 km/h (2 Bft) O-NO 57 0 min 0,000 mm 0,0 UV-I 0 W/m 3,7 C 5,9 C 9,7 km/h (2 Bft) 100,00 %
03.04.2016 02:19 7,3 C 78 % 1015,1 hPa 0,0 l/m 8,5 km/h (2 Bft) O-NO 60 0 min 0,000 mm 0,0 UV-I 0 W/m 3,7 C 5,6 C 11,3 km/h (2 Bft) 95,65 %
03.04.2016 02:20 7,3 C 78 % 1015,1 hPa 0,0 l/m 7,2 km/h (2 Bft) NO 34 0 min 0,000 mm 0,0 UV-I 0 W/m 3,7 C 6,7 C 9,7 km/h (2 Bft) 100,00 %
03.04.2016 02:21 7,3 C 78 % 1015,1 hPa 0,0 l/m 8,6 km/h (2 Bft) O-NO 61 0 min 0,000 mm 0,0 UV-I 0 W/m 3,7 C 5,6 C 11,3 km/h (2 Bft) 100,00 %
03.04.2016 02:22 7,3 C 78 % 1015,0 hPa 0,0 l/m 8,4 km/h (2 Bft) O-NO 59 0 min 0,000 mm 0,0 UV-I 0 W/m 3,7 C 5,7 C 9,7 km/h (2 Bft) 100,00 %
03.04.2016 02:23 7,3 C 78 % 1015,0 hPa 0,0 l/m 8,6 km/h (2 Bft) O-NO 57 0 min 0,000 mm 0,0 UV-I 0 W/m 3,7 C 5,6 C 14,5 km/h (3 Bft) 100,00 %
03.04.2016 02:24 7,3 C 78 % 1015,0 hPa 0,0 l/m 8,7 km/h (2 Bft) O-NO 61 0 min 0,000 mm 0,0 UV-I 0 W/m 3,7 C 5,5 C 11,3 km/h (2 Bft) 95,83 %
03.04.2016 02:25 7,3 C 78 % 1015,1 hPa 0,0 l/m 8,8 km/h (2 Bft) NO 49 0 min 0,000 mm 0,0 UV-I 0 W/m 3,7 C 5,4 C 11,3 km/h (2 Bft) 100,00 %
03.04.2016 02:26 7,3 C 77 % 1015,1 hPa 0,0 l/m 9,4 km/h (2 Bft) NO 53 0 min 0,000 mm 0,0 UV-I 0 W/m 3,5 C 5,0 C 14,5 km/h (3 Bft) 100,00 %
03.04.2016 02:27 7,3 C 78 % 1015,0 hPa 0,0 l/m 7,7 km/h (2 Bft) NO 45 0 min 0,000 mm 0,0 UV-I 0 W/m 3,7 C 6,2 C 11,3 km/h (2 Bft) 100,00 %
03.04.2016 02:28 7,3 C 78 % 1015,0 hPa 0,0 l/m 8,6 km/h (2 Bft) NO 51 0 min 0,000 mm 0,0 UV-I 0 W/m 3,7 C 5,6 C 12,9 km/h (3 Bft) 100,00 %
03.04.2016 02:29 7,3 C 78 % 1015,0 hPa 0,0 l/m 8,4 km/h (2 Bft) O-NO 61 0 min 0,000 mm 0,0 UV-I 0 W/m 3,7 C 5,7 C 12,9 km/h (3 Bft) 100,00 %
03.04.2016 02:30 7,3 C 78 % 1015,0 hPa 0,0 l/m 9,9 km/h (2 Bft) O-NO 59 0 min 0,000 mm 0,0 UV-I 0 W/m 3,7 C 4,7 C 11,3 km/h (2 Bft) 100,00 %
03.04.2016 02:31 7,3 C 78 % 1015,0 hPa 0,0 l/m 8,8 km/h (2 Bft) NO 53 0 min 0,000 mm 0,0 UV-I 0 W/m 3,7 C 5,4 C 11,3 km/h (2 Bft) 100,00 %
03.04.2016 02:32 7,3 C 78 % 1014,9 hPa 0,0 l/m 8,9 km/h (2 Bft) O-NO 64 0 min 0,000 mm 0,0 UV-I 0 W/m 3,7 C 5,4 C 12,9 km/h (3 Bft) 90,91 %
03.04.2016 02:33 7,3 C 78 % 1014,9 hPa 0,0 l/m 9,2 km/h (2 Bft) NO 51 0 min 0,000 mm 0,0 UV-I 0 W/m 3,7 C 5,1 C 12,9 km/h (3 Bft) 100,00 %
03.04.2016 02:34 7,3 C 78 % 1014,9 hPa 0,0 l/m 9,0 km/h (2 Bft) NO 50 0 min 0,000 mm 0,0 UV-I 0 W/m 3,7 C 5,3 C 11,3 km/h (2 Bft) 100,00 %
03.04.2016 02:35 7,3 C 78 % 1014,9 hPa 0,0 l/m 8,1 km/h (2 Bft) O-NO 60 0 min 0,000 mm 0,0 UV-I 0 W/m 3,7 C 5,9 C 12,9 km/h (3 Bft) 100,00 %
03.04.2016 02:36 7,3 C 77 % 1014,9 hPa 0,0 l/m 6,6 km/h (2 Bft) O-NO 61 0 min 0,000 mm 0,0 UV-I 0 W/m 3,5 C 7,2 C 9,7 km/h (2 Bft) 100,00 %
03.04.2016 02:37 7,3 C 77 % 1014,9 hPa 0,0 l/m 6,8 km/h (2 Bft) O-NO 61 0 min 0,000 mm 0,0 UV-I 0 W/m 3,5 C 7,0 C 8,0 km/h (2 Bft) 100,00 %
03.04.2016 02:38 7,3 C 78 % 1014,9 hPa 0,0 l/m 6,5 km/h (2 Bft) NO 44 0 min 0,000 mm 0,0 UV-I 0 W/m 3,7 C 7,2 C 11,3 km/h (2 Bft) 95,65 %
03.04.2016 02:39 7,3 C 78 % 1014,8 hPa 0,0 l/m 6,5 km/h (2 Bft) NO 55 0 min 0,000 mm 0,0 UV-I 0 W/m 3,7 C 7,2 C 8,0 km/h (2 Bft) 100,00 %
03.04.2016 02:40 7,2 C 78 % 1014,8 hPa 0,0 l/m 5,3 km/h (1 Bft) O-NO 65 0 min 0,000 mm 0,0 UV-I 0 W/m 3,6 C 7,2 C 8,0 km/h (2 Bft) 100,00 %
03.04.2016 02:41 7,2 C 78 % 1014,9 hPa 0,0 l/m 5,2 km/h (1 Bft) NO 49 0 min 0,000 mm 0,0 UV-I 0 W/m 3,6 C 7,2 C 8,0 km/h (2 Bft) 100,00 %
03.04.2016 02:42 7,2 C 78 % 1014,9 hPa 0,0 l/m 2,8 km/h (1 Bft) NO 49 0 min 0,000 mm 0,0 UV-I 0 W/m 3,6 C 7,2 C 4,8 km/h (1 Bft) 100,00 %
03.04.2016 02:43 7,1 C 78 % 1014,8 hPa 0,0 l/m 4,3 km/h (1 Bft) O-NO 59 0 min 0,000 mm 0,0 UV-I 0 W/m 3,5 C 7,1 C 6,4 km/h (2 Bft) 100,00 %
03.04.2016 02:44 7,0 C 79 % 1014,8 hPa 0,0 l/m 2,8 km/h (1 Bft) O-NO 65 0 min 0,000 mm 0,0 UV-I 0 W/m 3,6 C 7,0 C 3,2 km/h (1 Bft) 100,00 %
03.04.2016 02:45 6,9 C 79 % 1014,9 hPa 0,0 l/m 2,2 km/h (1 Bft) O-NO 65 0 min 0,000 mm 0,0 UV-I 0 W/m 3,5 C 6,9 C 3,2 km/h (1 Bft) 100,00 %
03.04.2016 02:46 6,9 C 79 % 1014,9 hPa 0,0 l/m 2,9 km/h (1 Bft) O-NO 65 0 min 0,000 mm 0,0 UV-I 0 W/m 3,5 C 6,9 C 3,2 km/h (1 Bft) 95,83 %
03.04.2016 02:47 6,8 C 79 % 1014,9 hPa 0,0 l/m 2,2 km/h (1 Bft) O-NO 65 0 min 0,000 mm 0,0 UV-I 0 W/m 3,4 C 6,8 C 3,2 km/h (1 Bft) 100,00 %
03.04.2016 02:48 6,8 C 79 % 1014,9 hPa 0,0 l/m 2,2 km/h (1 Bft) O-NO 65 0 min 0,000 mm 0,0 UV-I 0 W/m 3,4 C 6,8 C 4,8 km/h (1 Bft) 100,00 %
03.04.2016 02:49 6,8 C 79 % 1014,9 hPa 0,0 l/m 2,9 km/h (1 Bft) O 82 0 min 0,000 mm 0,0 UV-I 0 W/m 3,4 C 6,8 C 6,4 km/h (2 Bft) 95,65 %
03.04.2016 02:50 6,8 C 79 % 1014,9 hPa 0,0 l/m 4,2 km/h (1 Bft) NO 51 0 min 0,000 mm 0,0 UV-I 0 W/m 3,4 C 6,8 C 6,4 km/h (2 Bft) 100,00 %
03.04.2016 02:51 6,8 C 79 % 1014,9 hPa 0,0 l/m 4,2 km/h (1 Bft) O-NO 67 0 min 0,000 mm 0,0 UV-I 0 W/m 3,4 C 6,8 C 4,8 km/h (1 Bft) 91,30 %
03.04.2016 02:52 6,8 C 79 % 1014,9 hPa 0,0 l/m 4,0 km/h (1 Bft) O 90 0 min 0,000 mm 0,0 UV-I 0 W/m 3,4 C 6,8 C 4,8 km/h (1 Bft) 100,00 %
03.04.2016 02:53 6,8 C 79 % 1014,9 hPa 0,0 l/m 3,4 km/h (1 Bft) O 90 0 min 0,000 mm 0,0 UV-I 0 W/m 3,4 C 6,8 C 4,8 km/h (1 Bft) 95,65 %
03.04.2016 02:54 6,8 C 79 % 1014,9 hPa 0,0 l/m 3,4 km/h (1 Bft) O-NO 59 0 min 0,000 mm 0,0 UV-I 0 W/m 3,4 C 6,8 C 4,8 km/h (1 Bft) 100,00 %
03.04.2016 02:55 6,7 C 79 % 1014,9 hPa 0,0 l/m 4,0 km/h (1 Bft) O-NO 73 0 min 0,000 mm 0,0 UV-I 0 W/m 3,3 C 6,7 C 6,4 km/h (2 Bft) 100,00 %
03.04.2016 02:56 6,8 C 79 % 1014,8 hPa 0,0 l/m 3,6 km/h (1 Bft) O-NO 65 0 min 0,000 mm 0,0 UV-I 0 W/m 3,4 C 6,8 C 4,8 km/h (1 Bft) 100,00 %
03.04.2016 02:57 6,8 C 79 % 1014,8 hPa 0,0 l/m 3,6 km/h (1 Bft) NO 40 0 min 0,000 mm 0,0 UV-I 0 W/m 3,4 C 6,8 C 4,8 km/h (1 Bft) 100,00 %
03.04.2016 02:58 6,8 C 79 % 1014,8 hPa 0,0 l/m 3,7 km/h (1 Bft) O-NO 78 0 min 0,000 mm 0,0 UV-I 0 W/m 3,4 C 6,8 C 4,8 km/h (1 Bft) 100,00 %
03.04.2016 02:59 6,8 C 79 % 1014,8 hPa 0,0 l/m 1,9 km/h (1 Bft) O-NO 78 0 min 0,000 mm 0,0 UV-I 0 W/m 3,4 C 6,8 C 3,2 km/h (1 Bft) 100,00 %
03.04.2016 03:00 6,8 C 79 % 1014,9 hPa 0,0 l/m 3,0 km/h (1 Bft) O-NO 78 0 min 0,000 mm 0,0 UV-I 0 W/m 3,4 C 6,8 C 4,8 km/h (1 Bft) 100,00 %
03.04.2016 03:01 6,8 C 79 % 1014,8 hPa 0,0 l/m 3,2 km/h (1 Bft) O-NO 78 0 min 0,026 mm 0,0 UV-I 0 W/m 3,4 C 6,8 C 6,4 km/h (2 Bft) 100,00 %
03.04.2016 03:02 6,8 C 79 % 1014,7 hPa 0,0 l/m 4,4 km/h (1 Bft) O-NO 64 0 min 0,000 mm 0,0 UV-I 0 W/m 3,4 C 6,8 C 6,4 km/h (2 Bft) 100,00 %
03.04.2016 03:03 6,7 C 79 % 1014,7 hPa 0,0 l/m 5,2 km/h (1 Bft) O 88 0 min 0,000 mm 0,0 UV-I 0 W/m 3,3 C 6,7 C 6,4 km/h (2 Bft) 100,00 %
03.04.2016 03:04 6,8 C 79 % 1014,7 hPa 0,0 l/m 4,3 km/h (1 Bft) O-NO 61 0 min 0,000 mm 0,0 UV-I 0 W/m 3,4 C 6,8 C 6,4 km/h (2 Bft) 100,00 %
03.04.2016 03:05 6,8 C 79 % 1014,7 hPa 0,0 l/m 4,3 km/h (1 Bft) O-NO 57 0 min 0,000 mm 0,0 UV-I 0 W/m 3,4 C 6,8 C 6,4 km/h (2 Bft) 100,00 %
03.04.2016 03:06 6,8 C 79 % 1014,7 hPa 0,0 l/m 4,4 km/h (1 Bft) NO 55 0 min 0,000 mm 0,0 UV-I 0 W/m 3,4 C 6,8 C 4,8 km/h (1 Bft) 100,00 %
03.04.2016 03:07 6,7 C 80 % 1014,6 hPa 0,0 l/m 3,7 km/h (1 Bft) NO 51 0 min 0,000 mm 0,0 UV-I 0 W/m 3,5 C 6,7 C 6,4 km/h (2 Bft) 100,00 %
03.04.2016 03:08 6,6 C 80 % 1014,7 hPa 0,0 l/m 3,6 km/h (1 Bft) NO 51 0 min 0,000 mm 0,0 UV-I 0 W/m 3,4 C 6,6 C 4,8 km/h (1 Bft) 95,65 %
03.04.2016 03:09 6,6 C 80 % 1014,7 hPa 0,0 l/m 3,1 km/h (1 Bft) NO 51 0 min 0,000 mm 0,0 UV-I 0 W/m 3,4 C 6,6 C 4,8 km/h (1 Bft) 100,00 %
03.04.2016 03:10 6,4 C 80 % 1014,6 hPa 0,0 l/m 2,8 km/h (1 Bft) NO 51 0 min 0,000 mm 0,0 UV-I 0 W/m 3,2 C 6,4 C 4,8 km/h (1 Bft) 96,15 %
03.04.2016 03:11 6,4 C 81 % 1014,7 hPa 0,0 l/m 2,2 km/h (1 Bft) NO 51 0 min 0,000 mm 0,0 UV-I 0 W/m 3,4 C 6,4 C 3,2 km/h (1 Bft) 100,00 %
03.04.2016 03:12 6,3 C 81 % 1014,7 hPa 0,0 l/m 2,0 km/h (1 Bft) NO 51 0 min 0,000 mm 0,0 UV-I 0 W/m 3,3 C 6,3 C 3,2 km/h (1 Bft) 100,00 %
03.04.2016 03:13 6,3 C 81 % 1014,6 hPa 0,0 l/m 1,3 km/h (1 Bft) NO 51 0 min 0,000 mm 0,0 UV-I 0 W/m 3,3 C 6,3 C 1,6 km/h (1 Bft) 100,00 %
03.04.2016 03:14 6,3 C 81 % 1014,6 hPa 0,0 l/m 0,9 km/h (0 Bft) NO 51 0 min 0,000 mm 0,0 UV-I 0 W/m 3,3 C 6,3 C 1,6 km/h (1 Bft) 95,65 %
03.04.2016 03:15 6,3 C 81 % 1014,6 hPa 0,0 l/m 2,3 km/h (1 Bft) NO 51 0 min 0,000 mm 0,0 UV-I 0 W/m 3,3 C 6,3 C 3,2 km/h (1 Bft) 95,83 %
03.04.2016 03:16 6,3 C 81 % 1014,6 hPa 0,0 l/m 3,3 km/h (1 Bft) NO 51 0 min 0,000 mm 0,0 UV-I 0 W/m 3,3 C 6,3 C 4,8 km/h (1 Bft) 100,00 %
03.04.2016 03:17 6,3 C 81 % 1014,5 hPa 0,0 l/m 3,1 km/h (1 Bft) NO 51 0 min 0,000 mm 0,0 UV-I 0 W/m 3,3 C 6,3 C 3,2 km/h (1 Bft) 100,00 %
03.04.2016 03:18 6,3 C 81 % 1014,5 hPa 0,0 l/m 3,7 km/h (1 Bft) NO 51 0 min 0,000 mm 0,0 UV-I 0 W/m 3,3 C 6,3 C 4,8 km/h (1 Bft) 100,00 %
03.04.2016 03:19 6,3 C 81 % 1014,5 hPa 0,0 l/m 3,3 km/h (1 Bft) NO 51 0 min 0,000 mm 0,0 UV-I 0 W/m 3,3 C 6,3 C 4,8 km/h (1 Bft) 100,00 %
03.04.2016 03:20 6,3 C 81 % 1014,5 hPa 0,0 l/m 3,3 km/h (1 Bft) NO 51 0 min 0,000 mm 0,0 UV-I 0 W/m 3,3 C 6,3 C 4,8 km/h (1 Bft) 95,65 %
03.04.2016 03:21 6,3 C 81 % 1014,5 hPa 0,0 l/m 3,9 km/h (1 Bft) NO 51 0 min 0,000 mm 0,0 UV-I 0 W/m 3,3 C 6,3 C 4,8 km/h (1 Bft) 100,00 %
03.04.2016 03:22 6,3 C 81 % 1014,5 hPa 0,0 l/m 3,4 km/h (1 Bft) NO 51 0 min 0,000 mm 0,0 UV-I 0 W/m 3,3 C 6,3 C 4,8 km/h (1 Bft) 100,00 %
03.04.2016 03:23 6,3 C 81 % 1014,5 hPa 0,0 l/m 3,1 km/h (1 Bft) NO 51 0 min 0,000 mm 0,0 UV-I 0 W/m 3,3 C 6,3 C 4,8 km/h (1 Bft) 100,00 %
03.04.2016 03:24 6,3 C 81 % 1014,5 hPa 0,0 l/m 1,3 km/h (1 Bft) NO 51 0 min 0,000 mm 0,0 UV-I 0 W/m 3,3 C 6,3 C 3,2 km/h (1 Bft) 91,30 %
03.04.2016 03:25 6,3 C 81 % 1014,5 hPa 0,0 l/m 0,8 km/h (0 Bft) NO 51 0 min 0,000 mm 0,0 UV-I 0 W/m 3,3 C 6,3 C 1,6 km/h (1 Bft) 100,00 %
03.04.2016 03:26 6,3 C 81 % 1014,5 hPa 0,0 l/m 1,6 km/h (1 Bft) NO 51 0 min 0,000 mm 0,0 UV-I 0 W/m 3,3 C 6,3 C 3,2 km/h (1 Bft) 100,00 %
03.04.2016 03:27 6,3 C 81 % 1014,5 hPa 0,0 l/m 0,7 km/h (0 Bft) NO 51 0 min 0,000 mm 0,0 UV-I 0 W/m 3,3 C 6,3 C 1,6 km/h (1 Bft) 100,00 %
03.04.2016 03:28 6,3 C 81 % 1014,5 hPa 0,0 l/m 0,6 km/h (0 Bft) NO 51 0 min 0,000 mm 0,0 UV-I 0 W/m 3,3 C 6,3 C 1,6 km/h (1 Bft) 100,00 %
03.04.2016 03:29 6,3 C 81 % 1014,5 hPa 0,0 l/m 2,2 km/h (1 Bft) NO 51 0 min 0,000 mm 0,0 UV-I 0 W/m 3,3 C 6,3 C 3,2 km/h (1 Bft) 100,00 %
03.04.2016 03:30 6,3 C 81 % 1014,5 hPa 0,0 l/m 2,4 km/h (1 Bft) NO 51 0 min 0,000 mm 0,0 UV-I 0 W/m 3,3 C 6,3 C 3,2 km/h (1 Bft) 100,00 %
03.04.2016 03:31 6,3 C 81 % 1014,5 hPa 0,0 l/m 1,9 km/h (1 Bft) NO 51 0 min 0,000 mm 0,0 UV-I 0 W/m 3,3 C 6,3 C 3,2 km/h (1 Bft) 100,00 %
03.04.2016 03:32 6,2 C 81 % 1014,5 hPa 0,0 l/m 2,2 km/h (1 Bft) O-NO 65 0 min 0,000 mm 0,0 UV-I 0 W/m 3,2 C 6,2 C 4,8 km/h (1 Bft) 100,00 %
03.04.2016 03:33 6,2 C 81 % 1014,4 hPa 0,0 l/m 2,7 km/h (1 Bft) O-NO 65 0 min 0,000 mm 0,0 UV-I 0 W/m 3,2 C 6,2 C 3,2 km/h (1 Bft) 100,00 %
03.04.2016 03:34 6,2 C 81 % 1014,4 hPa 0,0 l/m 4,2 km/h (1 Bft) O-NO 69 0 min 0,000 mm 0,0 UV-I 0 W/m 3,2 C 6,2 C 4,8 km/h (1 Bft) 100,00 %
03.04.2016 03:35 6,2 C 81 % 1014,4 hPa 0,0 l/m 3,4 km/h (1 Bft) O-NO 69 0 min 0,000 mm 0,0 UV-I 0 W/m 3,2 C 6,2 C 4,8 km/h (1 Bft) 100,00 %
03.04.2016 03:36 6,2 C 81 % 1014,4 hPa 0,0 l/m 3,9 km/h (1 Bft) NO 55 0 min 0,000 mm 0,0 UV-I 0 W/m 3,2 C 6,2 C 4,8 km/h (1 Bft) 100,00 %
03.04.2016 03:37 6,2 C 81 % 1014,3 hPa 0,0 l/m 4,5 km/h (1 Bft) NO 38 0 min 0,000 mm 0,0 UV-I 0 W/m 3,2 C 6,2 C 6,4 km/h (2 Bft) 100,00 %
03.04.2016 03:38 6,2 C 81 % 1014,3 hPa 0,0 l/m 3,2 km/h (1 Bft) NO 38 0 min 0,000 mm 0,0 UV-I 0 W/m 3,2 C 6,2 C 4,8 km/h (1 Bft) 100,00 %
03.04.2016 03:39 6,1 C 81 % 1014,3 hPa 0,0 l/m 3,0 km/h (1 Bft) NO 38 0 min 0,000 mm 0,0 UV-I 0 W/m 3,1 C 6,1 C 4,8 km/h (1 Bft) 100,00 %
03.04.2016 03:40 6,1 C 81 % 1014,3 hPa 0,0 l/m 2,9 km/h (1 Bft) NO 38 0 min 0,000 mm 0,0 UV-I 0 W/m 3,1 C 6,1 C 4,8 km/h (1 Bft) 100,00 %
03.04.2016 03:41 6,1 C 82 % 1014,4 hPa 0,0 l/m 3,4 km/h (1 Bft) NO 38 0 min 0,000 mm 0,0 UV-I 0 W/m 3,3 C 6,1 C 4,8 km/h (1 Bft) 100,00 %
03.04.2016 03:42 6,1 C 82 % 1014,4 hPa 0,0 l/m 3,2 km/h (1 Bft) O-NO 61 0 min 0,000 mm 0,0 UV-I 0 W/m 3,3 C 6,1 C 4,8 km/h (1 Bft) 100,00 %
03.04.2016 03:43 6,1 C 82 % 1014,4 hPa 0,0 l/m 2,7 km/h (1 Bft) O-NO 61 0 min 0,000 mm 0,0 UV-I 0 W/m 3,3 C 6,1 C 4,8 km/h (1 Bft) 100,00 %
03.04.2016 03:44 6,1 C 82 % 1014,3 hPa 0,0 l/m 3,8 km/h (1 Bft) O-NO 75 0 min 0,000 mm 0,0 UV-I 0 W/m 3,3 C 6,1 C 4,8 km/h (1 Bft) 95,65 %
03.04.2016 03:45 6,1 C 82 % 1014,3 hPa 0,0 l/m 5,5 km/h (1 Bft) O-NO 67 0 min 0,000 mm 0,0 UV-I 0 W/m 3,3 C 6,1 C 6,4 km/h (2 Bft) 100,00 %
03.04.2016 03:46 6,1 C 82 % 1014,4 hPa 0,0 l/m 5,4 km/h (1 Bft) O 88 0 min 0,000 mm 0,0 UV-I 0 W/m 3,3 C 6,1 C 6,4 km/h (2 Bft) 100,00 %
03.04.2016 03:47 6,1 C 82 % 1014,3 hPa 0,0 l/m 4,3 km/h (1 Bft) O 88 0 min 0,000 mm 0,0 UV-I 0 W/m 3,3 C 6,1 C 4,8 km/h (1 Bft) 100,00 %
03.04.2016 03:48 6,1 C 82 % 1014,3 hPa 0,0 l/m 4,6 km/h (1 Bft) O 96 0 min 0,000 mm 0,0 UV-I 0 W/m 3,3 C 6,1 C 6,4 km/h (2 Bft) 100,00 %
03.04.2016 03:49 6,1 C 82 % 1014,3 hPa 0,0 l/m 6,8 km/h (2 Bft) O-NO 62 0 min 0,000 mm 0,0 UV-I 0 W/m 3,3 C 5,8 C 11,3 km/h (2 Bft) 95,83 %
03.04.2016 03:50 6,1 C 82 % 1014,3 hPa 0,0 l/m 6,2 km/h (2 Bft) NO 53 0 min 0,000 mm 0,0 UV-I 0 W/m 3,3 C 6,1 C 8,0 km/h (2 Bft) 95,65 %
03.04.2016 03:51 6,2 C 82 % 1014,3 hPa 0,0 l/m 4,5 km/h (1 Bft) O-NO 69 0 min 0,000 mm 0,0 UV-I 0 W/m 3,4 C 6,2 C 4,8 km/h (1 Bft) 95,83 %
03.04.2016 03:52 6,2 C 82 % 1014,2 hPa 0,0 l/m 3,9 km/h (1 Bft) O-NO 59 0 min 0,000 mm 0,0 UV-I 0 W/m 3,4 C 6,2 C 6,4 km/h (2 Bft) 95,65 %
03.04.2016 03:53 6,2 C 82 % 1014,3 hPa 0,0 l/m 4,4 km/h (1 Bft) O-NO 61 0 min 0,000 mm 0,0 UV-I 0 W/m 3,4 C 6,2 C 8,0 km/h (2 Bft) 100,00 %
03.04.2016 03:54 6,3 C 82 % 1014,3 hPa 0,0 l/m 3,8 km/h (1 Bft) NO 40 0 min 0,000 mm 0,0 UV-I 0 W/m 3,5 C 6,3 C 6,4 km/h (2 Bft) 95,65 %
03.04.2016 03:55 6,3 C 81 % 1014,3 hPa 0,0 l/m 5,1 km/h (1 Bft) NO 48 0 min 0,000 mm 0,0 UV-I 0 W/m 3,3 C 6,3 C 6,4 km/h (2 Bft) 95,83 %
03.04.2016 03:56 6,2 C 81 % 1014,3 hPa 0,0 l/m 4,2 km/h (1 Bft) NO 51 0 min 0,000 mm 0,0 UV-I 0 W/m 3,2 C 6,2 C 6,4 km/h (2 Bft) 96,15 %
03.04.2016 03:57 6,2 C 81 % 1014,3 hPa 0,0 l/m 2,3 km/h (1 Bft) NO 51 0 min 0,000 mm 0,0 UV-I 0 W/m 3,2 C 6,2 C 3,2 km/h (1 Bft) 100,00 %
03.04.2016 03:58 6,1 C 81 % 1014,3 hPa 0,0 l/m 1,3 km/h (1 Bft) NO 51 0 min 0,000 mm 0,0 UV-I 0 W/m 3,1 C 6,1 C 3,2 km/h (1 Bft) 96,15 %
03.04.2016 03:59 6,1 C 82 % 1014,4 hPa 0,0 l/m 1,2 km/h (1 Bft) NO 51 0 min 0,000 mm 0,0 UV-I 0 W/m 3,3 C 6,1 C 3,2 km/h (1 Bft) 95,83 %
03.04.2016 04:00 6,1 C 82 % 1014,4 hPa 0,0 l/m 1,3 km/h (1 Bft) NO 51 0 min 0,000 mm 0,0 UV-I 0 W/m 3,3 C 6,1 C 3,2 km/h (1 Bft) 100,00 %
03.04.2016 04:03 6,1 C 82 % 1014,3 hPa 0,0 l/m 1,7 km/h (1 Bft) NO 51 0 min 0,000 mm 0,0 UV-I 0 W/m 3,3 C 6,1 C 3,2 km/h (1 Bft) 100,00 %
03.04.2016 04:04 6,1 C 82 % 1014,3 hPa 0,0 l/m 2,6 km/h (1 Bft) NO 51 0 min 0,000 mm 0,0 UV-I 0 W/m 3,3 C 6,1 C 4,8 km/h (1 Bft) 100,00 %
03.04.2016 04:05 6,0 C 82 % 1014,3 hPa 0,0 l/m 3,7 km/h (1 Bft) NO 51 0 min 0,000 mm 0,0 UV-I 0 W/m 3,2 C 6,0 C 4,8 km/h (1 Bft) 92,31 %
03.04.2016 04:06 6,0 C 82 % 1014,3 hPa 0,0 l/m 3,9 km/h (1 Bft) NO 51 0 min 0,000 mm 0,0 UV-I 0 W/m 3,2 C 6,0 C 4,8 km/h (1 Bft) 100,00 %
03.04.2016 04:07 6,0 C 82 % 1014,3 hPa 0,0 l/m 3,8 km/h (1 Bft) NO 51 0 min 0,000 mm 0,0 UV-I 0 W/m 3,2 C 6,0 C 4,8 km/h (1 Bft) 95,65 %
03.04.2016 04:08 6,0 C 82 % 1014,2 hPa 0,0 l/m 4,1 km/h (1 Bft) O-NO 58 0 min 0,000 mm 0,0 UV-I 0 W/m 3,2 C 6,0 C 6,4 km/h (2 Bft) 95,83 %
03.04.2016 04:09 6,0 C 82 % 1014,2 hPa 0,0 l/m 4,2 km/h (1 Bft) O-NO 57 0 min 0,000 mm 0,0 UV-I 0 W/m 3,2 C 6,0 C 6,4 km/h (2 Bft) 100,00 %
03.04.2016 04:10 6,0 C 82 % 1014,2 hPa 0,0 l/m 3,2 km/h (1 Bft) O-NO 62 0 min 0,000 mm 0,0 UV-I 0 W/m 3,2 C 6,0 C 6,4 km/h (2 Bft) 95,83 %
03.04.2016 04:11 6,0 C 82 % 1014,2 hPa 0,0 l/m 3,8 km/h (1 Bft) O-NO 60 0 min 0,000 mm 0,0 UV-I 0 W/m 3,2 C 6,0 C 4,8 km/h (1 Bft) 100,00 %
03.04.2016 04:12 6,0 C 82 % 1014,2 hPa 0,0 l/m 2,3 km/h (1 Bft) O-NO 60 0 min 0,000 mm 0,0 UV-I 0 W/m 3,2 C 6,0 C 3,2 km/h (1 Bft) 95,83 %
03.04.2016 04:13 6,0 C 82 % 1014,3 hPa 0,0 l/m 1,7 km/h (1 Bft) O-NO 60 0 min 0,000 mm 0,0 UV-I 0 W/m 3,2 C 6,0 C 4,8 km/h (1 Bft) 100,00 %
03.04.2016 04:14 6,0 C 82 % 1014,3 hPa 0,0 l/m 1,9 km/h (1 Bft) O-NO 60 0 min 0,000 mm 0,0 UV-I 0 W/m 3,2 C 6,0 C 3,2 km/h (1 Bft) 95,83 %
03.04.2016 04:15 6,0 C 82 % 1014,3 hPa 0,0 l/m 1,7 km/h (1 Bft) O-NO 60 0 min 0,000 mm 0,0 UV-I 0 W/m 3,2 C 6,0 C 3,2 km/h (1 Bft) 100,00 %
03.04.2016 04:16 6,0 C 82 % 1014,3 hPa 0,0 l/m 1,3 km/h (1 Bft) O-NO 60 0 min 0,000 mm 0,0 UV-I 0 W/m 3,2 C 6,0 C 1,6 km/h (1 Bft) 95,83 %
03.04.2016 04:17 6,0 C 82 % 1014,3 hPa 0,0 l/m 0,8 km/h (0 Bft) O-NO 60 0 min 0,000 mm 0,0 UV-I 0 W/m 3,2 C 6,0 C 1,6 km/h (1 Bft) 96,15 %
03.04.2016 04:18 6,0 C 82 % 1014,2 hPa 0,0 l/m 1,3 km/h (1 Bft) O-NO 60 0 min 0,000 mm 0,0 UV-I 0 W/m 3,2 C 6,0 C 3,2 km/h (1 Bft) 100,00 %
03.04.2016 04:19 5,9 C 82 % 1014,2 hPa 0,0 l/m 1,2 km/h (1 Bft) O-NO 60 0 min 0,000 mm 0,0 UV-I 0 W/m 3,1 C 5,9 C 3,2 km/h (1 Bft) 95,65 %
03.04.2016 04:20 5,9 C 82 % 1014,3 hPa 0,0 l/m 0,1 km/h (0 Bft) O-NO 60 0 min 0,000 mm 0,0 UV-I 0 W/m 3,1 C 5,9 C 1,6 km/h (1 Bft) 100,00 %
03.04.2016 04:21 5,8 C 82 % 1014,3 hPa 0,0 l/m 0,9 km/h (0 Bft) O-NO 60 0 min 0,000 mm 0,0 UV-I 0 W/m 3,0 C 5,8 C 1,6 km/h (1 Bft) 95,65 %
03.04.2016 04:22 5,8 C 82 % 1014,3 hPa 0,0 l/m 1,9 km/h (1 Bft) O-NO 60 0 min 0,000 mm 0,0 UV-I 0 W/m 3,0 C 5,8 C 3,2 km/h (1 Bft) 100,00 %
03.04.2016 04:23 5,7 C 83 % 1014,4 hPa 0,0 l/m 1,5 km/h (1 Bft) O-NO 60 0 min 0,000 mm 0,0 UV-I 0 W/m 3,0 C 5,7 C 1,6 km/h (1 Bft) 91,30 %
03.04.2016 04:24 5,6 C 82 % 1014,4 hPa 0,0 l/m 0,9 km/h (0 Bft) O-NO 60 0 min 0,000 mm 0,0 UV-I 0 W/m 2,8 C 5,6 C 1,6 km/h (1 Bft) 100,00 %
03.04.2016 04:25 5,6 C 83 % 1014,3 hPa 0,0 l/m 0,1 km/h (0 Bft) O-NO 60 0 min 0,000 mm 0,0 UV-I 0 W/m 2,9 C 5,6 C 1,6 km/h (1 Bft) 100,00 %
03.04.2016 04:26 5,5 C 83 % 1014,3 hPa 0,0 l/m 1,1 km/h (1 Bft) O-NO 60 0 min 0,000 mm 0,0 UV-I 0 W/m 2,8 C 5,5 C 1,6 km/h (1 Bft) 100,00 %
03.04.2016 04:27 5,4 C 83 % 1014,3 hPa 0,0 l/m 1,5 km/h (1 Bft) O-NO 60 0 min 0,000 mm 0,0 UV-I 0 W/m 2,7 C 5,4 C 1,6 km/h (1 Bft) 100,00 %
03.04.2016 04:28 5,4 C 84 % 1014,3 hPa 0,0 l/m 1,1 km/h (1 Bft) O-NO 60 0 min 0,000 mm 0,0 UV-I 0 W/m 2,9 C 5,4 C 1,6 km/h (1 Bft) 100,00 %
03.04.2016 04:29 5,4 C 84 % 1014,3 hPa 0,0 l/m 0,3 km/h (0 Bft) O-NO 60 0 min 0,000 mm 0,0 UV-I 0 W/m 2,9 C 5,4 C 1,6 km/h (1 Bft) 100,00 %
03.04.2016 04:30 5,4 C 84 % 1014,3 hPa 0,0 l/m 0,3 km/h (0 Bft) O-NO 60 0 min 0,000 mm 0,0 UV-I 0 W/m 2,9 C 5,4 C 1,6 km/h (1 Bft) 95,65 %
03.04.2016 04:31 5,4 C 84 % 1014,3 hPa 0,0 l/m 0,0 km/h (0 Bft) O-NO 60 0 min 0,000 mm 0,0 UV-I 0 W/m 2,9 C 5,4 C 0,0 km/h (0 Bft) 100,00 %
03.04.2016 04:32 5,4 C 84 % 1014,3 hPa 0,0 l/m 0,8 km/h (0 Bft) O-NO 60 0 min 0,000 mm 0,0 UV-I 0 W/m 2,9 C 5,4 C 1,6 km/h (1 Bft) 100,00 %
03.04.2016 04:33 5,4 C 84 % 1014,3 hPa 0,0 l/m 1,9 km/h (1 Bft) O-NO 60 0 min 0,000 mm 0,0 UV-I 0 W/m 2,9 C 5,4 C 3,2 km/h (1 Bft) 100,00 %
03.04.2016 04:34 5,4 C 84 % 1014,2 hPa 0,0 l/m 3,2 km/h (1 Bft) O-NO 60 0 min 0,000 mm 0,0 UV-I 0 W/m 2,9 C 5,4 C 4,8 km/h (1 Bft) 100,00 %
03.04.2016 04:35 5,4 C 84 % 1014,2 hPa 0,0 l/m 3,7 km/h (1 Bft) O-NO 60 0 min 0,000 mm 0,0 UV-I 0 W/m 2,9 C 5,4 C 4,8 km/h (1 Bft) 100,00 %
03.04.2016 04:36 5,4 C 84 % 1014,1 hPa 0,0 l/m 4,1 km/h (1 Bft) O-NO 60 0 min 0,000 mm 0,0 UV-I 0 W/m 2,9 C 5,4 C 4,8 km/h (1 Bft) 100,00 %
03.04.2016 04:37 5,4 C 84 % 1014,1 hPa 0,0 l/m 4,8 km/h (1 Bft) N-NO 33 0 min 0,000 mm 0,0 UV-I 0 W/m 2,9 C 5,4 C 6,4 km/h (2 Bft) 100,00 %
03.04.2016 04:38 5,4 C 84 % 1014,1 hPa 0,0 l/m 4,5 km/h (1 Bft) NO 48 0 min 0,000 mm 0,0 UV-I 0 W/m 2,9 C 5,4 C 4,8 km/h (1 Bft) 100,00 %
03.04.2016 04:39 5,5 C 84 % 1014,2 hPa 0,0 l/m 3,0 km/h (1 Bft) NO 43 0 min 0,000 mm 0,0 UV-I 0 W/m 3,0 C 5,5 C 4,8 km/h (1 Bft) 100,00 %
03.04.2016 04:40 5,5 C 84 % 1014,2 hPa 0,0 l/m 2,8 km/h (1 Bft) NO 43 0 min 0,000 mm 0,0 UV-I 0 W/m 3,0 C 5,5 C 4,8 km/h (1 Bft) 100,00 %
03.04.2016 04:41 5,5 C 84 % 1014,1 hPa 0,0 l/m 2,5 km/h (1 Bft) N-NO 29 0 min 0,000 mm 0,0 UV-I 0 W/m 3,0 C 5,5 C 4,8 km/h (1 Bft) 100,00 %
03.04.2016 04:42 5,4 C 84 % 1014,1 hPa 0,0 l/m 3,5 km/h (1 Bft) NO 38 0 min 0,000 mm 0,0 UV-I 0 W/m 2,9 C 5,4 C 6,4 km/h (2 Bft) 100,00 %
03.04.2016 04:43 5,4 C 84 % 1014,1 hPa 0,0 l/m 2,9 km/h (1 Bft) N-NO 21 0 min 0,000 mm 0,0 UV-I 0 W/m 2,9 C 5,4 C 4,8 km/h (1 Bft) 100,00 %
03.04.2016 04:44 5,4 C 84 % 1014,2 hPa 0,0 l/m 3,1 km/h (1 Bft) N-NO 20 0 min 0,000 mm 0,0 UV-I 0 W/m 2,9 C 5,4 C 3,2 km/h (1 Bft) 100,00 %
03.04.2016 04:45 5,4 C 84 % 1014,2 hPa 0,0 l/m 3,2 km/h (1 Bft) N-NO 21 0 min 0,000 mm 0,0 UV-I 0 W/m 2,9 C 5,4 C 4,8 km/h (1 Bft) 97,37 %
03.04.2016 04:46 5,3 C 84 % 1014,3 hPa 0,0 l/m 0,3 km/h (0 Bft) N-NO 20 0 min 0,000 mm 0,0 UV-I 0 W/m 2,8 C 5,3 C 3,2 km/h (1 Bft) 100,00 %
03.04.2016 04:47 5,3 C 84 % 1014,2 hPa 0,0 l/m 0,1 km/h (0 Bft) N-NO 20 0 min 0,000 mm 0,0 UV-I 0 W/m 2,8 C 5,3 C 1,6 km/h (1 Bft) 100,00 %
03.04.2016 04:48 5,3 C 84 % 1014,2 hPa 0,0 l/m 0,3 km/h (0 Bft) N-NO 21 0 min 0,000 mm 0,0 UV-I 0 W/m 2,8 C 5,3 C 1,6 km/h (1 Bft) 100,00 %
03.04.2016 04:49 5,3 C 84 % 1014,2 hPa 0,0 l/m 0,0 km/h (0 Bft) N-NO 21 0 min 0,000 mm 0,0 UV-I 0 W/m 2,8 C 5,3 C 0,0 km/h (0 Bft) 95,65 %
03.04.2016 04:50 5,2 C 84 % 1014,2 hPa 0,0 l/m 0,0 km/h (0 Bft) N-NO 21 0 min 0,000 mm 0,0 UV-I 0 W/m 2,7 C 5,2 C 0,0 km/h (0 Bft) 100,00 %
03.04.2016 04:51 5,1 C 84 % 1014,2 hPa 0,0 l/m 1,1 km/h (1 Bft) N-NO 21 0 min 0,000 mm 0,0 UV-I 0 W/m 2,6 C 5,1 C 1,6 km/h (1 Bft) 100,00 %
03.04.2016 04:52 5,0 C 85 % 1014,2 hPa 0,0 l/m 1,7 km/h (1 Bft) N-NO 21 0 min 0,000 mm 0,0 UV-I 0 W/m 2,7 C 5,0 C 3,2 km/h (1 Bft) 100,00 %
03.04.2016 04:53 4,9 C 85 % 1014,2 hPa 0,0 l/m 1,9 km/h (1 Bft) N-NO 21 0 min 0,000 mm 0,0 UV-I 0 W/m 2,6 C 4,9 C 3,2 km/h (1 Bft) 100,00 %
03.04.2016 04:54 4,8 C 85 % 1014,2 hPa 0,0 l/m 2,9 km/h (1 Bft) NO 40 0 min 0,000 mm 0,0 UV-I 0 W/m 2,5 C 4,8 C 3,2 km/h (1 Bft) 100,00 %
03.04.2016 04:55 4,8 C 85 % 1014,2 hPa 0,0 l/m 3,4 km/h (1 Bft) O-NO 78 0 min 0,000 mm 0,0 UV-I 0 W/m 2,5 C 4,8 C 4,8 km/h (1 Bft) 95,65 %
03.04.2016 04:56 4,7 C 85 % 1014,2 hPa 0,0 l/m 3,6 km/h (1 Bft) O 94 0 min 0,000 mm 0,0 UV-I 0 W/m 2,4 C 4,7 C 4,8 km/h (1 Bft) 95,83 %
03.04.2016 04:57 4,7 C 86 % 1014,2 hPa 0,0 l/m 1,9 km/h (1 Bft) O 94 0 min 0,000 mm 0,0 UV-I 0 W/m 2,6 C 4,7 C 4,8 km/h (1 Bft) 100,00 %
03.04.2016 04:58 4,6 C 86 % 1014,2 hPa 0,0 l/m 3,2 km/h (1 Bft) O 93 0 min 0,000 mm 0,0 UV-I 0 W/m 2,5 C 4,6 C 4,8 km/h (1 Bft) 100,00 %
03.04.2016 04:59 4,5 C 87 % 1014,1 hPa 0,0 l/m 4,6 km/h (1 Bft) O-NO 78 0 min 0,000 mm 0,0 UV-I 0 W/m 2,5 C 4,5 C 4,8 km/h (1 Bft) 95,83 %
03.04.2016 05:00 4,5 C 87 % 1014,1 hPa 0,0 l/m 3,3 km/h (1 Bft) O-NO 78 0 min 0,000 mm 0,0 UV-I 0 W/m 2,5 C 4,5 C 4,8 km/h (1 Bft) 100,00 %
03.04.2016 05:01 4,5 C 87 % 1014,1 hPa 0,0 l/m 3,5 km/h (1 Bft) O-NO 78 0 min 0,000 mm 0,0 UV-I 0 W/m 2,5 C 4,5 C 4,8 km/h (1 Bft) 100,00 %
03.04.2016 05:02 4,6 C 87 % 1014,1 hPa 0,0 l/m 2,7 km/h (1 Bft) O-NO 78 0 min 0,000 mm 0,0 UV-I 0 W/m 2,6 C 4,6 C 3,2 km/h (1 Bft) 100,00 %
03.04.2016 05:03 4,7 C 87 % 1014,2 hPa 0,0 l/m 0,6 km/h (0 Bft) O-NO 78 0 min 0,000 mm 0,0 UV-I 0 W/m 2,7 C 4,7 C 1,6 km/h (1 Bft) 100,00 %
03.04.2016 05:04 4,7 C 87 % 1014,2 hPa 0,0 l/m 2,6 km/h (1 Bft) O-NO 78 0 min 0,000 mm 0,0 UV-I 0 W/m 2,7 C 4,7 C 4,8 km/h (1 Bft) 96,30 %
03.04.2016 05:05 4,8 C 87 % 1014,2 hPa 0,0 l/m 2,4 km/h (1 Bft) O-NO 78 0 min 0,000 mm 0,0 UV-I 0 W/m 2,8 C 4,8 C 3,2 km/h (1 Bft) 100,00 %
03.04.2016 05:06 4,8 C 87 % 1014,2 hPa 0,0 l/m 2,0 km/h (1 Bft) O-NO 78 0 min 0,000 mm 0,0 UV-I 0 W/m 2,8 C 4,8 C 3,2 km/h (1 Bft) 100,00 %
03.04.2016 05:07 4,9 C 87 % 1014,2 hPa 0,0 l/m 1,6 km/h (1 Bft) O-NO 78 0 min 0,000 mm 0,0 UV-I 0 W/m 2,9 C 4,9 C 3,2 km/h (1 Bft) 100,00 %
03.04.2016 05:08 4,9 C 86 % 1014,2 hPa 0,0 l/m 0,2 km/h (0 Bft) O-NO 78 0 min 0,000 mm 0,0 UV-I 0 W/m 2,8 C 4,9 C 1,6 km/h (1 Bft) 100,00 %
03.04.2016 05:09 4,8 C 86 % 1014,2 hPa 0,0 l/m 0,0 km/h (0 Bft) O-NO 78 0 min 0,000 mm 0,0 UV-I 0 W/m 2,7 C 4,8 C 0,0 km/h (0 Bft) 100,00 %
03.04.2016 05:10 4,8 C 86 % 1014,2 hPa 0,0 l/m 0,1 km/h (0 Bft) O-NO 78 0 min 0,000 mm 0,0 UV-I 0 W/m 2,7 C 4,8 C 1,6 km/h (1 Bft) 100,00 %
03.04.2016 05:11 4,8 C 86 % 1014,2 hPa 0,0 l/m 0,8 km/h (0 Bft) O-NO 78 0 min 0,000 mm 0,0 UV-I 0 W/m 2,7 C 4,8 C 1,6 km/h (1 Bft) 100,00 %
03.04.2016 05:12 4,7 C 86 % 1014,1 hPa 0,0 l/m 1,8 km/h (1 Bft) O-NO 78 0 min 0,000 mm 0,0 UV-I 0 W/m 2,6 C 4,7 C 3,2 km/h (1 Bft) 100,00 %
03.04.2016 05:13 4,6 C 86 % 1014,1 hPa 0,0 l/m 1,4 km/h (1 Bft) O-NO 78 0 min 0,000 mm 0,0 UV-I 0 W/m 2,5 C 4,6 C 1,6 km/h (1 Bft) 100,00 %
03.04.2016 05:14 4,6 C 86 % 1014,2 hPa 0,0 l/m 0,9 km/h (0 Bft) O-NO 78 0 min 0,000 mm 0,0 UV-I 0 W/m 2,5 C 4,6 C 1,6 km/h (1 Bft) 100,00 %
03.04.2016 05:15 4,5 C 86 % 1014,2 hPa 0,0 l/m 0,0 km/h (0 Bft) O-NO 78 0 min 0,000 mm 0,0 UV-I 0 W/m 2,4 C 4,5 C 0,0 km/h (0 Bft) 100,00 %
03.04.2016 05:16 4,4 C 87 % 1014,2 hPa 0,0 l/m 1,9 km/h (1 Bft) NW 309 0 min 0,000 mm 0,0 UV-I 0 W/m 2,4 C 4,4 C 3,2 km/h (1 Bft) 95,65 %
03.04.2016 05:17 4,4 C 87 % 1014,3 hPa 0,0 l/m 5,4 km/h (1 Bft) W 277 0 min 0,000 mm 0,0 UV-I 0 W/m 2,4 C 4,4 C 6,4 km/h (2 Bft) 100,00 %
03.04.2016 05:18 4,3 C 87 % 1014,3 hPa 0,0 l/m 6,1 km/h (2 Bft) W-SW 258 0 min 0,000 mm 0,0 UV-I 0 W/m 2,3 C 4,3 C 6,4 km/h (2 Bft) 100,00 %
03.04.2016 05:19 4,3 C 88 % 1014,4 hPa 0,0 l/m 5,2 km/h (1 Bft) W-SW 258 0 min 0,000 mm 0,0 UV-I 0 W/m 2,5 C 4,3 C 6,4 km/h (2 Bft) 100,00 %
03.04.2016 05:20 4,3 C 87 % 1014,4 hPa 0,0 l/m 3,4 km/h (1 Bft) W-SW 258 0 min 0,000 mm 0,0 UV-I 0 W/m 2,3 C 4,3 C 4,8 km/h (1 Bft) 95,65 %
03.04.2016 05:21 4,2 C 88 % 1014,4 hPa 0,0 l/m 2,3 km/h (1 Bft) W-SW 258 0 min 0,000 mm 0,0 UV-I 0 W/m 2,4 C 4,2 C 4,8 km/h (1 Bft) 95,83 %
03.04.2016 05:22 4,2 C 88 % 1014,4 hPa 0,0 l/m 0,9 km/h (0 Bft) W-SW 258 0 min 0,000 mm 0,0 UV-I 0 W/m 2,4 C 4,2 C 3,2 km/h (1 Bft) 100,00 %
03.04.2016 05:23 4,2 C 88 % 1014,4 hPa 0,0 l/m 0,1 km/h (0 Bft) W-SW 258 0 min 0,000 mm 0,0 UV-I 0 W/m 2,4 C 4,2 C 1,6 km/h (1 Bft) 100,00 %
03.04.2016 05:24 4,1 C 88 % 1014,3 hPa 0,0 l/m 0,0 km/h (0 Bft) W-SW 258 0 min 0,000 mm 0,0 UV-I 0 W/m 2,3 C 4,1 C 0,0 km/h (0 Bft) 95,83 %
03.04.2016 05:25 4,0 C 87 % 1014,3 hPa 0,0 l/m 0,1 km/h (0 Bft) W-SW 258 0 min 0,000 mm 0,0 UV-I 0 W/m 2,0 C 4,0 C 1,6 km/h (1 Bft) 100,00 %
03.04.2016 05:26 3,8 C 87 % 1014,3 hPa 0,0 l/m 0,2 km/h (0 Bft) W-SW 258 0 min 0,000 mm 0,0 UV-I 0 W/m 1,8 C 3,8 C 1,6 km/h (1 Bft) 95,83 %
03.04.2016 05:27 3,8 C 88 % 1014,4 hPa 0,0 l/m 0,0 km/h (0 Bft) W-SW 258 0 min 0,000 mm 0,0 UV-I 0 W/m 2,0 C 3,8 C 0,0 km/h (0 Bft) 92,31 %
03.04.2016 05:28 3,7 C 88 % 1014,4 hPa 0,0 l/m 0,0 km/h (0 Bft) W-SW 258 0 min 0,000 mm 0,0 UV-I 0 W/m 1,9 C 3,7 C 0,0 km/h (0 Bft) 100,00 %
03.04.2016 05:29 3,7 C 89 % 1014,3 hPa 0,0 l/m 0,4 km/h (0 Bft) W-SW 258 0 min 0,000 mm 0,0 UV-I 0 W/m 2,1 C 3,7 C 3,2 km/h (1 Bft) 100,00 %
03.04.2016 05:30 3,7 C 89 % 1014,3 hPa 0,0 l/m 2,5 km/h (1 Bft) W-SW 258 0 min 0,000 mm 0,0 UV-I 0 W/m 2,1 C 3,7 C 3,2 km/h (1 Bft) 95,83 %
03.04.2016 05:31 3,7 C 89 % 1014,3 hPa 0,0 l/m 1,6 km/h (1 Bft) W-SW 258 0 min 0,000 mm 0,0 UV-I 0 W/m 2,1 C 3,7 C 3,2 km/h (1 Bft) 100,00 %
03.04.2016 05:32 3,7 C 90 % 1014,3 hPa 0,0 l/m 1,4 km/h (1 Bft) W-SW 258 0 min 0,000 mm 0,0 UV-I 0 W/m 2,2 C 3,7 C 1,6 km/h (1 Bft) 100,00 %
03.04.2016 05:33 3,7 C 90 % 1014,4 hPa 0,0 l/m 0,1 km/h (0 Bft) W-SW 258 0 min 0,000 mm 0,0 UV-I 0 W/m 2,2 C 3,7 C 1,6 km/h (1 Bft) 100,00 %
03.04.2016 05:34 3,8 C 90 % 1014,3 hPa 0,0 l/m 0,3 km/h (0 Bft) W-SW 258 0 min 0,000 mm 0,0 UV-I 0 W/m 2,3 C 3,8 C 1,6 km/h (1 Bft) 100,00 %
03.04.2016 05:35 3,9 C 90 % 1014,3 hPa 0,0 l/m 0,2 km/h (0 Bft) W-SW 258 0 min 0,000 mm 0,0 UV-I 0 W/m 2,4 C 3,9 C 1,6 km/h (1 Bft) 97,14 %
03.04.2016 05:36 4,0 C 90 % 1014,3 hPa 0,0 l/m 2,0 km/h (1 Bft) N-NO 32 0 min 0,000 mm 0,0 UV-I 0 W/m 2,5 C 4,0 C 3,2 km/h (1 Bft) 100,00 %
03.04.2016 05:37 4,1 C 90 % 1014,2 hPa 0,0 l/m 4,0 km/h (1 Bft) N-NO 33 0 min 0,000 mm 0,0 UV-I 0 W/m 2,6 C 4,1 C 4,8 km/h (1 Bft) 91,30 %
03.04.2016 05:38 4,2 C 90 % 1014,2 hPa 0,0 l/m 4,9 km/h (1 Bft) NO 36 0 min 0,000 mm 0,0 UV-I 0 W/m 2,7 C 4,2 C 6,4 km/h (2 Bft) 97,22 %
03.04.2016 05:39 4,4 C 90 % 1014,1 hPa 0,0 l/m 5,3 km/h (1 Bft) NO 36 0 min 0,000 mm 0,0 UV-I 0 W/m 2,9 C 4,4 C 6,4 km/h (2 Bft) 100,00 %
03.04.2016 05:40 4,6 C 89 % 1014,1 hPa 0,0 l/m 5,0 km/h (1 Bft) NO 38 0 min 0,000 mm 0,0 UV-I 0 W/m 2,9 C 4,6 C 6,4 km/h (2 Bft) 100,00 %
03.04.2016 05:41 4,7 C 89 % 1014,1 hPa 0,0 l/m 3,4 km/h (1 Bft) NO 38 0 min 0,000 mm 0,0 UV-I 0 W/m 3,0 C 4,7 C 4,8 km/h (1 Bft) 100,00 %
03.04.2016 05:42 4,8 C 88 % 1014,1 hPa 0,0 l/m 2,1 km/h (1 Bft) NO 37 0 min 0,000 mm 0,0 UV-I 0 W/m 3,0 C 4,8 C 3,2 km/h (1 Bft) 100,00 %
03.04.2016 05:43 4,9 C 88 % 1014,1 hPa 0,0 l/m 1,9 km/h (1 Bft) NO 37 0 min 0,000 mm 0,0 UV-I 0 W/m 3,1 C 4,9 C 3,2 km/h (1 Bft) 100,00 %
03.04.2016 05:44 5,0 C 87 % 1014,2 hPa 0,0 l/m 0,9 km/h (0 Bft) NO 37 0 min 0,000 mm 0,0 UV-I 0 W/m 3,0 C 5,0 C 3,2 km/h (1 Bft) 100,00 %
03.04.2016 05:45 5,0 C 87 % 1014,2 hPa 0,0 l/m 0,0 km/h (0 Bft) NO 37 0 min 0,000 mm 0,0 UV-I 0 W/m 3,0 C 5,0 C 0,0 km/h (0 Bft) 100,00 %
03.04.2016 05:46 5,1 C 86 % 1014,2 hPa 0,0 l/m 0,2 km/h (0 Bft) NO 38 0 min 0,000 mm 0,0 UV-I 0 W/m 3,0 C 5,1 C 1,6 km/h (1 Bft) 100,00 %
03.04.2016 05:47 5,1 C 86 % 1014,2 hPa 0,0 l/m 1,1 km/h (1 Bft) NO 37 0 min 0,000 mm 0,0 UV-I 0 W/m 3,0 C 5,1 C 3,2 km/h (1 Bft) 100,00 %
03.04.2016 05:48 5,0 C 86 % 1014,2 hPa 0,0 l/m 1,3 km/h (1 Bft) NO 37 0 min 0,000 mm 0,0 UV-I 0 W/m 2,9 C 5,0 C 1,6 km/h (1 Bft) 95,65 %
03.04.2016 05:49 4,9 C 86 % 1014,2 hPa 0,0 l/m 0,7 km/h (0 Bft) NO 37 0 min 0,000 mm 0,0 UV-I 0 W/m 2,8 C 4,9 C 1,6 km/h (1 Bft) 100,00 %
03.04.2016 05:50 4,8 C 86 % 1014,2 hPa 0,0 l/m 0,0 km/h (0 Bft) NO 37 0 min 0,000 mm 0,0 UV-I 0 W/m 2,7 C 4,8 C 0,0 km/h (0 Bft) 100,00 %
03.04.2016 05:51 4,7 C 86 % 1014,2 hPa 0,0 l/m 0,0 km/h (0 Bft) NO 37 0 min 0,000 mm 0,0 UV-I 0 W/m 2,6 C 4,7 C 0,0 km/h (0 Bft) 95,83 %
03.04.2016 05:52 4,5 C 86 % 1014,2 hPa 0,0 l/m 0,0 km/h (0 Bft) NO 37 0 min 0,000 mm 0,0 UV-I 0 W/m 2,4 C 4,5 C 0,0 km/h (0 Bft) 100,00 %
03.04.2016 05:53 4,4 C 87 % 1014,2 hPa 0,0 l/m 0,8 km/h (0 Bft) NO 38 0 min 0,000 mm 0,0 UV-I 0 W/m 2,4 C 4,4 C 1,6 km/h (1 Bft) 100,00 %
03.04.2016 05:54 4,3 C 87 % 1014,2 hPa 0,0 l/m 2,2 km/h (1 Bft) NO 37 0 min 0,000 mm 0,0 UV-I 0 W/m 2,3 C 4,3 C 3,2 km/h (1 Bft) 100,00 %
03.04.2016 05:55 4,3 C 87 % 1014,2 hPa 0,0 l/m 1,5 km/h (1 Bft) NO 37 0 min 0,000 mm 0,0 UV-I 0 W/m 2,3 C 4,3 C 1,6 km/h (1 Bft) 100,00 %
03.04.2016 05:56 4,3 C 88 % 1014,2 hPa 0,0 l/m 0,6 km/h (0 Bft) NO 37 0 min 0,000 mm 0,0 UV-I 0 W/m 2,5 C 4,3 C 1,6 km/h (1 Bft) 100,00 %
03.04.2016 05:57 4,3 C 88 % 1014,2 hPa 0,0 l/m 0,0 km/h (0 Bft) NO 37 0 min 0,000 mm 0,0 UV-I 0 W/m 2,5 C 4,3 C 0,0 km/h (0 Bft) 100,00 %
03.04.2016 05:58 4,3 C 88 % 1014,2 hPa 0,0 l/m 0,0 km/h (0 Bft) NO 37 0 min 0,000 mm 0,0 UV-I 0 W/m 2,5 C 4,3 C 0,0 km/h (0 Bft) 95,65 %
03.04.2016 05:59 4,2 C 87 % 1014,2 hPa 0,0 l/m 0,2 km/h (0 Bft) NO 37 0 min 0,000 mm 0,0 UV-I 0 W/m 2,2 C 4,2 C 1,6 km/h (1 Bft) 100,00 %
03.04.2016 06:00 4,1 C 87 % 1014,2 hPa 0,0 l/m 1,0 km/h (0 Bft) NO 37 0 min 0,000 mm 0,0 UV-I 0 W/m 2,1 C 4,1 C 1,6 km/h (1 Bft) 100,00 %
03.04.2016 06:01 4,0 C 88 % 1014,3 hPa 0,0 l/m 0,1 km/h (0 Bft) NO 37 0 min 0,000 mm 0,0 UV-I 0 W/m 2,2 C 4,0 C 1,6 km/h (1 Bft) 95,83 %
03.04.2016 06:02 3,9 C 88 % 1014,3 hPa 0,0 l/m 0,0 km/h (0 Bft) NO 37 0 min 0,000 mm 0,0 UV-I 0 W/m 2,1 C 3,9 C 0,0 km/h (0 Bft) 95,65 %
03.04.2016 06:03 3,8 C 88 % 1014,3 hPa 0,0 l/m 0,3 km/h (0 Bft) NO 37 0 min 0,000 mm 0,0 UV-I 0 W/m 2,0 C 3,8 C 1,6 km/h (1 Bft) 95,83 %
03.04.2016 06:04 3,8 C 89 % 1014,3 hPa 0,0 l/m 2,4 km/h (1 Bft) NO 37 0 min 0,000 mm 0,0 UV-I 0 W/m 2,2 C 3,8 C 3,2 km/h (1 Bft) 95,83 %
03.04.2016 06:05 3,8 C 89 % 1014,3 hPa 0,0 l/m 2,6 km/h (1 Bft) NO 38 0 min 0,000 mm 0,0 UV-I 0 W/m 2,2 C 3,8 C 3,2 km/h (1 Bft) 96,15 %
03.04.2016 06:06 3,7 C 89 % 1014,3 hPa 0,0 l/m 1,3 km/h (1 Bft) NO 38 0 min 0,000 mm 0,0 UV-I 0 W/m 2,1 C 3,7 C 3,2 km/h (1 Bft) 100,00 %
03.04.2016 06:07 3,7 C 89 % 1014,3 hPa 0,0 l/m 0,3 km/h (0 Bft) NO 38 0 min 0,000 mm 0,0 UV-I 0 W/m 2,1 C 3,7 C 1,6 km/h (1 Bft) 95,65 %
03.04.2016 06:08 3,6 C 89 % 1014,2 hPa 0,0 l/m 0,2 km/h (0 Bft) NO 38 0 min 0,000 mm 0,0 UV-I 0 W/m 2,0 C 3,6 C 1,6 km/h (1 Bft) 95,83 %
03.04.2016 06:09 3,6 C 89 % 1014,2 hPa 0,0 l/m 1,1 km/h (1 Bft) NO 38 0 min 0,000 mm 0,0 UV-I 0 W/m 2,0 C 3,6 C 1,6 km/h (1 Bft) 100,00 %
03.04.2016 06:10 3,4 C 89 % 1014,2 hPa 0,0 l/m 2,2 km/h (1 Bft) NO 38 0 min 0,000 mm 0,0 UV-I 0 W/m 1,8 C 3,4 C 3,2 km/h (1 Bft) 95,83 %
03.04.2016 06:11 3,3 C 89 % 1014,2 hPa 0,0 l/m 1,7 km/h (1 Bft) NO 38 0 min 0,000 mm 0,0 UV-I 0 W/m 1,7 C 3,3 C 3,2 km/h (1 Bft) 100,00 %
03.04.2016 06:12 3,3 C 89 % 1014,2 hPa 0,0 l/m 1,3 km/h (1 Bft) NO 38 0 min 0,000 mm 0,0 UV-I 0 W/m 1,7 C 3,3 C 1,6 km/h (1 Bft) 95,83 %
03.04.2016 06:13 3,2 C 90 % 1014,3 hPa 0,0 l/m 0,3 km/h (0 Bft) NO 38 0 min 0,000 mm 0,0 UV-I 0 W/m 1,7 C 3,2 C 1,6 km/h (1 Bft) 100,00 %
03.04.2016 06:14 3,2 C 90 % 1014,2 hPa 0,0 l/m 0,0 km/h (0 Bft) NO 38 0 min 0,000 mm 0,0 UV-I 0 W/m 1,7 C 3,2 C 0,0 km/h (0 Bft) 95,83 %
03.04.2016 06:15 3,2 C 90 % 1014,3 hPa 0,0 l/m 0,0 km/h (0 Bft) NO 38 0 min 0,000 mm 0,0 UV-I 0 W/m 1,7 C 3,2 C 0,0 km/h (0 Bft) 95,65 %
03.04.2016 06:16 3,2 C 90 % 1014,3 hPa 0,0 l/m 1,2 km/h (1 Bft) NO 38 0 min 0,000 mm 0,0 UV-I 0 W/m 1,7 C 3,2 C 1,6 km/h (1 Bft) 95,83 %
03.04.2016 06:17 3,2 C 91 % 1014,2 hPa 0,0 l/m 0,2 km/h (0 Bft) NO 38 0 min 0,000 mm 0,0 UV-I 0 W/m 1,9 C 3,2 C 1,6 km/h (1 Bft) 100,00 %
03.04.2016 06:18 3,3 C 91 % 1014,1 hPa 0,0 l/m 0,0 km/h (0 Bft) NO 38 0 min 0,000 mm 0,0 UV-I 0 W/m 2,0 C 3,3 C 0,0 km/h (0 Bft) 95,83 %
03.04.2016 06:19 3,3 C 91 % 1014,1 hPa 0,0 l/m 0,0 km/h (0 Bft) NO 38 0 min 0,000 mm 0,0 UV-I 0 W/m 2,0 C 3,3 C 0,0 km/h (0 Bft) 95,83 %
03.04.2016 06:20 3,3 C 91 % 1014,1 hPa 0,0 l/m 0,0 km/h (0 Bft) NO 38 0 min 0,000 mm 0,0 UV-I 0 W/m 2,0 C 3,3 C 0,0 km/h (0 Bft) 100,00 %
03.04.2016 06:21 3,3 C 91 % 1014,2 hPa 0,0 l/m 0,0 km/h (0 Bft) NO 38 0 min 0,000 mm 0,0 UV-I 0 W/m 2,0 C 3,3 C 0,0 km/h (0 Bft) 95,83 %
03.04.2016 06:22 3,3 C 91 % 1014,2 hPa 0,0 l/m 1,1 km/h (1 Bft) NW 326 0 min 0,000 mm 0,0 UV-I 0 W/m 2,0 C 3,3 C 3,2 km/h (1 Bft) 100,00 %
03.04.2016 06:23 3,3 C 90 % 1014,2 hPa 0,0 l/m 3,0 km/h (1 Bft) NW 325 0 min 0,000 mm 0,0 UV-I 0 W/m 1,8 C 3,3 C 4,8 km/h (1 Bft) 95,83 %
03.04.2016 06:24 3,4 C 91 % 1014,2 hPa 0,0 l/m 1,6 km/h (1 Bft) NW 325 0 min 0,000 mm 0,0 UV-I 0 W/m 2,1 C 3,4 C 3,2 km/h (1 Bft) 91,30 %
03.04.2016 06:25 3,4 C 91 % 1014,2 hPa 0,0 l/m 0,9 km/h (0 Bft) NW 325 0 min 0,000 mm 0,0 UV-I 0 W/m 2,1 C 3,4 C 1,6 km/h (1 Bft) 95,83 %
03.04.2016 06:26 3,4 C 91 % 1014,2 hPa 0,0 l/m 0,3 km/h (0 Bft) NW 325 0 min 0,000 mm 0,0 UV-I 0 W/m 2,1 C 3,4 C 1,6 km/h (1 Bft) 100,00 %
03.04.2016 06:27 3,4 C 91 % 1014,2 hPa 0,0 l/m 0,0 km/h (0 Bft) NW 325 0 min 0,000 mm 0,0 UV-I 0 W/m 2,1 C 3,4 C 0,0 km/h (0 Bft) 96,30 %
03.04.2016 06:28 3,4 C 91 % 1014,2 hPa 0,0 l/m 0,0 km/h (0 Bft) NW 325 0 min 0,000 mm 0,0 UV-I 0 W/m 2,1 C 3,4 C 0,0 km/h (0 Bft) 91,30 %
03.04.2016 06:29 3,4 C 91 % 1014,2 hPa 0,0 l/m 0,0 km/h (0 Bft) NW 325 0 min 0,000 mm 0,0 UV-I 0 W/m 2,1 C 3,4 C 0,0 km/h (0 Bft) 100,00 %
03.04.2016 06:30 3,3 C 90 % 1014,2 hPa 0,0 l/m 0,0 km/h (0 Bft) NW 325 0 min 0,000 mm 0,0 UV-I 0 W/m 1,8 C 3,3 C 0,0 km/h (0 Bft) 95,65 %
03.04.2016 06:31 3,3 C 90 % 1014,2 hPa 0,0 l/m 0,0 km/h (0 Bft) NW 325 0 min 0,000 mm 0,0 UV-I 0 W/m 1,8 C 3,3 C 0,0 km/h (0 Bft) 95,83 %
03.04.2016 06:32 3,3 C 90 % 1014,2 hPa 0,0 l/m 0,0 km/h (0 Bft) NW 325 0 min 0,000 mm 0,0 UV-I 0 W/m 1,8 C 3,3 C 0,0 km/h (0 Bft) 95,65 %
03.04.2016 06:33 3,2 C 90 % 1014,3 hPa 0,0 l/m 0,0 km/h (0 Bft) NW 325 0 min 0,000 mm 0,0 UV-I 0 W/m 1,7 C 3,2 C 0,0 km/h (0 Bft) 100,00 %
03.04.2016 06:34 3,2 C 90 % 1014,3 hPa 0,0 l/m 0,9 km/h (0 Bft) NW 325 0 min 0,000 mm 0,0 UV-I 0 W/m 1,7 C 3,2 C 1,6 km/h (1 Bft) 95,65 %
03.04.2016 06:35 3,2 C 91 % 1014,2 hPa 0,0 l/m 0,0 km/h (0 Bft) NW 325 0 min 0,000 mm 0,0 UV-I 0 W/m 1,9 C 3,2 C 0,0 km/h (0 Bft) 95,83 %
03.04.2016 06:36 3,2 C 91 % 1014,2 hPa 0,0 l/m 0,0 km/h (0 Bft) NW 325 0 min 0,000 mm 0,0 UV-I 0 W/m 1,9 C 3,2 C 0,0 km/h (0 Bft) 100,00 %
03.04.2016 06:37 3,3 C 91 % 1014,1 hPa 0,0 l/m 0,0 km/h (0 Bft) NW 325 0 min 0,000 mm 0,0 UV-I 2 W/m 2,0 C 3,3 C 0,0 km/h (0 Bft) 95,83 %
03.04.2016 06:38 3,3 C 91 % 1014,1 hPa 0,0 l/m 0,0 km/h (0 Bft) NW 325 0 min 0,000 mm 0,0 UV-I 5 W/m 2,0 C 3,3 C 0,0 km/h (0 Bft) 100,00 %
03.04.2016 06:39 3,3 C 91 % 1014,2 hPa 0,0 l/m 0,0 km/h (0 Bft) NW 325 0 min 0,000 mm 0,0 UV-I 5 W/m 2,0 C 3,3 C 0,0 km/h (0 Bft) 100,00 %
03.04.2016 06:40 3,3 C 91 % 1014,2 hPa 0,0 l/m 0,0 km/h (0 Bft) NW 325 0 min 0,000 mm 0,0 UV-I 5 W/m 2,0 C 3,3 C 0,0 km/h (0 Bft) 100,00 %
03.04.2016 06:41 3,3 C 91 % 1014,2 hPa 0,0 l/m 0,0 km/h (0 Bft) NW 325 0 min 0,000 mm 0,0 UV-I 7 W/m 2,0 C 3,3 C 0,0 km/h (0 Bft) 100,00 %
03.04.2016 06:42 3,3 C 91 % 1014,2 hPa 0,0 l/m 0,0 km/h (0 Bft) NW 325 0 min 0,000 mm 0,0 UV-I 7 W/m 2,0 C 3,3 C 0,0 km/h (0 Bft) 95,65 %
03.04.2016 06:43 3,3 C 91 % 1014,3 hPa 0,0 l/m 0,2 km/h (0 Bft) NW 325 0 min 0,000 mm 0,0 UV-I 8 W/m 2,0 C 3,3 C 1,6 km/h (1 Bft) 100,00 %
03.04.2016 06:44 3,3 C 91 % 1014,3 hPa 0,0 l/m 1,3 km/h (1 Bft) NW 325 0 min 0,000 mm 0,0 UV-I 9 W/m 2,0 C 3,3 C 1,6 km/h (1 Bft) 95,65 %
03.04.2016 06:45 3,3 C 91 % 1014,3 hPa 0,0 l/m 0,0 km/h (0 Bft) NW 325 0 min 0,000 mm 0,0 UV-I 10 W/m 2,0 C 3,3 C 0,0 km/h (0 Bft) 100,00 %
03.04.2016 06:46 3,3 C 91 % 1014,2 hPa 0,0 l/m 0,0 km/h (0 Bft) NW 325 0 min 0,000 mm 0,0 UV-I 11 W/m 2,0 C 3,3 C 0,0 km/h (0 Bft) 100,00 %
03.04.2016 06:47 3,3 C 91 % 1014,2 hPa 0,0 l/m 0,0 km/h (0 Bft) NW 325 0 min 0,000 mm 0,0 UV-I 11 W/m 2,0 C 3,3 C 0,0 km/h (0 Bft) 100,00 %
03.04.2016 06:48 3,3 C 91 % 1014,3 hPa 0,0 l/m 0,0 km/h (0 Bft) NW 325 1 min 0,000 mm 0,0 UV-I 12 W/m 2,0 C 3,3 C 0,0 km/h (0 Bft) 100,00 %
03.04.2016 06:49 3,2 C 91 % 1014,3 hPa 0,0 l/m 0,6 km/h (0 Bft) NW 325 1 min 0,000 mm 0,0 UV-I 13 W/m 1,9 C 3,2 C 3,2 km/h (1 Bft) 100,00 %
03.04.2016 06:50 3,2 C 91 % 1014,3 hPa 0,0 l/m 2,3 km/h (1 Bft) NW 325 1 min 0,000 mm 0,0 UV-I 14 W/m 1,9 C 3,2 C 3,2 km/h (1 Bft) 100,00 %
03.04.2016 06:51 3,2 C 91 % 1014,3 hPa 0,0 l/m 1,9 km/h (1 Bft) NW 325 1 min 0,000 mm 0,0 UV-I 16 W/m 1,9 C 3,2 C 3,2 km/h (1 Bft) 95,65 %
03.04.2016 06:52 3,2 C 91 % 1014,3 hPa 0,0 l/m 1,2 km/h (1 Bft) NW 325 1 min 0,000 mm 0,0 UV-I 16 W/m 1,9 C 3,2 C 1,6 km/h (1 Bft) 100,00 %
03.04.2016 06:53 3,2 C 91 % 1014,3 hPa 0,0 l/m 1,1 km/h (1 Bft) NW 325 1 min 0,000 mm 0,0 UV-I 18 W/m 1,9 C 3,2 C 3,2 km/h (1 Bft) 100,00 %
03.04.2016 06:54 3,1 C 91 % 1014,3 hPa 0,0 l/m 0,0 km/h (0 Bft) NW 325 1 min 0,000 mm 0,0 UV-I 19 W/m 1,8 C 3,1 C 0,0 km/h (0 Bft) 95,83 %
03.04.2016 06:55 3,1 C 91 % 1014,2 hPa 0,0 l/m 0,0 km/h (0 Bft) NW 325 0 min 0,000 mm 0,0 UV-I 20 W/m 1,8 C 3,1 C 0,0 km/h (0 Bft) 100,00 %
03.04.2016 06:56 3,1 C 91 % 1014,2 hPa 0,0 l/m 0,0 km/h (0 Bft) NW 325 0 min 0,000 mm 0,0 UV-I 21 W/m 1,8 C 3,1 C 0,0 km/h (0 Bft) 100,00 %
03.04.2016 06:57 3,2 C 91 % 1014,2 hPa 0,0 l/m 0,0 km/h (0 Bft) NW 325 0 min 0,000 mm 0,0 UV-I 23 W/m 1,9 C 3,2 C 0,0 km/h (0 Bft) 100,00 %
03.04.2016 06:58 3,2 C 92 % 1014,2 hPa 0,0 l/m 0,0 km/h (0 Bft) NW 325 1 min 0,000 mm 0,0 UV-I 25 W/m 2,0 C 3,2 C 0,0 km/h (0 Bft) 100,00 %
03.04.2016 06:59 3,2 C 91 % 1014,2 hPa 0,0 l/m 0,7 km/h (0 Bft) NW 325 0 min 0,000 mm 0,0 UV-I 26 W/m 1,9 C 3,2 C 1,6 km/h (1 Bft) 95,65 %
03.04.2016 07:00 3,3 C 92 % 1014,2 hPa 0,0 l/m 0,8 km/h (0 Bft) NW 325 0 min 0,000 mm 0,0 UV-I 27 W/m 2,1 C 3,3 C 1,6 km/h (1 Bft) 95,83 %
03.04.2016 07:01 3,3 C 92 % 1014,2 hPa 0,0 l/m 0,3 km/h (0 Bft) NW 325 0 min 0,000 mm 0,0 UV-I 29 W/m 2,1 C 3,3 C 1,6 km/h (1 Bft) 100,00 %
03.04.2016 07:02 3,4 C 92 % 1014,2 hPa 0,0 l/m 0,0 km/h (0 Bft) NW 325 0 min 0,000 mm 0,0 UV-I 31 W/m 2,2 C 3,4 C 0,0 km/h (0 Bft) 95,65 %
03.04.2016 07:03 3,4 C 92 % 1014,2 hPa 0,0 l/m 0,0 km/h (0 Bft) NW 325 0 min 0,000 mm 0,0 UV-I 32 W/m 2,2 C 3,4 C 0,0 km/h (0 Bft) 100,00 %
03.04.2016 07:04 3,5 C 91 % 1014,2 hPa 0,0 l/m 0,0 km/h (0 Bft) NW 325 0 min 0,000 mm 0,0 UV-I 33 W/m 2,2 C 3,5 C 0,0 km/h (0 Bft) 95,65 %
03.04.2016 07:05 3,6 C 91 % 1014,2 hPa 0,0 l/m 0,0 km/h (0 Bft) NW 325 0 min 0,000 mm 0,0 UV-I 35 W/m 2,3 C 3,6 C 0,0 km/h (0 Bft) 100,00 %
03.04.2016 07:06 3,6 C 91 % 1014,2 hPa 0,0 l/m 0,0 km/h (0 Bft) NW 325 0 min 0,000 mm 0,0 UV-I 36 W/m 2,3 C 3,6 C 0,0 km/h (0 Bft) 100,00 %
03.04.2016 07:07 3,6 C 91 % 1014,2 hPa 0,0 l/m 0,0 km/h (0 Bft) NW 325 0 min 0,000 mm 0,0 UV-I 38 W/m 2,3 C 3,6 C 0,0 km/h (0 Bft) 100,00 %
03.04.2016 07:08 3,6 C 91 % 1014,3 hPa 0,0 l/m 0,0 km/h (0 Bft) NW 325 0 min 0,000 mm 0,0 UV-I 39 W/m 2,3 C 3,6 C 0,0 km/h (0 Bft) 100,00 %
03.04.2016 07:09 3,6 C 91 % 1014,3 hPa 0,0 l/m 0,1 km/h (0 Bft) NW 325 0 min 0,000 mm 0,0 UV-I 40 W/m 2,3 C 3,6 C 1,6 km/h (1 Bft) 100,00 %
03.04.2016 07:10 3,6 C 90 % 1014,3 hPa 0,0 l/m 0,0 km/h (0 Bft) NW 325 0 min 0,000 mm 0,0 UV-I 42 W/m 2,1 C 3,6 C 0,0 km/h (0 Bft) 100,00 %
03.04.2016 07:11 3,6 C 90 % 1014,2 hPa 0,0 l/m 1,3 km/h (1 Bft) NW 325 0 min 0,000 mm 0,0 UV-I 44 W/m 2,1 C 3,6 C 3,2 km/h (1 Bft) 100,00 %
03.04.2016 07:12 3,7 C 91 % 1014,2 hPa 0,0 l/m 2,9 km/h (1 Bft) NW 325 0 min 0,000 mm 0,0 UV-I 45 W/m 2,4 C 3,7 C 3,2 km/h (1 Bft) 100,00 %
03.04.2016 07:13 3,7 C 91 % 1014,1 hPa 0,0 l/m 3,1 km/h (1 Bft) NW 325 0 min 0,000 mm 0,0 UV-I 47 W/m 2,4 C 3,7 C 4,8 km/h (1 Bft) 95,83 %
03.04.2016 07:14 3,8 C 91 % 1014,2 hPa 0,0 l/m 2,9 km/h (1 Bft) NW 325 0 min 0,000 mm 0,0 UV-I 47 W/m 2,5 C 3,8 C 4,8 km/h (1 Bft) 100,00 %
03.04.2016 07:15 3,8 C 91 % 1014,2 hPa 0,0 l/m 2,3 km/h (1 Bft) NW 325 0 min 0,000 mm 0,0 UV-I 49 W/m 2,5 C 3,8 C 3,2 km/h (1 Bft) 100,00 %
03.04.2016 07:16 3,9 C 91 % 1014,2 hPa 0,0 l/m 2,2 km/h (1 Bft) NW 325 0 min 0,000 mm 0,0 UV-I 51 W/m 2,6 C 3,9 C 3,2 km/h (1 Bft) 100,00 %
03.04.2016 07:17 3,9 C 91 % 1014,2 hPa 0,0 l/m 2,5 km/h (1 Bft) NW 325 0 min 0,000 mm 0,0 UV-I 52 W/m 2,6 C 3,9 C 3,2 km/h (1 Bft) 100,00 %
03.04.2016 07:18 4,1 C 91 % 1014,2 hPa 0,0 l/m 2,3 km/h (1 Bft) NW 325 0 min 0,000 mm 0,0 UV-I 53 W/m 2,8 C 4,1 C 4,8 km/h (1 Bft) 100,00 %
03.04.2016 07:19 4,2 C 90 % 1014,2 hPa 0,0 l/m 3,0 km/h (1 Bft) NW 325 0 min 0,000 mm 0,0 UV-I 54 W/m 2,7 C 4,2 C 4,8 km/h (1 Bft) 100,00 %
03.04.2016 07:20 4,2 C 90 % 1014,2 hPa 0,0 l/m 0,1 km/h (0 Bft) NW 325 0 min 0,000 mm 0,0 UV-I 56 W/m 2,7 C 4,2 C 1,6 km/h (1 Bft) 100,00 %
03.04.2016 07:21 4,2 C 90 % 1014,2 hPa 0,0 l/m 1,5 km/h (1 Bft) NW 325 0 min 0,000 mm 0,0 UV-I 58 W/m 2,7 C 4,2 C 3,2 km/h (1 Bft) 100,00 %
03.04.2016 07:22 4,2 C 90 % 1014,2 hPa 0,0 l/m 0,9 km/h (0 Bft) NW 325 0 min 0,000 mm 0,0 UV-I 58 W/m 2,7 C 4,2 C 3,2 km/h (1 Bft) 100,00 %
03.04.2016 07:23 4,2 C 90 % 1014,2 hPa 0,0 l/m 0,5 km/h (0 Bft) NW 325 0 min 0,000 mm 0,0 UV-I 61 W/m 2,7 C 4,2 C 1,6 km/h (1 Bft) 100,00 %
03.04.2016 07:24 4,1 C 90 % 1014,2 hPa 0,0 l/m 0,0 km/h (0 Bft) NW 325 0 min 0,000 mm 0,0 UV-I 62 W/m 2,6 C 4,1 C 0,0 km/h (0 Bft) 100,00 %
03.04.2016 07:25 4,1 C 90 % 1014,2 hPa 0,0 l/m 0,0 km/h (0 Bft) NW 325 0 min 0,000 mm 0,0 UV-I 63 W/m 2,6 C 4,1 C 0,0 km/h (0 Bft) 95,65 %
03.04.2016 07:26 4,0 C 89 % 1014,2 hPa 0,0 l/m 0,0 km/h (0 Bft) NW 325 0 min 0,000 mm 0,0 UV-I 64 W/m 2,4 C 4,0 C 0,0 km/h (0 Bft) 100,00 %
03.04.2016 07:27 3,9 C 89 % 1014,2 hPa 0,0 l/m 0,0 km/h (0 Bft) NW 325 0 min 0,000 mm 0,0 UV-I 65 W/m 2,3 C 3,9 C 0,0 km/h (0 Bft) 95,65 %
03.04.2016 07:28 3,9 C 89 % 1014,2 hPa 0,0 l/m 0,0 km/h (0 Bft) NW 325 0 min 0,000 mm 0,0 UV-I 67 W/m 2,3 C 3,9 C 0,0 km/h (0 Bft) 100,00 %
03.04.2016 07:29 3,8 C 90 % 1014,3 hPa 0,0 l/m 0,0 km/h (0 Bft) NW 325 0 min 0,000 mm 0,0 UV-I 69 W/m 2,3 C 3,8 C 0,0 km/h (0 Bft) 100,00 %
03.04.2016 07:30 3,8 C 89 % 1014,2 hPa 0,0 l/m 0,0 km/h (0 Bft) NW 325 0 min 0,000 mm 0,0 UV-I 70 W/m 2,2 C 3,8 C 0,0 km/h (0 Bft) 100,00 %
03.04.2016 07:31 3,8 C 90 % 1014,2 hPa 0,0 l/m 0,5 km/h (0 Bft) NW 325 0 min 0,000 mm 0,0 UV-I 71 W/m 2,3 C 3,8 C 1,6 km/h (1 Bft) 100,00 %
03.04.2016 07:32 3,9 C 91 % 1014,2 hPa 0,0 l/m 1,7 km/h (1 Bft) NW 325 0 min 0,000 mm 0,0 UV-I 75 W/m 2,6 C 3,9 C 3,2 km/h (1 Bft) 100,00 %
03.04.2016 07:33 4,0 C 90 % 1014,3 hPa 0,0 l/m 1,1 km/h (1 Bft) NW 325 1 min 0,000 mm 0,0 UV-I 81 W/m 2,5 C 4,0 C 1,6 km/h (1 Bft) 100,00 %
03.04.2016 07:34 4,1 C 90 % 1014,3 hPa 0,0 l/m 1,7 km/h (1 Bft) NW 325 1 min 0,000 mm 0,0 UV-I 84 W/m 2,6 C 4,1 C 3,2 km/h (1 Bft) 100,00 %
03.04.2016 07:35 4,2 C 91 % 1014,4 hPa 0,0 l/m 3,0 km/h (1 Bft) NW 325 1 min 0,000 mm 0,0 UV-I 87 W/m 2,9 C 4,2 C 3,2 km/h (1 Bft) 100,00 %
03.04.2016 07:36 4,3 C 90 % 1014,4 hPa 0,0 l/m 1,4 km/h (1 Bft) NW 325 1 min 0,000 mm 0,0 UV-I 90 W/m 2,8 C 4,3 C 3,2 km/h (1 Bft) 100,00 %
03.04.2016 07:37 4,4 C 90 % 1014,4 hPa 0,0 l/m 0,5 km/h (0 Bft) NW 325 1 min 0,000 mm 0,0 UV-I 91 W/m 2,9 C 4,4 C 1,6 km/h (1 Bft) 100,00 %
03.04.2016 07:38 4,4 C 90 % 1014,4 hPa 0,0 l/m 0,0 km/h (0 Bft) NW 325 1 min 0,000 mm 0,0 UV-I 93 W/m 2,9 C 4,4 C 0,0 km/h (0 Bft) 100,00 %
03.04.2016 07:39 4,4 C 90 % 1014,3 hPa 0,0 l/m 0,1 km/h (0 Bft) NW 325 1 min 0,000 mm 0,0 UV-I 93 W/m 2,9 C 4,4 C 1,6 km/h (1 Bft) 100,00 %
03.04.2016 07:40 4,4 C 90 % 1014,3 hPa 0,0 l/m 1,2 km/h (1 Bft) NW 325 1 min 0,000 mm 0,0 UV-I 94 W/m 2,9 C 4,4 C 3,2 km/h (1 Bft) 100,00 %
03.04.2016 07:41 4,4 C 90 % 1014,3 hPa 0,0 l/m 0,2 km/h (0 Bft) NW 325 1 min 0,000 mm 0,0 UV-I 97 W/m 2,9 C 4,4 C 1,6 km/h (1 Bft) 100,00 %
03.04.2016 07:42 4,4 C 90 % 1014,3 hPa 0,0 l/m 0,0 km/h (0 Bft) NW 325 1 min 0,000 mm 0,0 UV-I 102 W/m 2,9 C 4,4 C 0,0 km/h (0 Bft) 100,00 %
03.04.2016 07:43 4,4 C 90 % 1014,3 hPa 0,0 l/m 0,9 km/h (0 Bft) NW 325 1 min 0,000 mm 0,0 UV-I 108 W/m 2,9 C 4,4 C 3,2 km/h (1 Bft) 95,65 %
03.04.2016 07:44 4,5 C 90 % 1014,4 hPa 0,0 l/m 0,2 km/h (0 Bft) NW 325 1 min 0,000 mm 0,0 UV-I 113 W/m 3,0 C 4,5 C 1,6 km/h (1 Bft) 100,00 %
03.04.2016 07:45 4,6 C 90 % 1014,4 hPa 0,0 l/m 1,9 km/h (1 Bft) NW 325 1 min 0,000 mm 0,0 UV-I 116 W/m 3,1 C 4,6 C 3,2 km/h (1 Bft) 100,00 %
03.04.2016 07:46 4,7 C 90 % 1014,4 hPa 0,0 l/m 2,2 km/h (1 Bft) NW 325 1 min 0,000 mm 0,0 UV-I 116 W/m 3,2 C 4,7 C 3,2 km/h (1 Bft) 100,00 %
03.04.2016 07:47 4,8 C 90 % 1014,5 hPa 0,0 l/m 2,0 km/h (1 Bft) NW 325 1 min 0,000 mm 0,0 UV-I 119 W/m 3,3 C 4,8 C 3,2 km/h (1 Bft) 100,00 %
03.04.2016 07:48 4,8 C 90 % 1014,5 hPa 0,0 l/m 3,4 km/h (1 Bft) NO 45 1 min 0,000 mm 0,0 UV-I 122 W/m 3,3 C 4,8 C 6,4 km/h (2 Bft) 100,00 %
03.04.2016 07:49 4,9 C 90 % 1014,5 hPa 0,0 l/m 2,7 km/h (1 Bft) NO 45 1 min 0,000 mm 0,0 UV-I 124 W/m 3,4 C 4,9 C 3,2 km/h (1 Bft) 100,00 %
03.04.2016 07:50 5,1 C 89 % 1014,5 hPa 0,0 l/m 2,4 km/h (1 Bft) NO 45 1 min 0,000 mm 0,0 UV-I 127 W/m 3,4 C 5,1 C 3,2 km/h (1 Bft) 100,00 %
03.04.2016 07:51 5,2 C 89 % 1014,4 hPa 0,0 l/m 3,1 km/h (1 Bft) NO 45 1 min 0,000 mm 0,0 UV-I 129 W/m 3,5 C 5,2 C 4,8 km/h (1 Bft) 100,00 %
03.04.2016 07:52 5,2 C 89 % 1014,4 hPa 0,0 l/m 2,7 km/h (1 Bft) NO 45 1 min 0,000 mm 0,0 UV-I 135 W/m 3,5 C 5,2 C 4,8 km/h (1 Bft) 100,00 %
03.04.2016 07:53 5,3 C 88 % 1014,4 hPa 0,0 l/m 2,3 km/h (1 Bft) NO 45 1 min 0,000 mm 0,0 UV-I 140 W/m 3,5 C 5,3 C 3,2 km/h (1 Bft) 100,00 %
03.04.2016 07:54 5,4 C 88 % 1014,4 hPa 0,0 l/m 2,5 km/h (1 Bft) NO 45 1 min 0,000 mm 0,0 UV-I 145 W/m 3,6 C 5,4 C 4,8 km/h (1 Bft) 100,00 %
03.04.2016 07:55 5,5 C 87 % 1014,5 hPa 0,0 l/m 0,3 km/h (0 Bft) NO 45 1 min 0,000 mm 0,0 UV-I 147 W/m 3,5 C 5,5 C 1,6 km/h (1 Bft) 100,00 %
03.04.2016 07:56 5,6 C 88 % 1014,5 hPa 0,0 l/m 0,5 km/h (0 Bft) NO 45 1 min 0,000 mm 0,0 UV-I 151 W/m 3,8 C 5,6 C 1,6 km/h (1 Bft) 100,00 %
03.04.2016 07:57 5,7 C 88 % 1014,5 hPa 0,0 l/m 3,0 km/h (1 Bft) NO 45 1 min 0,000 mm 0,0 UV-I 156 W/m 3,9 C 5,7 C 4,8 km/h (1 Bft) 100,00 %
03.04.2016 07:58 5,7 C 88 % 1014,5 hPa 0,0 l/m 3,2 km/h (1 Bft) NO 45 1 min 0,000 mm 0,0 UV-I 159 W/m 3,9 C 5,7 C 4,8 km/h (1 Bft) 100,00 %
03.04.2016 07:59 5,8 C 88 % 1014,4 hPa 0,0 l/m 2,4 km/h (1 Bft) NO 45 1 min 0,000 mm 0,0 UV-I 163 W/m 4,0 C 5,8 C 3,2 km/h (1 Bft) 100,00 %
03.04.2016 08:00 5,8 C 88 % 1014,4 hPa 0,0 l/m 1,9 km/h (1 Bft) NO 45 1 min 0,025 mm 0,0 UV-I 166 W/m 4,0 C 5,8 C 3,2 km/h (1 Bft) 100,00 %
03.04.2016 08:01 5,9 C 88 % 1014,5 hPa 0,0 l/m 1,3 km/h (1 Bft) NO 45 1 min 0,000 mm 0,0 UV-I 170 W/m 4,1 C 5,9 C 3,2 km/h (1 Bft) 100,00 %
03.04.2016 08:02 5,9 C 88 % 1014,5 hPa 0,0 l/m 2,1 km/h (1 Bft) NO 45 1 min 0,000 mm 0,0 UV-I 172 W/m 4,1 C 5,9 C 4,8 km/h (1 Bft) 100,00 %
03.04.2016 08:03 6,1 C 88 % 1014,5 hPa 0,0 l/m 5,5 km/h (1 Bft) O-NO 67 1 min 0,000 mm 0,0 UV-I 176 W/m 4,3 C 6,1 C 8,0 km/h (2 Bft) 100,00 %
03.04.2016 08:04 6,1 C 87 % 1014,4 hPa 0,0 l/m 5,7 km/h (1 Bft) O-NO 60 1 min 0,000 mm 0,0 UV-I 178 W/m 4,1 C 6,1 C 8,0 km/h (2 Bft) 100,00 %
03.04.2016 08:05 6,2 C 86 % 1014,5 hPa 0,0 l/m 5,2 km/h (1 Bft) O-NO 61 1 min 0,000 mm 0,0 UV-I 180 W/m 4,0 C 6,2 C 6,4 km/h (2 Bft) 100,00 %
03.04.2016 08:06 6,2 C 86 % 1014,4 hPa 0,0 l/m 5,9 km/h (2 Bft) NO 41 1 min 0,000 mm 0,0 UV-I 182 W/m 4,0 C 6,2 C 8,0 km/h (2 Bft) 100,00 %
03.04.2016 08:07 6,3 C 85 % 1014,4 hPa 0,0 l/m 4,5 km/h (1 Bft) N-NO 19 1 min 0,000 mm 0,0 UV-I 185 W/m 4,0 C 6,3 C 4,8 km/h (1 Bft) 100,00 %
03.04.2016 08:08 6,3 C 85 % 1014,4 hPa 0,0 l/m 6,1 km/h (2 Bft) NO 49 1 min 0,000 mm 0,0 UV-I 185 W/m 4,0 C 6,3 C 8,0 km/h (2 Bft) 100,00 %
03.04.2016 08:09 6,4 C 85 % 1014,4 hPa 0,0 l/m 6,7 km/h (2 Bft) NO 44 1 min 0,000 mm 0,0 UV-I 186 W/m 4,1 C 6,2 C 8,0 km/h (2 Bft) 95,65 %
03.04.2016 08:10 6,4 C 85 % 1014,4 hPa 0,0 l/m 6,9 km/h (2 Bft) NO 38 1 min 0,000 mm 0,0 UV-I 189 W/m 4,1 C 6,0 C 9,7 km/h (2 Bft) 95,83 %
03.04.2016 08:11 6,5 C 84 % 1014,4 hPa 0,0 l/m 7,1 km/h (2 Bft) O-NO 69 1 min 0,000 mm 0,0 UV-I 191 W/m 4,0 C 5,9 C 9,7 km/h (2 Bft) 100,00 %
03.04.2016 08:12 6,6 C 84 % 1014,4 hPa 0,0 l/m 9,0 km/h (2 Bft) O-NO 59 1 min 0,000 mm 0,0 UV-I 192 W/m 4,1 C 4,5 C 11,3 km/h (2 Bft) 96,30 %
03.04.2016 08:13 6,6 C 83 % 1014,4 hPa 0,0 l/m 7,5 km/h (2 Bft) O-NO 65 1 min 0,000 mm 0,0 UV-I 193 W/m 3,9 C 5,7 C 9,7 km/h (2 Bft) 100,00 %
03.04.2016 08:14 6,6 C 83 % 1014,4 hPa 0,0 l/m 6,6 km/h (2 Bft) NO 34 1 min 0,000 mm 0,0 UV-I 193 W/m 3,9 C 6,5 C 11,3 km/h (2 Bft) 96,30 %
03.04.2016 08:15 6,7 C 83 % 1014,4 hPa 0,0 l/m 7,7 km/h (2 Bft) NO 54 1 min 0,000 mm 0,0 UV-I 197 W/m 4,0 C 5,6 C 9,7 km/h (2 Bft) 100,00 %
03.04.2016 08:16 6,7 C 83 % 1014,4 hPa 0,0 l/m 7,4 km/h (2 Bft) NO 46 1 min 0,000 mm 0,0 UV-I 199 W/m 4,0 C 5,9 C 9,7 km/h (2 Bft) 97,37 %
03.04.2016 08:17 6,7 C 83 % 1014,4 hPa 0,0 l/m 8,8 km/h (2 Bft) NO 39 1 min 0,000 mm 0,0 UV-I 201 W/m 4,0 C 4,8 C 11,3 km/h (2 Bft) 95,65 %
03.04.2016 08:18 6,8 C 84 % 1014,4 hPa 0,0 l/m 9,2 km/h (2 Bft) O-NO 65 1 min 0,000 mm 0,0 UV-I 203 W/m 4,3 C 4,6 C 12,9 km/h (3 Bft) 91,67 %
03.04.2016 08:19 6,8 C 83 % 1014,4 hPa 0,0 l/m 5,8 km/h (2 Bft) O-NO 65 1 min 0,000 mm 0,0 UV-I 201 W/m 4,1 C 6,8 C 6,4 km/h (2 Bft) 100,00 %
03.04.2016 08:20 6,8 C 83 % 1014,4 hPa 0,0 l/m 8,6 km/h (2 Bft) O-NO 65 1 min 0,000 mm 0,0 UV-I 200 W/m 4,1 C 5,0 C 12,9 km/h (3 Bft) 95,65 %
03.04.2016 08:21 6,9 C 83 % 1014,4 hPa 0,0 l/m 7,5 km/h (2 Bft) O-NO 60 1 min 0,000 mm 0,0 UV-I 206 W/m 4,2 C 6,0 C 14,5 km/h (3 Bft) 91,67 %
03.04.2016 08:22 6,9 C 83 % 1014,4 hPa 0,0 l/m 9,6 km/h (2 Bft) O-NO 65 1 min 0,000 mm 0,0 UV-I 205 W/m 4,2 C 4,4 C 12,9 km/h (3 Bft) 100,00 %
03.04.2016 08:23 6,9 C 82 % 1014,4 hPa 0,0 l/m 9,3 km/h (2 Bft) NO 49 1 min 0,000 mm 0,0 UV-I 207 W/m 4,0 C 4,6 C 11,3 km/h (2 Bft) 95,83 %
03.04.2016 08:24 7,0 C 82 % 1014,4 hPa 0,0 l/m 10,8 km/h (2 Bft) O-NO 70 1 min 0,000 mm 0,0 UV-I 211 W/m 4,1 C 3,8 C 16,1 km/h (3 Bft) 95,65 %
03.04.2016 08:25 7,0 C 82 % 1014,4 hPa 0,0 l/m 10,5 km/h (2 Bft) NO 55 1 min 0,000 mm 0,0 UV-I 214 W/m 4,1 C 4,0 C 14,5 km/h (3 Bft) 95,83 %
03.04.2016 08:26 7,1 C 82 % 1014,4 hPa 0,0 l/m 7,1 km/h (2 Bft) N-NO 31 1 min 0,000 mm 0,0 UV-I 214 W/m 4,2 C 6,5 C 12,9 km/h (3 Bft) 95,65 %
03.04.2016 08:27 7,1 C 82 % 1014,4 hPa 0,0 l/m 7,5 km/h (2 Bft) NO 54 1 min 0,000 mm 0,0 UV-I 213 W/m 4,2 C 6,2 C 11,3 km/h (2 Bft) 95,83 %
03.04.2016 08:28 7,1 C 82 % 1014,4 hPa 0,0 l/m 7,0 km/h (2 Bft) O-NO 63 1 min 0,000 mm 0,0 UV-I 214 W/m 4,2 C 6,6 C 11,3 km/h (2 Bft) 92,31 %
03.04.2016 08:29 7,2 C 82 % 1014,5 hPa 0,0 l/m 7,0 km/h (2 Bft) O-NO 57 1 min 0,000 mm 0,0 UV-I 218 W/m 4,3 C 6,7 C 9,7 km/h (2 Bft) 100,00 %
03.04.2016 08:30 7,2 C 81 % 1014,5 hPa 0,0 l/m 7,6 km/h (2 Bft) O-NO 65 1 min 0,000 mm 0,0 UV-I 226 W/m 4,2 C 6,2 C 11,3 km/h (2 Bft) 91,30 %
03.04.2016 08:31 7,2 C 81 % 1014,5 hPa 0,0 l/m 7,1 km/h (2 Bft) O-NO 59 1 min 0,000 mm 0,0 UV-I 235 W/m 4,2 C 6,6 C 11,3 km/h (2 Bft) 100,00 %
03.04.2016 08:32 7,2 C 80 % 1014,5 hPa 0,0 l/m 10,9 km/h (2 Bft) NO 44 1 min 0,000 mm 0,0 UV-I 237 W/m 4,0 C 3,9 C 16,1 km/h (3 Bft) 91,30 %
03.04.2016 08:33 7,3 C 80 % 1014,4 hPa 0,0 l/m 8,1 km/h (2 Bft) O-NO 62 1 min 0,000 mm 0,0 UV-I 238 W/m 4,1 C 5,9 C 9,7 km/h (2 Bft) 95,83 %
03.04.2016 08:34 7,3 C 80 % 1014,5 hPa 0,0 l/m 8,2 km/h (2 Bft) O-NO 58 1 min 0,000 mm 0,0 UV-I 236 W/m 4,1 C 5,9 C 11,3 km/h (2 Bft) 86,96 %
03.04.2016 08:35 7,3 C 80 % 1014,5 hPa 0,0 l/m 8,6 km/h (2 Bft) NO 46 1 min 0,000 mm 0,0 UV-I 237 W/m 4,1 C 5,6 C 11,3 km/h (2 Bft) 100,00 %
03.04.2016 08:36 7,3 C 80 % 1014,5 hPa 0,0 l/m 9,3 km/h (2 Bft) O-NO 65 1 min 0,000 mm 0,0 UV-I 235 W/m 4,1 C 5,1 C 12,9 km/h (3 Bft) 96,15 %
03.04.2016 08:37 7,3 C 80 % 1014,4 hPa 0,0 l/m 9,5 km/h (2 Bft) O-NO 61 1 min 0,000 mm 0,0 UV-I 230 W/m 4,1 C 4,9 C 12,9 km/h (3 Bft) 95,83 %
03.04.2016 08:38 7,3 C 79 % 1014,4 hPa 0,0 l/m 8,6 km/h (2 Bft) N-NO 24 1 min 0,000 mm 0,0 UV-I 233 W/m 3,9 C 5,6 C 11,3 km/h (2 Bft) 100,00 %
03.04.2016 08:39 7,4 C 80 % 1014,4 hPa 0,0 l/m 8,3 km/h (2 Bft) NO 53 1 min 0,000 mm 0,0 UV-I 239 W/m 4,2 C 5,9 C 12,9 km/h (3 Bft) 95,83 %
03.04.2016 08:40 7,4 C 80 % 1014,4 hPa 0,0 l/m 8,2 km/h (2 Bft) N-NO 26 1 min 0,000 mm 0,1 UV-I 243 W/m 4,2 C 6,0 C 9,7 km/h (2 Bft) 100,00 %
03.04.2016 08:41 7,4 C 80 % 1014,4 hPa 0,0 l/m 6,4 km/h (2 Bft) O-NO 68 1 min 0,000 mm 0,5 UV-I 241 W/m 4,2 C 7,4 C 9,7 km/h (2 Bft) 95,83 %
03.04.2016 08:42 7,5 C 80 % 1014,4 hPa 0,0 l/m 8,5 km/h (2 Bft) NO 49 1 min 0,000 mm 0,5 UV-I 235 W/m 4,3 C 5,9 C 12,9 km/h (3 Bft) 100,00 %
03.04.2016 08:43 7,6 C 81 % 1014,4 hPa 0,0 l/m 7,8 km/h (2 Bft) O-NO 57 1 min 0,000 mm 0,5 UV-I 234 W/m 4,6 C 6,5 C 11,3 km/h (2 Bft) 100,00 %
03.04.2016 08:44 7,6 C 80 % 1014,4 hPa 0,0 l/m 7,8 km/h (2 Bft) N-NO 28 1 min 0,000 mm 0,5 UV-I 240 W/m 4,4 C 6,5 C 9,7 km/h (2 Bft) 95,83 %
03.04.2016 08:45 7,6 C 81 % 1014,4 hPa 0,0 l/m 9,5 km/h (2 Bft) NO 48 1 min 0,000 mm 0,5 UV-I 245 W/m 4,6 C 5,3 C 12,9 km/h (3 Bft) 100,00 %
03.04.2016 08:46 7,6 C 81 % 1014,4 hPa 0,0 l/m 8,7 km/h (2 Bft) NO 53 1 min 0,000 mm 0,5 UV-I 239 W/m 4,6 C 5,8 C 11,3 km/h (2 Bft) 100,00 %
03.04.2016 08:47 7,6 C 79 % 1014,4 hPa 0,0 l/m 7,4 km/h (2 Bft) N-NO 22 1 min 0,000 mm 0,5 UV-I 233 W/m 4,2 C 6,8 C 14,5 km/h (3 Bft) 100,00 %
03.04.2016 08:48 7,6 C 80 % 1014,4 hPa 0,0 l/m 9,8 km/h (2 Bft) NO 50 1 min 0,000 mm 0,5 UV-I 230 W/m 4,4 C 5,1 C 14,5 km/h (3 Bft) 100,00 %
03.04.2016 08:49 7,7 C 80 % 1014,4 hPa 0,0 l/m 8,0 km/h (2 Bft) NO 36 1 min 0,000 mm 0,5 UV-I 227 W/m 4,5 C 6,4 C 9,7 km/h (2 Bft) 100,00 %
03.04.2016 08:50 7,7 C 79 % 1014,4 hPa 0,0 l/m 8,5 km/h (2 Bft) O-NO 60 1 min 0,000 mm 0,5 UV-I 225 W/m 4,3 C 6,1 C 11,3 km/h (2 Bft) 95,83 %
03.04.2016 08:51 7,7 C 79 % 1014,4 hPa 0,0 l/m 8,0 km/h (2 Bft) NO 55 1 min 0,000 mm 0,5 UV-I 224 W/m 4,3 C 6,4 C 9,7 km/h (2 Bft) 100,00 %
03.04.2016 08:52 7,6 C 79 % 1014,5 hPa 0,0 l/m 6,5 km/h (2 Bft) O-NO 60 1 min 0,000 mm 0,5 UV-I 218 W/m 4,2 C 7,5 C 8,0 km/h (2 Bft) 100,00 %
03.04.2016 08:53 7,7 C 79 % 1014,4 hPa 0,0 l/m 9,1 km/h (2 Bft) O-NO 61 1 min 0,000 mm 0,5 UV-I 215 W/m 4,3 C 5,6 C 14,5 km/h (3 Bft) 100,00 %
03.04.2016 08:54 7,6 C 79 % 1014,4 hPa 0,0 l/m 6,2 km/h (2 Bft) O-NO 57 1 min 0,000 mm 0,5 UV-I 219 W/m 4,2 C 7,6 C 8,0 km/h (2 Bft) 100,00 %
03.04.2016 08:55 7,6 C 79 % 1014,4 hPa 0,0 l/m 7,0 km/h (2 Bft) NO 54 1 min 0,000 mm 0,5 UV-I 229 W/m 4,2 C 7,1 C 9,7 km/h (2 Bft) 100,00 %
03.04.2016 08:56 7,6 C 79 % 1014,4 hPa 0,0 l/m 8,0 km/h (2 Bft) NO 49 1 min 0,000 mm 0,5 UV-I 236 W/m 4,2 C 6,3 C 11,3 km/h (2 Bft) 100,00 %
03.04.2016 08:57 7,6 C 78 % 1014,4 hPa 0,0 l/m 8,9 km/h (2 Bft) NO 55 1 min 0,000 mm 0,5 UV-I 241 W/m 4,0 C 5,7 C 11,3 km/h (2 Bft) 100,00 %
03.04.2016 08:58 7,6 C 79 % 1014,4 hPa 0,0 l/m 6,2 km/h (2 Bft) NO 47 1 min 0,000 mm 0,6 UV-I 258 W/m 4,2 C 7,6 C 9,7 km/h (2 Bft) 100,00 %
03.04.2016 08:59 7,7 C 79 % 1014,4 hPa 0,0 l/m 5,2 km/h (1 Bft) NO 44 1 min 0,000 mm 0,6 UV-I 258 W/m 4,3 C 7,7 C 6,4 km/h (2 Bft) 100,00 %
03.04.2016 09:00 7,7 C 79 % 1014,4 hPa 0,0 l/m 3,8 km/h (1 Bft) NO 53 1 min 0,102 mm 0,6 UV-I 240 W/m 4,3 C 7,7 C 6,4 km/h (2 Bft) 100,00 %
03.04.2016 09:01 7,7 C 79 % 1014,4 hPa 0,0 l/m 6,4 km/h (2 Bft) NO 56 1 min 0,000 mm 0,6 UV-I 229 W/m 4,3 C 7,7 C 9,7 km/h (2 Bft) 100,00 %
03.04.2016 09:02 7,7 C 79 % 1014,4 hPa 0,0 l/m 6,0 km/h (2 Bft) O-NO 57 1 min 0,000 mm 0,6 UV-I 223 W/m 4,3 C 7,7 C 8,0 km/h (2 Bft) 100,00 %
03.04.2016 09:03 7,7 C 79 % 1014,4 hPa 0,0 l/m 5,1 km/h (1 Bft) NO 54 1 min 0,000 mm 0,6 UV-I 222 W/m 4,3 C 7,7 C 6,4 km/h (2 Bft) 100,00 %
03.04.2016 09:04 7,8 C 79 % 1014,4 hPa 0,0 l/m 7,8 km/h (2 Bft) N-NO 33 1 min 0,000 mm 0,6 UV-I 226 W/m 4,4 C 6,7 C 12,9 km/h (3 Bft) 100,00 %
03.04.2016 09:05 7,8 C 79 % 1014,4 hPa 0,0 l/m 4,8 km/h (1 Bft) O-NO 61 1 min 0,000 mm 0,6 UV-I 251 W/m 4,4 C 7,8 C 8,0 km/h (2 Bft) 100,00 %
03.04.2016 09:06 7,8 C 78 % 1014,4 hPa 0,0 l/m 3,7 km/h (1 Bft) O-NO 62 1 min 0,000 mm 0,6 UV-I 263 W/m 4,2 C 7,8 C 4,8 km/h (1 Bft) 100,00 %
03.04.2016 09:07 7,8 C 79 % 1014,4 hPa 0,0 l/m 5,6 km/h (1 Bft) NO 35 1 min 0,000 mm 0,6 UV-I 239 W/m 4,4 C 7,8 C 8,0 km/h (2 Bft) 100,00 %
03.04.2016 09:08 7,9 C 80 % 1014,3 hPa 0,0 l/m 9,3 km/h (2 Bft) NO 34 1 min 0,000 mm 0,6 UV-I 235 W/m 4,7 C 5,7 C 12,9 km/h (3 Bft) 100,00 %
03.04.2016 09:09 7,9 C 80 % 1014,3 hPa 0,0 l/m 10,7 km/h (2 Bft) NO 53 1 min 0,000 mm 0,6 UV-I 239 W/m 4,7 C 4,8 C 14,5 km/h (3 Bft) 100,00 %
03.04.2016 09:10 7,9 C 77 % 1014,3 hPa 0,0 l/m 9,1 km/h (2 Bft) O-NO 60 1 min 0,000 mm 0,6 UV-I 236 W/m 4,1 C 5,9 C 11,3 km/h (2 Bft) 100,00 %
03.04.2016 09:11 7,9 C 78 % 1014,3 hPa 0,0 l/m 8,7 km/h (2 Bft) NO 35 1 min 0,000 mm 0,6 UV-I 234 W/m 4,3 C 6,1 C 14,5 km/h (3 Bft) 100,00 %
03.04.2016 09:12 7,9 C 78 % 1014,4 hPa 0,0 l/m 5,1 km/h (1 Bft) NO 38 1 min 0,000 mm 0,6 UV-I 236 W/m 4,3 C 7,9 C 8,0 km/h (2 Bft) 100,00 %
03.04.2016 09:13 7,9 C 78 % 1014,4 hPa 0,0 l/m 7,8 km/h (2 Bft) NO 51 1 min 0,000 mm 0,7 UV-I 248 W/m 4,3 C 6,8 C 11,3 km/h (2 Bft) 100,00 %
03.04.2016 09:14 7,9 C 78 % 1014,4 hPa 0,0 l/m 7,7 km/h (2 Bft) O-NO 68 1 min 0,000 mm 0,7 UV-I 265 W/m 4,3 C 6,9 C 9,7 km/h (2 Bft) 95,65 %
03.04.2016 09:15 7,9 C 78 % 1014,4 hPa 0,0 l/m 7,9 km/h (2 Bft) O-NO 66 1 min 0,000 mm 0,7 UV-I 260 W/m 4,3 C 6,7 C 12,9 km/h (3 Bft) 100,00 %
03.04.2016 09:16 7,9 C 77 % 1014,4 hPa 0,0 l/m 7,6 km/h (2 Bft) O-NO 57 1 min 0,000 mm 0,7 UV-I 266 W/m 4,1 C 7,0 C 9,7 km/h (2 Bft) 100,00 %
03.04.2016 09:17 8,0 C 78 % 1014,4 hPa 0,0 l/m 10,1 km/h (2 Bft) O-NO 63 1 min 0,000 mm 0,7 UV-I 271 W/m 4,4 C 5,3 C 14,5 km/h (3 Bft) 100,00 %
03.04.2016 09:18 8,0 C 78 % 1014,4 hPa 0,0 l/m 10,1 km/h (2 Bft) O-NO 61 1 min 0,000 mm 0,7 UV-I 292 W/m 4,4 C 5,3 C 12,9 km/h (3 Bft) 95,83 %
03.04.2016 09:19 8,1 C 77 % 1014,4 hPa 0,0 l/m 10,4 km/h (2 Bft) O-NO 59 1 min 0,000 mm 0,7 UV-I 291 W/m 4,3 C 5,2 C 14,5 km/h (3 Bft) 100,00 %
03.04.2016 09:20 8,1 C 77 % 1014,3 hPa 0,0 l/m 9,6 km/h (2 Bft) O-NO 59 1 min 0,000 mm 0,7 UV-I 293 W/m 4,3 C 5,8 C 12,9 km/h (3 Bft) 100,00 %
03.04.2016 09:21 8,1 C 77 % 1014,4 hPa 0,0 l/m 8,0 km/h (2 Bft) O-NO 65 1 min 0,000 mm 0,7 UV-I 287 W/m 4,3 C 6,9 C 12,9 km/h (3 Bft) 100,00 %
03.04.2016 09:22 8,1 C 78 % 1014,3 hPa 0,0 l/m 6,5 km/h (2 Bft) O-NO 60 1 min 0,000 mm 0,7 UV-I 286 W/m 4,5 C 8,0 C 9,7 km/h (2 Bft) 100,00 %
03.04.2016 09:23 8,2 C 77 % 1014,3 hPa 0,0 l/m 5,6 km/h (1 Bft) O-NO 63 1 min 0,000 mm 0,7 UV-I 279 W/m 4,4 C 8,2 C 8,0 km/h (2 Bft) 100,00 %
03.04.2016 09:24 8,2 C 78 % 1014,3 hPa 0,0 l/m 5,9 km/h (2 Bft) NO 46 1 min 0,000 mm 0,7 UV-I 270 W/m 4,6 C 8,2 C 8,0 km/h (2 Bft) 100,00 %
03.04.2016 09:25 8,2 C 78 % 1014,4 hPa 0,0 l/m 7,0 km/h (2 Bft) O-NO 78 1 min 0,000 mm 0,8 UV-I 266 W/m 4,6 C 7,7 C 8,0 km/h (2 Bft) 100,00 %
03.04.2016 09:26 8,2 C 77 % 1014,4 hPa 0,0 l/m 8,9 km/h (2 Bft) O-NO 58 1 min 0,000 mm 0,8 UV-I 270 W/m 4,4 C 6,3 C 11,3 km/h (2 Bft) 100,00 %
03.04.2016 09:27 8,2 C 77 % 1014,5 hPa 0,0 l/m 5,6 km/h (1 Bft) O 87 1 min 0,000 mm 0,8 UV-I 270 W/m 4,4 C 8,2 C 9,7 km/h (2 Bft) 95,65 %
03.04.2016 09:28 8,2 C 76 % 1014,5 hPa 0,0 l/m 8,7 km/h (2 Bft) O-NO 58 1 min 0,000 mm 0,8 UV-I 273 W/m 4,2 C 6,5 C 12,9 km/h (3 Bft) 100,00 %
03.04.2016 09:29 8,2 C 77 % 1014,5 hPa 0,0 l/m 6,4 km/h (2 Bft) O-NO 61 1 min 0,000 mm 0,8 UV-I 292 W/m 4,4 C 8,2 C 8,0 km/h (2 Bft) 100,00 %
03.04.2016 09:30 8,3 C 76 % 1014,5 hPa 0,0 l/m 8,9 km/h (2 Bft) O 89 1 min 0,000 mm 0,9 UV-I 326 W/m 4,3 C 6,4 C 11,3 km/h (2 Bft) 100,00 %
03.04.2016 09:31 8,3 C 77 % 1014,5 hPa 0,0 l/m 7,8 km/h (2 Bft) NO 53 1 min 0,000 mm 0,9 UV-I 359 W/m 4,5 C 7,2 C 9,7 km/h (2 Bft) 100,00 %
03.04.2016 09:32 8,4 C 77 % 1014,5 hPa 0,0 l/m 7,5 km/h (2 Bft) O-NO 65 1 min 0,000 mm 0,9 UV-I 339 W/m 4,6 C 7,5 C 11,3 km/h (2 Bft) 100,00 %
03.04.2016 09:33 8,4 C 77 % 1014,5 hPa 0,0 l/m 8,6 km/h (2 Bft) O-NO 59 1 min 0,000 mm 0,9 UV-I 351 W/m 4,6 C 6,7 C 12,9 km/h (3 Bft) 95,65 %
03.04.2016 09:34 8,5 C 75 % 1014,5 hPa 0,0 l/m 7,5 km/h (2 Bft) O-NO 67 1 min 0,000 mm 0,9 UV-I 341 W/m 4,3 C 7,6 C 12,9 km/h (3 Bft) 100,00 %
03.04.2016 09:35 8,5 C 75 % 1014,5 hPa 0,0 l/m 7,2 km/h (2 Bft) O-NO 62 1 min 0,000 mm 0,9 UV-I 305 W/m 4,3 C 7,9 C 9,7 km/h (2 Bft) 100,00 %
03.04.2016 09:36 8,6 C 75 % 1014,5 hPa 0,0 l/m 9,6 km/h (2 Bft) O-NO 63 1 min 0,000 mm 0,8 UV-I 283 W/m 4,4 C 6,3 C 12,9 km/h (3 Bft) 100,00 %
03.04.2016 09:37 8,6 C 76 % 1014,5 hPa 0,0 l/m 8,3 km/h (2 Bft) NO 44 1 min 0,000 mm 0,9 UV-I 284 W/m 4,6 C 7,2 C 12,9 km/h (3 Bft) 91,30 %
03.04.2016 09:38 8,6 C 75 % 1014,5 hPa 0,0 l/m 9,0 km/h (2 Bft) O-NO 61 1 min 0,000 mm 0,9 UV-I 288 W/m 4,4 C 6,7 C 11,3 km/h (2 Bft) 100,00 %
03.04.2016 09:39 8,6 C 76 % 1014,5 hPa 0,0 l/m 7,9 km/h (2 Bft) O-NO 58 1 min 0,000 mm 0,9 UV-I 280 W/m 4,6 C 7,5 C 9,7 km/h (2 Bft) 95,83 %
03.04.2016 09:40 8,6 C 77 % 1014,5 hPa 0,0 l/m 7,0 km/h (2 Bft) NO 46 0 min 0,000 mm 0,8 UV-I 264 W/m 4,8 C 8,1 C 9,7 km/h (2 Bft) 100,00 %
03.04.2016 09:41 8,6 C 76 % 1014,5 hPa 0,0 l/m 6,9 km/h (2 Bft) O 79 0 min 0,000 mm 0,8 UV-I 257 W/m 4,6 C 8,2 C 9,7 km/h (2 Bft) 100,00 %
03.04.2016 09:42 8,6 C 75 % 1014,5 hPa 0,0 l/m 5,6 km/h (1 Bft) O-NO 63 0 min 0,000 mm 0,9 UV-I 257 W/m 4,4 C 8,6 C 6,4 km/h (2 Bft) 100,00 %
03.04.2016 09:43 8,6 C 75 % 1014,6 hPa 0,0 l/m 6,2 km/h (2 Bft) O-NO 69 0 min 0,000 mm 0,9 UV-I 259 W/m 4,4 C 8,6 C 8,0 km/h (2 Bft) 100,00 %
03.04.2016 09:44 8,5 C 75 % 1014,6 hPa 0,0 l/m 7,6 km/h (2 Bft) O-NO 64 0 min 0,000 mm 0,9 UV-I 263 W/m 4,3 C 7,6 C 9,7 km/h (2 Bft) 95,65 %
03.04.2016 09:45 8,6 C 75 % 1014,5 hPa 0,0 l/m 7,1 km/h (2 Bft) O 96 0 min 0,000 mm 0,9 UV-I 265 W/m 4,4 C 8,1 C 9,7 km/h (2 Bft) 100,00 %
03.04.2016 09:46 8,6 C 76 % 1014,5 hPa 0,0 l/m 7,7 km/h (2 Bft) O-NO 67 0 min 0,000 mm 0,9 UV-I 266 W/m 4,6 C 7,6 C 8,0 km/h (2 Bft) 96,15 %
03.04.2016 09:47 8,6 C 76 % 1014,5 hPa 0,0 l/m 7,4 km/h (2 Bft) O-NO 74 0 min 0,000 mm 0,9 UV-I 271 W/m 4,6 C 7,8 C 9,7 km/h (2 Bft) 100,00 %
03.04.2016 09:48 8,6 C 75 % 1014,5 hPa 0,0 l/m 5,9 km/h (2 Bft) O-NO 59 0 min 0,000 mm 0,9 UV-I 267 W/m 4,4 C 8,6 C 8,0 km/h (2 Bft) 100,00 %
03.04.2016 09:49 8,7 C 76 % 1014,5 hPa 0,0 l/m 5,3 km/h (1 Bft) O-NO 59 0 min 0,000 mm 0,9 UV-I 271 W/m 4,7 C 8,7 C 6,4 km/h (2 Bft) 100,00 %
03.04.2016 09:50 8,7 C 76 % 1014,5 hPa 0,0 l/m 5,5 km/h (1 Bft) NO 54 0 min 0,000 mm 0,9 UV-I 276 W/m 4,7 C 8,7 C 8,0 km/h (2 Bft) 100,00 %
03.04.2016 09:51 8,7 C 75 % 1014,5 hPa 0,0 l/m 5,6 km/h (1 Bft) O-NO 68 0 min 0,000 mm 0,9 UV-I 276 W/m 4,5 C 8,7 C 8,0 km/h (2 Bft) 100,00 %
03.04.2016 09:52 8,8 C 75 % 1014,5 hPa 0,0 l/m 4,9 km/h (1 Bft) O-NO 65 0 min 0,000 mm 1,0 UV-I 278 W/m 4,6 C 8,8 C 6,4 km/h (2 Bft) 100,00 %
03.04.2016 09:53 8,8 C 75 % 1014,6 hPa 0,0 l/m 4,1 km/h (1 Bft) NO 42 1 min 0,000 mm 1,0 UV-I 286 W/m 4,6 C 8,8 C 6,4 km/h (2 Bft) 100,00 %
03.04.2016 09:54 8,8 C 76 % 1014,5 hPa 0,0 l/m 6,0 km/h (2 Bft) N-NO 28 1 min 0,000 mm 1,0 UV-I 298 W/m 4,8 C 8,8 C 8,0 km/h (2 Bft) 95,83 %
03.04.2016 09:55 8,9 C 77 % 1014,6 hPa 0,0 l/m 4,2 km/h (1 Bft) NO 38 1 min 0,000 mm 1,0 UV-I 305 W/m 5,1 C 8,9 C 8,0 km/h (2 Bft) 100,00 %
03.04.2016 09:56 8,9 C 78 % 1014,5 hPa 0,0 l/m 5,0 km/h (1 Bft) NO 38 1 min 0,000 mm 1,0 UV-I 312 W/m 5,3 C 8,9 C 6,4 km/h (2 Bft) 100,00 %
03.04.2016 09:57 9,0 C 76 % 1014,5 hPa 0,0 l/m 3,1 km/h (1 Bft) NO 38 1 min 0,000 mm 1,1 UV-I 312 W/m 5,0 C 9,0 C 6,4 km/h (2 Bft) 100,00 %
03.04.2016 09:58 9,1 C 76 % 1014,5 hPa 0,0 l/m 5,7 km/h (1 Bft) NO 34 1 min 0,000 mm 1,1 UV-I 321 W/m 5,1 C 9,1 C 8,0 km/h (2 Bft) 100,00 %
03.04.2016 09:59 9,1 C 77 % 1014,5 hPa 0,0 l/m 4,8 km/h (1 Bft) NO 42 1 min 0,000 mm 1,1 UV-I 343 W/m 5,3 C 9,1 C 6,4 km/h (2 Bft) 100,00 %
03.04.2016 10:00 9,2 C 76 % 1014,5 hPa 0,0 l/m 6,2 km/h (2 Bft) NO 56 1 min 0,000 mm 1,1 UV-I 355 W/m 5,2 C 9,2 C 9,7 km/h (2 Bft) 95,65 %
03.04.2016 10:01 9,3 C 77 % 1014,5 hPa 0,0 l/m 6,6 km/h (2 Bft) NO 43 1 min 0,127 mm 1,1 UV-I 355 W/m 5,5 C 9,2 C 8,0 km/h (2 Bft) 100,00 %
03.04.2016 10:02 9,3 C 75 % 1014,5 hPa 0,0 l/m 5,5 km/h (1 Bft) O-NO 57 1 min 0,000 mm 1,1 UV-I 362 W/m 5,1 C 9,3 C 6,4 km/h (2 Bft) 95,83 %
03.04.2016 10:03 9,3 C 75 % 1014,5 hPa 0,0 l/m 6,2 km/h (2 Bft) NO 41 1 min 0,000 mm 1,2 UV-I 359 W/m 5,1 C 9,3 C 8,0 km/h (2 Bft) 100,00 %
03.04.2016 10:04 9,3 C 75 % 1014,5 hPa 0,0 l/m 4,8 km/h (1 Bft) NO 41 1 min 0,000 mm 1,2 UV-I 356 W/m 5,1 C 9,3 C 6,4 km/h (2 Bft) 95,83 %
03.04.2016 10:05 9,3 C 75 % 1014,5 hPa 0,0 l/m 5,2 km/h (1 Bft) NO 44 1 min 0,000 mm 1,2 UV-I 349 W/m 5,1 C 9,3 C 6,4 km/h (2 Bft) 95,65 %
03.04.2016 10:06 9,3 C 75 % 1014,5 hPa 0,0 l/m 2,7 km/h (1 Bft) NO 44 1 min 0,000 mm 1,2 UV-I 335 W/m 5,1 C 9,3 C 3,2 km/h (1 Bft) 100,00 %
03.04.2016 10:07 9,3 C 75 % 1014,5 hPa 0,0 l/m 4,4 km/h (1 Bft) NO 53 1 min 0,000 mm 1,1 UV-I 311 W/m 5,1 C 9,3 C 6,4 km/h (2 Bft) 96,15 %
03.04.2016 10:08 9,3 C 74 % 1014,5 hPa 0,0 l/m 5,9 km/h (2 Bft) O-NO 60 0 min 0,000 mm 1,1 UV-I 296 W/m 4,9 C 9,3 C 8,0 km/h (2 Bft) 100,00 %
03.04.2016 10:09 9,3 C 73 % 1014,5 hPa 0,0 l/m 4,0 km/h (1 Bft) O-NO 60 0 min 0,000 mm 1,1 UV-I 290 W/m 4,7 C 9,3 C 6,4 km/h (2 Bft) 95,65 %
03.04.2016 10:10 9,3 C 74 % 1014,5 hPa 0,0 l/m 1,9 km/h (1 Bft) O-NO 60 0 min 0,000 mm 1,1 UV-I 283 W/m 4,9 C 9,3 C 3,2 km/h (1 Bft) 95,83 %
03.04.2016 10:11 9,3 C 74 % 1014,5 hPa 0,0 l/m 2,5 km/h (1 Bft) O-NO 60 0 min 0,000 mm 1,1 UV-I 277 W/m 4,9 C 9,3 C 3,2 km/h (1 Bft) 100,00 %
03.04.2016 10:12 9,3 C 74 % 1014,5 hPa 0,0 l/m 2,5 km/h (1 Bft) NO 46 0 min 0,000 mm 1,1 UV-I 279 W/m 4,9 C 9,3 C 4,8 km/h (1 Bft) 95,83 %
03.04.2016 10:13 9,3 C 77 % 1014,5 hPa 0,0 l/m 2,6 km/h (1 Bft) NO 42 0 min 0,000 mm 1,1 UV-I 275 W/m 5,5 C 9,3 C 3,2 km/h (1 Bft) 100,00 %
03.04.2016 10:14 9,4 C 76 % 1014,5 hPa 0,0 l/m 2,1 km/h (1 Bft) NO 42 0 min 0,000 mm 1,1 UV-I 278 W/m 5,4 C 9,4 C 4,8 km/h (1 Bft) 95,83 %
03.04.2016 10:15 9,5 C 76 % 1014,5 hPa 0,0 l/m 3,1 km/h (1 Bft) NO 42 0 min 0,000 mm 1,1 UV-I 282 W/m 5,5 C 9,5 C 4,8 km/h (1 Bft) 100,00 %
03.04.2016 10:16 9,5 C 74 % 1014,6 hPa 0,0 l/m 1,3 km/h (1 Bft) NO 42 0 min 0,000 mm 1,1 UV-I 281 W/m 5,1 C 9,5 C 1,6 km/h (1 Bft) 95,83 %
03.04.2016 10:17 9,5 C 73 % 1014,6 hPa 0,0 l/m 1,3 km/h (1 Bft) NO 50 0 min 0,000 mm 1,1 UV-I 278 W/m 4,9 C 9,5 C 3,2 km/h (1 Bft) 100,00 %
03.04.2016 10:18 9,4 C 73 % 1014,6 hPa 0,0 l/m 0,9 km/h (0 Bft) NO 50 0 min 0,000 mm 1,1 UV-I 278 W/m 4,8 C 9,4 C 3,2 km/h (1 Bft) 95,65 %
03.04.2016 10:19 9,4 C 73 % 1014,6 hPa 0,0 l/m 3,4 km/h (1 Bft) NO 50 0 min 0,000 mm 1,1 UV-I 282 W/m 4,8 C 9,4 C 4,8 km/h (1 Bft) 100,00 %
03.04.2016 10:20 9,5 C 74 % 1014,6 hPa 0,0 l/m 2,8 km/h (1 Bft) NO 50 0 min 0,000 mm 1,1 UV-I 298 W/m 5,1 C 9,5 C 4,8 km/h (1 Bft) 95,65 %
03.04.2016 10:21 9,5 C 74 % 1014,6 hPa 0,0 l/m 2,3 km/h (1 Bft) NO 50 0 min 0,000 mm 1,2 UV-I 305 W/m 5,1 C 9,5 C 3,2 km/h (1 Bft) 95,83 %
03.04.2016 10:22 9,5 C 73 % 1014,6 hPa 0,0 l/m 6,5 km/h (2 Bft) NO 40 0 min 0,000 mm 1,2 UV-I 304 W/m 4,9 C 9,5 C 8,0 km/h (2 Bft) 95,65 %
03.04.2016 10:23 9,6 C 76 % 1014,5 hPa 0,0 l/m 4,8 km/h (1 Bft) O-NO 59 0 min 0,000 mm 1,2 UV-I 302 W/m 5,6 C 9,6 C 6,4 km/h (2 Bft) 95,83 %
03.04.2016 10:24 9,6 C 74 % 1014,5 hPa 0,0 l/m 5,2 km/h (1 Bft) NO 40 0 min 0,000 mm 1,2 UV-I 304 W/m 5,2 C 9,6 C 6,4 km/h (2 Bft) 100,00 %
03.04.2016 10:25 9,7 C 73 % 1014,5 hPa 0,0 l/m 6,6 km/h (2 Bft) NO 41 0 min 0,000 mm 1,2 UV-I 306 W/m 5,1 C 9,6 C 9,7 km/h (2 Bft) 96,30 %
03.04.2016 10:26 9,7 C 75 % 1014,5 hPa 0,0 l/m 5,9 km/h (2 Bft) NO 44 0 min 0,000 mm 1,2 UV-I 302 W/m 5,5 C 9,7 C 8,0 km/h (2 Bft) 100,00 %
03.04.2016 10:27 9,7 C 75 % 1014,5 hPa 0,0 l/m 5,7 km/h (1 Bft) N-NO 32 0 min 0,000 mm 1,2 UV-I 305 W/m 5,5 C 9,7 C 8,0 km/h (2 Bft) 95,83 %
03.04.2016 10:28 9,8 C 73 % 1014,5 hPa 0,0 l/m 5,2 km/h (1 Bft) O-NO 59 0 min 0,000 mm 1,2 UV-I 306 W/m 5,2 C 9,8 C 6,4 km/h (2 Bft) 95,65 %
03.04.2016 10:29 9,7 C 72 % 1014,4 hPa 0,0 l/m 6,3 km/h (2 Bft) NO 54 0 min 0,000 mm 1,3 UV-I 305 W/m 4,9 C 9,7 C 8,0 km/h (2 Bft) 91,67 %
03.04.2016 10:30 9,7 C 74 % 1014,4 hPa 0,0 l/m 5,4 km/h (1 Bft) O-NO 59 0 min 0,000 mm 1,2 UV-I 289 W/m 5,3 C 9,7 C 8,0 km/h (2 Bft) 95,65 %
03.04.2016 10:31 9,7 C 72 % 1014,4 hPa 0,0 l/m 2,5 km/h (1 Bft) O-NO 59 0 min 0,000 mm 1,2 UV-I 264 W/m 4,9 C 9,7 C 4,8 km/h (1 Bft) 100,00 %
03.04.2016 10:32 9,7 C 73 % 1014,4 hPa 0,0 l/m 4,2 km/h (1 Bft) NO 52 0 min 0,000 mm 1,2 UV-I 261 W/m 5,1 C 9,7 C 6,4 km/h (2 Bft) 100,00 %
03.04.2016 10:33 9,7 C 73 % 1014,4 hPa 0,0 l/m 3,4 km/h (1 Bft) NO 51 0 min 0,000 mm 1,2 UV-I 263 W/m 5,1 C 9,7 C 4,8 km/h (1 Bft) 100,00 %
03.04.2016 10:34 9,7 C 73 % 1014,5 hPa 0,0 l/m 3,6 km/h (1 Bft) NO 51 0 min 0,000 mm 1,3 UV-I 271 W/m 5,1 C 9,7 C 4,8 km/h (1 Bft) 100,00 %
03.04.2016 10:35 9,7 C 74 % 1014,4 hPa 0,0 l/m 6,7 km/h (2 Bft) NO 53 0 min 0,000 mm 1,3 UV-I 324 W/m 5,3 C 9,5 C 8,0 km/h (2 Bft) 100,00 %
03.04.2016 10:36 9,8 C 74 % 1014,4 hPa 0,0 l/m 5,7 km/h (1 Bft) NO 55 1 min 0,000 mm 1,4 UV-I 358 W/m 5,4 C 9,8 C 6,4 km/h (2 Bft) 100,00 %
03.04.2016 10:37 9,9 C 74 % 1014,4 hPa 0,0 l/m 4,2 km/h (1 Bft) N-NO 23 1 min 0,000 mm 1,4 UV-I 364 W/m 5,5 C 9,9 C 4,8 km/h (1 Bft) 95,83 %
03.04.2016 10:38 10,0 C 75 % 1014,4 hPa 0,0 l/m 4,8 km/h (1 Bft) O-NO 57 1 min 0,000 mm 1,5 UV-I 401 W/m 5,8 C 10,0 C 6,4 km/h (2 Bft) 95,65 %
03.04.2016 10:39 10,1 C 74 % 1014,4 hPa 0,0 l/m 5,1 km/h (1 Bft) NO 46 1 min 0,000 mm 1,6 UV-I 451 W/m 5,7 C 10,1 C 6,4 km/h (2 Bft) 95,83 %
03.04.2016 10:40 10,1 C 73 % 1014,4 hPa 0,0 l/m 5,3 km/h (1 Bft) NO 51 1 min 0,000 mm 1,7 UV-I 461 W/m 5,5 C 10,1 C 6,4 km/h (2 Bft) 100,00 %
03.04.2016 10:41 10,2 C 73 % 1014,4 hPa 0,0 l/m 5,0 km/h (1 Bft) NO 42 1 min 0,000 mm 1,7 UV-I 476 W/m 5,6 C 10,2 C 8,0 km/h (2 Bft) 100,00 %
03.04.2016 10:42 10,2 C 73 % 1014,4 hPa 0,0 l/m 6,3 km/h (2 Bft) NO 38 1 min 0,000 mm 1,7 UV-I 505 W/m 5,6 C 10,2 C 8,0 km/h (2 Bft) 100,00 %
03.04.2016 10:43 10,4 C 75 % 1014,4 hPa 0,0 l/m 4,5 km/h (1 Bft) NO 38 1 min 0,000 mm 1,9 UV-I 534 W/m 6,2 C 10,4 C 6,4 km/h (2 Bft) 100,00 %
03.04.2016 10:44 10,4 C 73 % 1014,3 hPa 0,0 l/m 4,2 km/h (1 Bft) O-NO 57 1 min 0,000 mm 1,8 UV-I 504 W/m 5,8 C 10,4 C 6,4 km/h (2 Bft) 100,00 %
03.04.2016 10:45 10,4 C 71 % 1014,3 hPa 0,0 l/m 2,6 km/h (1 Bft) O-NO 57 1 min 0,000 mm 1,8 UV-I 485 W/m 5,4 C 10,4 C 3,2 km/h (1 Bft) 100,00 %
03.04.2016 10:46 10,5 C 72 % 1014,3 hPa 0,0 l/m 3,5 km/h (1 Bft) O-NO 57 1 min 0,000 mm 1,8 UV-I 477 W/m 5,7 C 10,5 C 4,8 km/h (1 Bft) 100,00 %
03.04.2016 10:47 10,4 C 71 % 1014,3 hPa 0,0 l/m 5,2 km/h (1 Bft) O-NO 69 1 min 0,000 mm 1,8 UV-I 477 W/m 5,4 C 10,4 C 9,7 km/h (2 Bft) 100,00 %
03.04.2016 10:48 10,4 C 71 % 1014,3 hPa 0,0 l/m 5,3 km/h (1 Bft) O-NO 75 1 min 0,000 mm 1,8 UV-I 471 W/m 5,4 C 10,4 C 8,0 km/h (2 Bft) 100,00 %
03.04.2016 10:49 10,5 C 71 % 1014,3 hPa 0,0 l/m 3,6 km/h (1 Bft) O-NO 78 1 min 0,000 mm 1,8 UV-I 496 W/m 5,5 C 10,5 C 4,8 km/h (1 Bft) 100,00 %
03.04.2016 10:50 10,6 C 69 % 1014,3 hPa 0,0 l/m 5,8 km/h (2 Bft) NO 49 1 min 0,000 mm 1,9 UV-I 516 W/m 5,2 C 10,6 C 8,0 km/h (2 Bft) 100,00 %
03.04.2016 10:51 10,6 C 70 % 1014,3 hPa 0,0 l/m 5,8 km/h (2 Bft) O-NO 76 1 min 0,000 mm 2,0 UV-I 558 W/m 5,4 C 10,6 C 8,0 km/h (2 Bft) 100,00 %
03.04.2016 10:52 10,7 C 71 % 1014,3 hPa 0,0 l/m 5,9 km/h (2 Bft) O-NO 59 1 min 0,000 mm 2,1 UV-I 581 W/m 5,7 C 10,7 C 9,7 km/h (2 Bft) 100,00 %
03.04.2016 10:53 10,7 C 70 % 1014,3 hPa 0,0 l/m 3,8 km/h (1 Bft) NO 55 1 min 0,000 mm 2,0 UV-I 546 W/m 5,5 C 10,7 C 6,4 km/h (2 Bft) 100,00 %
03.04.2016 10:54 10,7 C 69 % 1014,3 hPa 0,0 l/m 3,5 km/h (1 Bft) NO 39 1 min 0,000 mm 2,1 UV-I 575 W/m 5,2 C 10,7 C 6,4 km/h (2 Bft) 100,00 %
03.04.2016 10:55 10,8 C 74 % 1014,3 hPa 0,0 l/m 6,8 km/h (2 Bft) NO 49 1 min 0,000 mm 2,1 UV-I 584 W/m 6,4 C 10,5 C 8,0 km/h (2 Bft) 100,00 %
03.04.2016 10:56 10,9 C 72 % 1014,3 hPa 0,0 l/m 5,6 km/h (1 Bft) NO 43 1 min 0,000 mm 2,1 UV-I 585 W/m 6,1 C 10,9 C 8,0 km/h (2 Bft) 100,00 %
03.04.2016 10:57 11,0 C 71 % 1014,2 hPa 0,0 l/m 6,8 km/h (2 Bft) O-NO 58 1 min 0,000 mm 2,1 UV-I 587 W/m 5,9 C 10,7 C 8,0 km/h (2 Bft) 100,00 %
03.04.2016 10:58 11,1 C 72 % 1014,3 hPa 0,0 l/m 4,9 km/h (1 Bft) NO 44 1 min 0,000 mm 2,1 UV-I 589 W/m 6,2 C 11,1 C 6,4 km/h (2 Bft) 100,00 %
03.04.2016 10:59 11,2 C 72 % 1014,3 hPa 0,0 l/m 7,6 km/h (2 Bft) O-NO 67 1 min 0,000 mm 2,2 UV-I 591 W/m 6,3 C 10,4 C 9,7 km/h (2 Bft) 100,00 %
03.04.2016 11:00 11,2 C 73 % 1014,2 hPa 0,0 l/m 6,5 km/h (2 Bft) NO 54 1 min 0,000 mm 2,2 UV-I 589 W/m 6,5 C 11,2 C 9,7 km/h (2 Bft) 100,00 %
03.04.2016 11:01 11,3 C 70 % 1014,2 hPa 0,0 l/m 6,4 km/h (2 Bft) NO 49 1 min 0,203 mm 2,2 UV-I 582 W/m 6,0 C 11,3 C 8,0 km/h (2 Bft) 100,00 %
03.04.2016 11:02 11,4 C 71 % 1014,2 hPa 0,0 l/m 6,4 km/h (2 Bft) NO 43 1 min 0,000 mm 2,2 UV-I 584 W/m 6,3 C 11,4 C 8,0 km/h (2 Bft) 100,00 %
03.04.2016 11:03 11,5 C 71 % 1014,2 hPa 0,0 l/m 8,0 km/h (2 Bft) O 80 1 min 0,000 mm 2,2 UV-I 591 W/m 6,4 C 10,4 C 11,3 km/h (2 Bft) 100,00 %
03.04.2016 11:04 11,6 C 70 % 1014,2 hPa 0,0 l/m 7,8 km/h (2 Bft) NO 55 1 min 0,000 mm 2,2 UV-I 592 W/m 6,3 C 10,7 C 9,7 km/h (2 Bft) 100,00 %
03.04.2016 11:05 11,6 C 68 % 1014,2 hPa 0,0 l/m 7,8 km/h (2 Bft) O-NO 57 1 min 0,000 mm 2,2 UV-I 595 W/m 5,9 C 10,7 C 11,3 km/h (2 Bft) 100,00 %
03.04.2016 11:06 11,6 C 69 % 1014,1 hPa 0,0 l/m 7,4 km/h (2 Bft) NO 35 1 min 0,000 mm 2,2 UV-I 598 W/m 6,1 C 10,9 C 9,7 km/h (2 Bft) 95,65 %
03.04.2016 11:07 11,6 C 68 % 1014,2 hPa 0,0 l/m 7,3 km/h (2 Bft) NO 43 1 min 0,000 mm 2,2 UV-I 598 W/m 5,9 C 11,0 C 11,3 km/h (2 Bft) 100,00 %
03.04.2016 11:08 11,6 C 68 % 1014,1 hPa 0,0 l/m 9,8 km/h (2 Bft) O-NO 68 1 min 0,000 mm 2,2 UV-I 599 W/m 5,9 C 9,5 C 14,5 km/h (3 Bft) 95,65 %
03.04.2016 11:09 11,6 C 68 % 1014,1 hPa 0,0 l/m 11,5 km/h (2 Bft) NO 49 1 min 0,000 mm 2,3 UV-I 601 W/m 5,9 C 8,6 C 16,1 km/h (3 Bft) 100,00 %
03.04.2016 11:10 11,6 C 69 % 1014,1 hPa 0,0 l/m 8,4 km/h (2 Bft) O 80 1 min 0,000 mm 2,3 UV-I 603 W/m 6,1 C 10,3 C 11,3 km/h (2 Bft) 100,00 %
03.04.2016 11:11 11,6 C 69 % 1014,1 hPa 0,0 l/m 9,2 km/h (2 Bft) O-NO 76 1 min 0,000 mm 2,3 UV-I 605 W/m 6,1 C 9,8 C 11,3 km/h (2 Bft) 96,30 %
03.04.2016 11:12 11,7 C 70 % 1014,1 hPa 0,0 l/m 6,6 km/h (2 Bft) NO 51 1 min 0,000 mm 2,3 UV-I 607 W/m 6,4 C 11,6 C 11,3 km/h (2 Bft) 100,00 %
03.04.2016 11:13 11,7 C 70 % 1014,1 hPa 0,0 l/m 4,4 km/h (1 Bft) O-NO 69 1 min 0,000 mm 2,3 UV-I 609 W/m 6,4 C 11,7 C 6,4 km/h (2 Bft) 100,00 %
03.04.2016 11:14 11,8 C 72 % 1014,1 hPa 0,0 l/m 6,7 km/h (2 Bft) O 82 1 min 0,000 mm 2,3 UV-I 611 W/m 6,9 C 11,6 C 11,3 km/h (2 Bft) 95,65 %
03.04.2016 11:15 11,9 C 68 % 1014,1 hPa 0,0 l/m 8,0 km/h (2 Bft) O 79 1 min 0,000 mm 2,3 UV-I 610 W/m 6,2 C 10,8 C 11,3 km/h (2 Bft) 100,00 %
03.04.2016 11:16 11,9 C 68 % 1014,1 hPa 0,0 l/m 6,0 km/h (2 Bft) O 94 1 min 0,000 mm 2,3 UV-I 610 W/m 6,2 C 11,9 C 11,3 km/h (2 Bft) 95,65 %
03.04.2016 11:17 11,8 C 67 % 1014,1 hPa 0,0 l/m 2,1 km/h (1 Bft) N-NO 26 1 min 0,000 mm 2,3 UV-I 609 W/m 5,9 C 11,8 C 4,8 km/h (1 Bft) 100,00 %
03.04.2016 11:18 11,8 C 68 % 1014,1 hPa 0,0 l/m 3,3 km/h (1 Bft) O-NO 66 1 min 0,000 mm 2,4 UV-I 610 W/m 6,1 C 11,8 C 6,4 km/h (2 Bft) 100,00 %
03.04.2016 11:19 11,9 C 70 % 1014,1 hPa 0,0 l/m 3,3 km/h (1 Bft) O-NO 59 1 min 0,000 mm 2,4 UV-I 612 W/m 6,6 C 11,9 C 6,4 km/h (2 Bft) 100,00 %
03.04.2016 11:20 12,1 C 71 % 1014,1 hPa 0,0 l/m 2,9 km/h (1 Bft) NO 38 1 min 0,000 mm 2,4 UV-I 614 W/m 7,0 C 12,1 C 6,4 km/h (2 Bft) 100,00 %
03.04.2016 11:21 12,2 C 73 % 1014,2 hPa 0,0 l/m 3,3 km/h (1 Bft) N-NO 25 1 min 0,000 mm 2,4 UV-I 617 W/m 7,5 C 12,2 C 6,4 km/h (2 Bft) 95,65 %
03.04.2016 11:22 12,3 C 70 % 1014,2 hPa 0,0 l/m 2,6 km/h (1 Bft) N-NO 18 1 min 0,000 mm 2,4 UV-I 617 W/m 7,0 C 12,3 C 8,0 km/h (2 Bft) 100,00 %
03.04.2016 11:23 12,4 C 72 % 1014,2 hPa 0,0 l/m 3,2 km/h (1 Bft) N-NO 15 1 min 0,000 mm 2,4 UV-I 619 W/m 7,5 C 12,4 C 8,0 km/h (2 Bft) 100,00 %
03.04.2016 11:24 12,6 C 70 % 1014,2 hPa 0,0 l/m 4,6 km/h (1 Bft) N-NO 28 1 min 0,000 mm 2,4 UV-I 619 W/m 7,3 C 12,6 C 6,4 km/h (2 Bft) 100,00 %
03.04.2016 11:25 12,6 C 68 % 1014,2 hPa 0,0 l/m 0,8 km/h (0 Bft) N 5 1 min 0,000 mm 2,5 UV-I 620 W/m 6,9 C 12,6 C 1,6 km/h (1 Bft) 100,00 %
03.04.2016 11:26 12,6 C 67 % 1014,2 hPa 0,0 l/m 3,3 km/h (1 Bft) N-NO 24 1 min 0,000 mm 2,5 UV-I 622 W/m 6,6 C 12,6 C 6,4 km/h (2 Bft) 97,22 %
03.04.2016 11:27 12,6 C 68 % 1014,1 hPa 0,0 l/m 3,6 km/h (1 Bft) NO 36 1 min 0,000 mm 2,5 UV-I 624 W/m 6,9 C 12,6 C 4,8 km/h (1 Bft) 100,00 %
03.04.2016 11:28 12,7 C 70 % 1014,2 hPa 0,0 l/m 2,5 km/h (1 Bft) NO 37 1 min 0,000 mm 2,5 UV-I 624 W/m 7,4 C 12,7 C 4,8 km/h (1 Bft) 100,00 %
03.04.2016 11:29 12,7 C 67 % 1014,1 hPa 0,0 l/m 7,4 km/h (2 Bft) O 94 1 min 0,000 mm 2,6 UV-I 627 W/m 6,7 C 12,1 C 14,5 km/h (3 Bft) 100,00 %
03.04.2016 11:30 12,6 C 66 % 1014,1 hPa 0,0 l/m 9,1 km/h (2 Bft) O 82 1 min 0,000 mm 2,6 UV-I 631 W/m 6,4 C 10,9 C 12,9 km/h (3 Bft) 100,00 %
03.04.2016 11:31 12,5 C 66 % 1014,1 hPa 0,0 l/m 5,3 km/h (1 Bft) O-NO 66 1 min 0,000 mm 2,6 UV-I 633 W/m 6,3 C 12,5 C 6,4 km/h (2 Bft) 96,15 %
03.04.2016 11:32 12,4 C 66 % 1014,1 hPa 0,0 l/m 4,6 km/h (1 Bft) O-NO 57 1 min 0,000 mm 2,6 UV-I 637 W/m 6,2 C 12,4 C 6,4 km/h (2 Bft) 100,00 %
03.04.2016 11:33 12,3 C 67 % 1014,1 hPa 0,0 l/m 4,1 km/h (1 Bft) NO 37 1 min 0,000 mm 2,6 UV-I 642 W/m 6,4 C 12,3 C 6,4 km/h (2 Bft) 91,30 %
03.04.2016 11:34 12,3 C 67 % 1014,0 hPa 0,0 l/m 3,2 km/h (1 Bft) NO 37 1 min 0,000 mm 2,6 UV-I 643 W/m 6,4 C 12,3 C 4,8 km/h (1 Bft) 100,00 %
03.04.2016 11:35 12,3 C 65 % 1014,0 hPa 0,0 l/m 2,5 km/h (1 Bft) NO 36 1 min 0,000 mm 2,6 UV-I 645 W/m 5,9 C 12,3 C 3,2 km/h (1 Bft) 100,00 %
03.04.2016 11:36 12,4 C 68 % 1014,0 hPa 0,0 l/m 5,5 km/h (1 Bft) NO 51 1 min 0,000 mm 2,6 UV-I 646 W/m 6,7 C 12,4 C 6,4 km/h (2 Bft) 100,00 %
03.04.2016 11:37 12,6 C 68 % 1014,0 hPa 0,0 l/m 9,7 km/h (2 Bft) NO 41 1 min 0,000 mm 2,6 UV-I 648 W/m 6,9 C 10,6 C 12,9 km/h (3 Bft) 100,00 %
03.04.2016 11:38 12,7 C 68 % 1014,0 hPa 0,0 l/m 9,7 km/h (2 Bft) NO 56 1 min 0,000 mm 2,7 UV-I 647 W/m 6,9 C 10,7 C 14,5 km/h (3 Bft) 94,44 %
03.04.2016 11:39 12,7 C 65 % 1014,0 hPa 0,0 l/m 9,6 km/h (2 Bft) O-NO 63 1 min 0,000 mm 2,7 UV-I 649 W/m 6,3 C 10,8 C 14,5 km/h (3 Bft) 95,83 %
03.04.2016 11:40 12,7 C 65 % 1014,0 hPa 0,0 l/m 6,4 km/h (2 Bft) O-NO 57 1 min 0,000 mm 2,7 UV-I 650 W/m 6,3 C 12,7 C 12,9 km/h (3 Bft) 91,30 %
03.04.2016 11:41 12,7 C 67 % 1014,0 hPa 0,0 l/m 5,8 km/h (2 Bft) O-NO 75 1 min 0,000 mm 2,7 UV-I 650 W/m 6,7 C 12,7 C 8,0 km/h (2 Bft) 100,00 %
03.04.2016 11:42 12,7 C 66 % 1014,0 hPa 0,0 l/m 6,8 km/h (2 Bft) NO 48 1 min 0,000 mm 2,7 UV-I 644 W/m 6,5 C 12,5 C 9,7 km/h (2 Bft) 95,65 %
03.04.2016 11:43 12,7 C 66 % 1014,0 hPa 0,0 l/m 4,9 km/h (1 Bft) O-NO 66 1 min 0,000 mm 2,7 UV-I 641 W/m 6,5 C 12,7 C 6,4 km/h (2 Bft) 100,00 %
03.04.2016 11:44 12,8 C 65 % 1014,0 hPa 0,0 l/m 5,4 km/h (1 Bft) NO 34 1 min 0,000 mm 2,7 UV-I 654 W/m 6,4 C 12,8 C 8,0 km/h (2 Bft) 91,30 %
03.04.2016 11:45 12,8 C 67 % 1014,0 hPa 0,0 l/m 2,4 km/h (1 Bft) NO 34 1 min 0,000 mm 2,7 UV-I 654 W/m 6,8 C 12,8 C 6,4 km/h (2 Bft) 100,00 %
03.04.2016 11:46 12,9 C 68 % 1014,0 hPa 0,0 l/m 2,4 km/h (1 Bft) N-NO 14 1 min 0,000 mm 2,7 UV-I 652 W/m 7,1 C 12,9 C 3,2 km/h (1 Bft) 95,65 %
03.04.2016 11:47 13,0 C 68 % 1014,1 hPa 0,0 l/m 3,1 km/h (1 Bft) N-NO 31 1 min 0,000 mm 2,7 UV-I 652 W/m 7,2 C 13,0 C 4,8 km/h (1 Bft) 100,00 %
03.04.2016 11:48 13,1 C 67 % 1014,0 hPa 0,0 l/m 2,5 km/h (1 Bft) N-NO 28 1 min 0,000 mm 2,7 UV-I 654 W/m 7,1 C 13,1 C 6,4 km/h (2 Bft) 96,15 %
03.04.2016 11:49 13,0 C 65 % 1014,1 hPa 0,0 l/m 1,8 km/h (1 Bft) N-NO 28 1 min 0,000 mm 2,8 UV-I 661 W/m 6,6 C 13,0 C 4,8 km/h (1 Bft) 95,83 %
03.04.2016 11:50 13,0 C 65 % 1014,1 hPa 0,0 l/m 5,0 km/h (1 Bft) NO 56 1 min 0,000 mm 2,7 UV-I 654 W/m 6,6 C 13,0 C 8,0 km/h (2 Bft) 95,65 %
03.04.2016 11:51 13,1 C 66 % 1014,0 hPa 0,0 l/m 3,6 km/h (1 Bft) NO 36 1 min 0,000 mm 2,8 UV-I 655 W/m 6,9 C 13,1 C 8,0 km/h (2 Bft) 95,83 %
03.04.2016 11:52 13,2 C 68 % 1014,0 hPa 0,0 l/m 9,9 km/h (2 Bft) NO 42 1 min 0,000 mm 2,7 UV-I 634 W/m 7,4 C 11,2 C 14,5 km/h (3 Bft) 95,65 %
03.04.2016 11:53 13,2 C 65 % 1014,0 hPa 0,0 l/m 8,8 km/h (2 Bft) NO 34 1 min 0,000 mm 2,6 UV-I 579 W/m 6,8 C 11,8 C 11,3 km/h (2 Bft) 96,30 %
03.04.2016 11:54 13,2 C 66 % 1013,9 hPa 0,0 l/m 5,4 km/h (1 Bft) N-NO 18 1 min 0,000 mm 2,5 UV-I 583 W/m 7,0 C 13,2 C 9,7 km/h (2 Bft) 86,96 %
03.04.2016 11:55 13,2 C 68 % 1013,9 hPa 0,0 l/m 5,0 km/h (1 Bft) N-NO 13 1 min 0,000 mm 2,6 UV-I 590 W/m 7,4 C 13,2 C 8,0 km/h (2 Bft) 100,00 %
03.04.2016 11:56 13,2 C 69 % 1013,9 hPa 0,0 l/m 5,6 km/h (1 Bft) N-NO 17 1 min 0,000 mm 2,6 UV-I 577 W/m 7,6 C 13,2 C 8,0 km/h (2 Bft) 100,00 %
03.04.2016 11:57 13,3 C 69 % 1013,8 hPa 0,0 l/m 4,6 km/h (1 Bft) NO 53 1 min 0,000 mm 2,7 UV-I 606 W/m 7,7 C 13,3 C 8,0 km/h (2 Bft) 96,15 %
03.04.2016 11:58 13,4 C 68 % 1013,8 hPa 0,0 l/m 6,6 km/h (2 Bft) NO 54 1 min 0,000 mm 2,7 UV-I 624 W/m 7,6 C 13,3 C 9,7 km/h (2 Bft) 95,83 %
03.04.2016 11:59 13,4 C 67 % 1013,7 hPa 0,0 l/m 4,2 km/h (1 Bft) NO 41 1 min 0,000 mm 2,8 UV-I 631 W/m 7,4 C 13,4 C 6,4 km/h (2 Bft) 91,30 %
03.04.2016 12:00 13,4 C 66 % 1013,7 hPa 0,0 l/m 5,9 km/h (2 Bft) O-NO 57 1 min 0,000 mm 2,8 UV-I 630 W/m 7,2 C 13,4 C 9,7 km/h (2 Bft) 95,83 %
03.04.2016 12:01 13,4 C 67 % 1013,7 hPa 0,0 l/m 7,6 km/h (2 Bft) NO 40 1 min 0,330 mm 2,8 UV-I 630 W/m 7,4 C 12,7 C 9,7 km/h (2 Bft) 100,00 %
03.04.2016 12:02 13,4 C 65 % 1013,7 hPa 0,0 l/m 5,2 km/h (1 Bft) O-NO 62 1 min 0,000 mm 2,8 UV-I 638 W/m 7,0 C 13,4 C 8,0 km/h (2 Bft) 95,83 %
03.04.2016 12:03 13,4 C 64 % 1013,8 hPa 0,0 l/m 3,1 km/h (1 Bft) O-NO 59 1 min 0,000 mm 2,9 UV-I 662 W/m 6,7 C 13,4 C 4,8 km/h (1 Bft) 95,65 %
03.04.2016 12:04 13,3 C 65 % 1013,8 hPa 0,0 l/m 0,7 km/h (0 Bft) O-NO 59 1 min 0,000 mm 2,9 UV-I 674 W/m 6,9 C 13,3 C 1,6 km/h (1 Bft) 95,83 %
03.04.2016 12:05 13,4 C 64 % 1013,8 hPa 0,0 l/m 4,2 km/h (1 Bft) O-NO 68 1 min 0,000 mm 3,0 UV-I 673 W/m 6,7 C 13,4 C 9,7 km/h (2 Bft) 100,00 %
03.04.2016 12:06 13,6 C 65 % 1013,8 hPa 0,0 l/m 5,0 km/h (1 Bft) NO 39 1 min 0,000 mm 2,9 UV-I 625 W/m 7,1 C 13,6 C 8,0 km/h (2 Bft) 95,83 %
03.04.2016 12:07 13,7 C 67 % 1013,8 hPa 0,0 l/m 7,8 km/h (2 Bft) NO 51 1 min 0,000 mm 2,9 UV-I 630 W/m 7,7 C 12,9 C 9,7 km/h (2 Bft) 95,65 %
03.04.2016 12:08 13,8 C 67 % 1013,8 hPa 0,0 l/m 7,6 km/h (2 Bft) NO 49 1 min 0,000 mm 3,0 UV-I 649 W/m 7,8 C 13,1 C 9,7 km/h (2 Bft) 100,00 %
03.04.2016 12:09 13,9 C 66 % 1013,8 hPa 0,0 l/m 3,9 km/h (1 Bft) NO 44 1 min 0,000 mm 3,0 UV-I 670 W/m 7,7 C 13,9 C 8,0 km/h (2 Bft) 95,65 %
03.04.2016 12:10 14,1 C 67 % 1013,8 hPa 0,0 l/m 2,9 km/h (1 Bft) NO 34 1 min 0,000 mm 3,0 UV-I 686 W/m 8,1 C 14,1 C 8,0 km/h (2 Bft) 100,00 %
03.04.2016 12:11 14,2 C 68 % 1013,7 hPa 0,0 l/m 4,0 km/h (1 Bft) N 9 1 min 0,000 mm 3,0 UV-I 678 W/m 8,4 C 14,2 C 6,4 km/h (2 Bft) 96,15 %
03.04.2016 12:12 14,2 C 66 % 1013,7 hPa 0,0 l/m 3,1 km/h (1 Bft) N-NO 26 1 min 0,000 mm 3,0 UV-I 660 W/m 7,9 C 14,2 C 6,4 km/h (2 Bft) 100,00 %
03.04.2016 12:13 14,1 C 64 % 1013,7 hPa 0,0 l/m 6,6 km/h (2 Bft) N-NO 31 1 min 0,000 mm 2,9 UV-I 636 W/m 7,4 C 14,0 C 12,9 km/h (3 Bft) 95,65 %
03.04.2016 12:14 14,0 C 66 % 1013,6 hPa 0,0 l/m 5,6 km/h (1 Bft) N 5 1 min 0,000 mm 3,0 UV-I 644 W/m 7,7 C 14,0 C 8,0 km/h (2 Bft) 100,00 %
03.04.2016 12:15 14,0 C 65 % 1013,7 hPa 0,0 l/m 7,2 km/h (2 Bft) O-NO 68 1 min 0,000 mm 3,1 UV-I 676 W/m 7,5 C 13,5 C 12,9 km/h (3 Bft) 100,00 %
03.04.2016 12:16 14,1 C 64 % 1013,7 hPa 0,0 l/m 8,2 km/h (2 Bft) O-NO 61 1 min 0,000 mm 3,1 UV-I 684 W/m 7,4 C 13,0 C 11,3 km/h (2 Bft) 95,83 %
03.04.2016 12:17 14,0 C 63 % 1013,7 hPa 0,0 l/m 9,9 km/h (2 Bft) O-NO 75 1 min 0,000 mm 3,1 UV-I 694 W/m 7,1 C 12,1 C 12,9 km/h (3 Bft) 100,00 %
03.04.2016 12:18 13,9 C 62 % 1013,6 hPa 0,0 l/m 7,8 km/h (2 Bft) O-NO 61 1 min 0,000 mm 3,1 UV-I 702 W/m 6,7 C 13,1 C 9,7 km/h (2 Bft) 100,00 %
03.04.2016 12:19 13,9 C 65 % 1013,6 hPa 0,0 l/m 8,4 km/h (2 Bft) O-NO 74 1 min 0,000 mm 3,1 UV-I 680 W/m 7,4 C 12,7 C 14,5 km/h (3 Bft) 100,00 %
03.04.2016 12:20 13,9 C 63 % 1013,6 hPa 0,0 l/m 8,2 km/h (2 Bft) O 82 1 min 0,000 mm 3,0 UV-I 658 W/m 7,0 C 12,8 C 12,9 km/h (3 Bft) 100,00 %
03.04.2016 12:21 13,9 C 63 % 1013,6 hPa 0,0 l/m 5,8 km/h (2 Bft) O-NO 63 1 min 0,000 mm 3,0 UV-I 673 W/m 7,0 C 13,9 C 8,0 km/h (2 Bft) 100,00 %
03.04.2016 12:22 14,0 C 64 % 1013,6 hPa 0,0 l/m 3,6 km/h (1 Bft) N-NO 29 1 min 0,000 mm 3,1 UV-I 682 W/m 7,3 C 14,0 C 4,8 km/h (1 Bft) 100,00 %
03.04.2016 12:23 14,1 C 64 % 1013,6 hPa 0,0 l/m 7,2 km/h (2 Bft) O-NO 59 1 min 0,000 mm 3,1 UV-I 683 W/m 7,4 C 13,6 C 12,9 km/h (3 Bft) 100,00 %
03.04.2016 12:24 14,2 C 65 % 1013,6 hPa 0,0 l/m 5,6 km/h (1 Bft) NO 52 1 min 0,000 mm 3,1 UV-I 699 W/m 7,7 C 14,2 C 8,0 km/h (2 Bft) 95,65 %
03.04.2016 12:25 14,3 C 63 % 1013,7 hPa 0,0 l/m 2,7 km/h (1 Bft) NO 44 1 min 0,000 mm 3,2 UV-I 716 W/m 7,4 C 14,3 C 3,2 km/h (1 Bft) 100,00 %
03.04.2016 12:26 14,4 C 65 % 1013,6 hPa 0,0 l/m 7,2 km/h (2 Bft) NO 47 1 min 0,000 mm 3,1 UV-I 710 W/m 7,9 C 13,9 C 11,3 km/h (2 Bft) 100,00 %
03.04.2016 12:27 14,4 C 63 % 1013,6 hPa 0,0 l/m 7,8 km/h (2 Bft) O-NO 57 1 min 0,000 mm 2,9 UV-I 663 W/m 7,4 C 13,6 C 9,7 km/h (2 Bft) 100,00 %
03.04.2016 12:28 14,4 C 65 % 1013,6 hPa 0,0 l/m 9,0 km/h (2 Bft) O-NO 60 1 min 0,000 mm 2,6 UV-I 501 W/m 7,9 C 12,9 C 12,9 km/h (3 Bft) 100,00 %
03.04.2016 12:29 14,4 C 64 % 1013,6 hPa 0,0 l/m 8,4 km/h (2 Bft) O 82 1 min 0,000 mm 2,4 UV-I 471 W/m 7,7 C 13,3 C 14,5 km/h (3 Bft) 100,00 %
03.04.2016 12:30 14,3 C 61 % 1013,6 hPa 0,0 l/m 6,6 km/h (2 Bft) O 86 1 min 0,000 mm 2,5 UV-I 456 W/m 6,9 C 14,2 C 11,3 km/h (2 Bft) 95,65 %
03.04.2016 12:31 14,2 C 62 % 1013,5 hPa 0,0 l/m 6,6 km/h (2 Bft) NO 48 1 min 0,000 mm 2,3 UV-I 444 W/m 7,0 C 14,1 C 8,0 km/h (2 Bft) 95,83 %
03.04.2016 12:32 14,2 C 62 % 1013,5 hPa 0,0 l/m 4,9 km/h (1 Bft) O-NO 69 1 min 0,000 mm 2,3 UV-I 447 W/m 7,0 C 14,2 C 6,4 km/h (2 Bft) 95,65 %
03.04.2016 12:33 14,1 C 62 % 1013,6 hPa 0,0 l/m 4,8 km/h (1 Bft) O 88 1 min 0,000 mm 2,5 UV-I 487 W/m 6,9 C 14,1 C 6,4 km/h (2 Bft) 100,00 %
03.04.2016 12:34 14,1 C 63 % 1013,6 hPa 0,0 l/m 6,4 km/h (2 Bft) O-NO 74 1 min 0,000 mm 2,6 UV-I 556 W/m 7,2 C 14,1 C 8,0 km/h (2 Bft) 95,65 %
03.04.2016 12:35 14,1 C 63 % 1013,5 hPa 0,0 l/m 4,8 km/h (1 Bft) O 93 1 min 0,000 mm 2,9 UV-I 622 W/m 7,2 C 14,1 C 8,0 km/h (2 Bft) 100,00 %
03.04.2016 12:36 14,1 C 62 % 1013,5 hPa 0,0 l/m 3,6 km/h (1 Bft) NO 51 1 min 0,000 mm 3,0 UV-I 639 W/m 6,9 C 14,1 C 4,8 km/h (1 Bft) 100,00 %
03.04.2016 12:37 14,1 C 63 % 1013,5 hPa 0,0 l/m 4,4 km/h (1 Bft) O-NO 74 1 min 0,000 mm 3,1 UV-I 698 W/m 7,2 C 14,1 C 11,3 km/h (2 Bft) 95,83 %
03.04.2016 12:38 14,3 C 66 % 1013,5 hPa 0,0 l/m 5,9 km/h (2 Bft) O-NO 59 1 min 0,000 mm 3,3 UV-I 751 W/m 8,0 C 14,3 C 8,0 km/h (2 Bft) 95,65 %
03.04.2016 12:39 14,4 C 63 % 1013,5 hPa 0,0 l/m 6,2 km/h (2 Bft) O-NO 60 1 min 0,000 mm 3,3 UV-I 757 W/m 7,4 C 14,4 C 8,0 km/h (2 Bft) 100,00 %
03.04.2016 12:40 14,6 C 64 % 1013,5 hPa 0,0 l/m 5,1 km/h (1 Bft) O-NO 65 1 min 0,000 mm 3,3 UV-I 762 W/m 7,9 C 14,6 C 8,0 km/h (2 Bft) 100,00 %
03.04.2016 12:41 14,6 C 61 % 1013,5 hPa 0,0 l/m 1,7 km/h (1 Bft) O-NO 65 1 min 0,000 mm 3,4 UV-I 759 W/m 7,2 C 14,6 C 3,2 km/h (1 Bft) 100,00 %
03.04.2016 12:42 14,6 C 61 % 1013,5 hPa 0,0 l/m 3,2 km/h (1 Bft) O-NO 58 1 min 0,000 mm 3,3 UV-I 741 W/m 7,2 C 14,6 C 6,4 km/h (2 Bft) 100,00 %
03.04.2016 12:43 14,6 C 60 % 1013,5 hPa 0,0 l/m 2,2 km/h (1 Bft) NO 42 1 min 0,000 mm 3,3 UV-I 737 W/m 6,9 C 14,6 C 3,2 km/h (1 Bft) 100,00 %
03.04.2016 12:44 14,7 C 63 % 1013,5 hPa 0,0 l/m 4,8 km/h (1 Bft) NO 40 1 min 0,000 mm 3,3 UV-I 722 W/m 7,7 C 14,7 C 6,4 km/h (2 Bft) 100,00 %
03.04.2016 12:45 14,8 C 60 % 1013,5 hPa 0,0 l/m 3,6 km/h (1 Bft) O-NO 59 1 min 0,000 mm 3,3 UV-I 708 W/m 7,1 C 14,8 C 6,4 km/h (2 Bft) 95,65 %
03.04.2016 12:46 14,9 C 61 % 1013,5 hPa 0,0 l/m 5,0 km/h (1 Bft) NO 42 1 min 0,000 mm 3,3 UV-I 716 W/m 7,4 C 14,9 C 9,7 km/h (2 Bft) 100,00 %
03.04.2016 12:47 15,0 C 64 % 1013,5 hPa 0,0 l/m 7,1 km/h (2 Bft) O-NO 61 1 min 0,000 mm 3,3 UV-I 712 W/m 8,2 C 14,6 C 8,0 km/h (2 Bft) 100,00 %
03.04.2016 12:48 15,0 C 58 % 1013,5 hPa 0,0 l/m 4,6 km/h (1 Bft) O-NO 70 1 min 0,000 mm 3,3 UV-I 717 W/m 6,8 C 15,0 C 6,4 km/h (2 Bft) 100,00 %
03.04.2016 12:49 15,0 C 58 % 1013,5 hPa 0,0 l/m 1,6 km/h (1 Bft) O-NO 70 1 min 0,000 mm 3,3 UV-I 717 W/m 6,8 C 15,0 C 3,2 km/h (1 Bft) 92,31 %
03.04.2016 12:50 15,1 C 60 % 1013,4 hPa 0,0 l/m 3,4 km/h (1 Bft) O-NO 71 1 min 0,000 mm 3,3 UV-I 720 W/m 7,4 C 15,1 C 4,8 km/h (1 Bft) 100,00 %
03.04.2016 12:51 15,1 C 60 % 1013,4 hPa 0,0 l/m 5,5 km/h (1 Bft) O 91 1 min 0,000 mm 3,4 UV-I 723 W/m 7,4 C 15,1 C 11,3 km/h (2 Bft) 95,65 %
03.04.2016 12:52 15,0 C 59 % 1013,4 hPa 0,0 l/m 2,5 km/h (1 Bft) O 96 1 min 0,000 mm 3,3 UV-I 716 W/m 7,1 C 15,0 C 4,8 km/h (1 Bft) 100,00 %
03.04.2016 12:53 15,1 C 61 % 1013,4 hPa 0,0 l/m 6,2 km/h (2 Bft) NO 55 1 min 0,000 mm 3,3 UV-I 704 W/m 7,6 C 15,1 C 9,7 km/h (2 Bft) 100,00 %
03.04.2016 12:54 15,1 C 60 % 1013,4 hPa 0,0 l/m 3,5 km/h (1 Bft) NO 47 1 min 0,000 mm 3,3 UV-I 698 W/m 7,4 C 15,1 C 6,4 km/h (2 Bft) 100,00 %
03.04.2016 12:55 15,2 C 63 % 1013,4 hPa 0,0 l/m 2,7 km/h (1 Bft) O 91 1 min 0,000 mm 3,3 UV-I 696 W/m 8,2 C 15,2 C 4,8 km/h (1 Bft) 100,00 %
03.04.2016 12:56 15,1 C 60 % 1013,4 hPa 0,0 l/m 6,2 km/h (2 Bft) O-NO 71 1 min 0,000 mm 3,3 UV-I 692 W/m 7,4 C 15,1 C 8,0 km/h (2 Bft) 100,00 %
03.04.2016 12:57 15,2 C 60 % 1013,3 hPa 0,0 l/m 12,0 km/h (2 Bft) N-NO 22 1 min 0,000 mm 3,3 UV-I 685 W/m 7,5 C 12,5 C 16,1 km/h (3 Bft) 100,00 %
03.04.2016 12:58 15,3 C 62 % 1013,3 hPa 0,0 l/m 4,2 km/h (1 Bft) N-NO 19 1 min 0,000 mm 3,3 UV-I 688 W/m 8,1 C 15,3 C 6,4 km/h (2 Bft) 100,00 %
03.04.2016 12:59 15,4 C 63 % 1013,2 hPa 0,0 l/m 2,9 km/h (1 Bft) N-NO 17 1 min 0,000 mm 3,3 UV-I 690 W/m 8,4 C 15,4 C 4,8 km/h (1 Bft) 100,00 %
03.04.2016 13:00 15,6 C 62 % 1013,2 hPa 0,0 l/m 3,5 km/h (1 Bft) NO 38 1 min 0,000 mm 3,3 UV-I 696 W/m 8,3 C 15,6 C 11,3 km/h (2 Bft) 95,65 %
03.04.2016 13:01 15,7 C 62 % 1013,2 hPa 0,0 l/m 9,0 km/h (2 Bft) NO 44 1 min 0,356 mm 3,2 UV-I 682 W/m 8,4 C 14,3 C 14,5 km/h (3 Bft) 95,83 %
03.04.2016 13:02 15,7 C 60 % 1013,2 hPa 0,0 l/m 11,0 km/h (2 Bft) O-NO 73 1 min 0,000 mm 3,2 UV-I 656 W/m 8,0 C 13,5 C 14,5 km/h (3 Bft) 100,00 %
03.04.2016 13:03 15,7 C 61 % 1013,2 hPa 0,0 l/m 13,0 km/h (3 Bft) O-NO 71 1 min 0,000 mm 3,1 UV-I 642 W/m 8,2 C 12,7 C 16,1 km/h (3 Bft) 100,00 %
03.04.2016 13:04 15,7 C 60 % 1013,2 hPa 0,0 l/m 11,5 km/h (2 Bft) O-NO 63 1 min 0,000 mm 3,2 UV-I 675 W/m 8,0 C 13,3 C 14,5 km/h (3 Bft) 100,00 %
03.04.2016 13:05 15,7 C 57 % 1013,2 hPa 0,0 l/m 9,5 km/h (2 Bft) O 79 1 min 0,000 mm 3,3 UV-I 686 W/m 7,2 C 14,1 C 12,9 km/h (3 Bft) 100,00 %
03.04.2016 13:06 15,6 C 57 % 1013,1 hPa 0,0 l/m 12,3 km/h (3 Bft) NO 53 1 min 0,000 mm 3,2 UV-I 680 W/m 7,1 C 12,8 C 17,7 km/h (3 Bft) 100,00 %
03.04.2016 13:07 15,6 C 57 % 1013,1 hPa 0,0 l/m 5,7 km/h (1 Bft) O-NO 71 1 min 0,000 mm 3,2 UV-I 686 W/m 7,1 C 15,6 C 9,7 km/h (2 Bft) 100,00 %
03.04.2016 13:08 15,6 C 58 % 1013,1 hPa 0,0 l/m 6,3 km/h (2 Bft) O-NO 69 1 min 0,000 mm 3,2 UV-I 676 W/m 7,4 C 15,6 C 11,3 km/h (2 Bft) 100,00 %
03.04.2016 13:09 15,6 C 58 % 1013,1 hPa 0,0 l/m 7,4 km/h (2 Bft) O-NO 71 1 min 0,000 mm 3,2 UV-I 695 W/m 7,4 C 15,1 C 12,9 km/h (3 Bft) 100,00 %
03.04.2016 13:10 15,6 C 58 % 1013,1 hPa 0,0 l/m 9,5 km/h (2 Bft) NO 46 1 min 0,000 mm 3,2 UV-I 696 W/m 7,4 C 14,0 C 14,5 km/h (3 Bft) 100,00 %
03.04.2016 13:11 15,6 C 57 % 1013,1 hPa 0,0 l/m 11,7 km/h (2 Bft) O-NO 61 1 min 0,000 mm 3,2 UV-I 685 W/m 7,1 C 13,1 C 16,1 km/h (3 Bft) 100,00 %
03.04.2016 13:12 15,6 C 58 % 1013,1 hPa 0,0 l/m 11,8 km/h (2 Bft) O-NO 76 1 min 0,000 mm 3,2 UV-I 688 W/m 7,4 C 13,0 C 16,1 km/h (3 Bft) 100,00 %
03.04.2016 13:13 15,6 C 57 % 1013,1 hPa 0,0 l/m 9,0 km/h (2 Bft) NO 41 1 min 0,000 mm 3,2 UV-I 673 W/m 7,1 C 14,2 C 14,5 km/h (3 Bft) 100,00 %
03.04.2016 13:14 15,7 C 57 % 1013,0 hPa 0,0 l/m 5,2 km/h (1 Bft) O 81 1 min 0,000 mm 3,2 UV-I 681 W/m 7,2 C 15,7 C 8,0 km/h (2 Bft) 100,00 %
03.04.2016 13:15 15,8 C 60 % 1013,0 hPa 0,0 l/m 4,5 km/h (1 Bft) N-NO 32 1 min 0,000 mm 3,2 UV-I 673 W/m 8,1 C 15,8 C 8,0 km/h (2 Bft) 95,83 %
03.04.2016 13:16 15,9 C 63 % 1013,0 hPa 0,0 l/m 8,2 km/h (2 Bft) O-NO 68 1 min 0,000 mm 3,1 UV-I 668 W/m 8,9 C 14,9 C 12,9 km/h (3 Bft) 100,00 %
03.04.2016 13:17 16,0 C 56 % 1012,9 hPa 0,0 l/m 7,1 km/h (2 Bft) O-NO 69 1 min 0,000 mm 3,2 UV-I 678 W/m 7,2 C 15,6 C 14,5 km/h (3 Bft) 100,00 %
03.04.2016 13:18 16,0 C 58 % 1012,9 hPa 0,0 l/m 12,1 km/h (2 Bft) O-NO 64 1 min 0,000 mm 3,2 UV-I 685 W/m 7,7 C 13,4 C 16,1 km/h (3 Bft) 100,00 %
03.04.2016 13:19 16,0 C 57 % 1012,9 hPa 0,0 l/m 11,7 km/h (2 Bft) O-NO 65 1 min 0,000 mm 3,2 UV-I 696 W/m 7,5 C 13,5 C 14,5 km/h (3 Bft) 100,00 %
03.04.2016 13:20 15,9 C 56 % 1012,9 hPa 0,0 l/m 8,3 km/h (2 Bft) NO 55 1 min 0,000 mm 3,2 UV-I 695 W/m 7,1 C 14,9 C 11,3 km/h (2 Bft) 100,00 %
03.04.2016 13:21 15,9 C 55 % 1012,9 hPa 0,0 l/m 9,3 km/h (2 Bft) NO 52 1 min 0,000 mm 3,2 UV-I 690 W/m 6,9 C 14,4 C 16,1 km/h (3 Bft) 100,00 %
03.04.2016 13:22 15,9 C 56 % 1012,9 hPa 0,0 l/m 11,0 km/h (2 Bft) O-NO 69 1 min 0,000 mm 3,2 UV-I 710 W/m 7,1 C 13,7 C 14,5 km/h (3 Bft) 100,00 %
03.04.2016 13:23 15,8 C 58 % 1012,9 hPa 0,0 l/m 7,4 km/h (2 Bft) NO 49 1 min 0,000 mm 3,3 UV-I 723 W/m 7,6 C 15,3 C 11,3 km/h (2 Bft) 100,00 %
03.04.2016 13:24 15,9 C 60 % 1012,9 hPa 0,0 l/m 7,0 km/h (2 Bft) NO 46 1 min 0,000 mm 3,2 UV-I 714 W/m 8,1 C 15,6 C 9,7 km/h (2 Bft) 100,00 %
03.04.2016 13:25 16,0 C 57 % 1012,9 hPa 0,0 l/m 8,0 km/h (2 Bft) O-NO 67 1 min 0,000 mm 3,2 UV-I 704 W/m 7,5 C 15,2 C 16,1 km/h (3 Bft) 100,00 %
03.04.2016 13:27 15,9 C 57 % 1012,9 hPa 0,0 l/m 6,8 km/h (2 Bft) NO 53 2 min 0,000 mm 3,1 UV-I 668 W/m 7,4 C 15,7 C 8,0 km/h (2 Bft) 100,00 %
03.04.2016 13:28 15,9 C 58 % 1012,9 hPa 0,0 l/m 6,8 km/h (2 Bft) O-NO 63 1 min 0,000 mm 3,1 UV-I 655 W/m 7,6 C 15,7 C 9,7 km/h (2 Bft) 96,77 %
03.04.2016 13:29 16,0 C 58 % 1012,9 hPa 0,0 l/m 7,0 km/h (2 Bft) O 82 1 min 0,000 mm 3,0 UV-I 635 W/m 7,7 C 15,7 C 11,3 km/h (2 Bft) 87,50 %
03.04.2016 13:30 16,1 C 56 % 1012,9 hPa 0,0 l/m 9,2 km/h (2 Bft) O-NO 65 1 min 0,000 mm 2,9 UV-I 602 W/m 7,3 C 14,7 C 12,9 km/h (3 Bft) 100,00 %
03.04.2016 13:31 16,1 C 56 % 1012,9 hPa 0,0 l/m 7,8 km/h (2 Bft) O-NO 72 1 min 0,000 mm 2,9 UV-I 603 W/m 7,3 C 15,4 C 11,3 km/h (2 Bft) 95,83 %
03.04.2016 13:32 16,0 C 56 % 1012,9 hPa 0,0 l/m 8,8 km/h (2 Bft) NO 45 1 min 0,000 mm 2,9 UV-I 612 W/m 7,2 C 14,8 C 12,9 km/h (3 Bft) 95,65 %
03.04.2016 13:33 16,0 C 58 % 1012,9 hPa 0,0 l/m 7,9 km/h (2 Bft) NO 42 1 min 0,000 mm 2,8 UV-I 592 W/m 7,7 C 15,2 C 12,9 km/h (3 Bft) 95,83 %
03.04.2016 13:34 16,1 C 56 % 1012,9 hPa 0,0 l/m 7,7 km/h (2 Bft) O-NO 74 1 min 0,000 mm 2,7 UV-I 566 W/m 7,3 C 15,4 C 11,3 km/h (2 Bft) 100,00 %
03.04.2016 13:35 16,0 C 56 % 1012,9 hPa 0,0 l/m 6,0 km/h (2 Bft) O 80 1 min 0,000 mm 2,7 UV-I 559 W/m 7,2 C 16,0 C 11,3 km/h (2 Bft) 95,83 %
03.04.2016 13:36 15,9 C 56 % 1012,9 hPa 0,0 l/m 3,3 km/h (1 Bft) O 96 1 min 0,000 mm 2,7 UV-I 548 W/m 7,1 C 15,9 C 6,4 km/h (2 Bft) 100,00 %
03.04.2016 13:37 15,8 C 56 % 1012,8 hPa 0,0 l/m 5,4 km/h (1 Bft) O-SO 102 1 min 0,000 mm 2,6 UV-I 543 W/m 7,0 C 15,8 C 12,9 km/h (3 Bft) 95,83 %
03.04.2016 13:38 15,8 C 59 % 1012,8 hPa 0,0 l/m 7,2 km/h (2 Bft) O-NO 72 1 min 0,000 mm 2,5 UV-I 517 W/m 7,8 C 15,4 C 12,9 km/h (3 Bft) 100,00 %
03.04.2016 13:39 15,8 C 59 % 1012,8 hPa 0,0 l/m 7,8 km/h (2 Bft) O-NO 64 1 min 0,000 mm 2,5 UV-I 491 W/m 7,8 C 15,0 C 12,9 km/h (3 Bft) 96,15 %
03.04.2016 13:40 16,0 C 58 % 1012,8 hPa 0,0 l/m 7,1 km/h (2 Bft) O-NO 61 1 min 0,000 mm 2,5 UV-I 487 W/m 7,7 C 15,6 C 9,7 km/h (2 Bft) 100,00 %
03.04.2016 13:41 16,1 C 59 % 1012,8 hPa 0,0 l/m 6,5 km/h (2 Bft) O-NO 78 1 min 0,000 mm 2,4 UV-I 522 W/m 8,1 C 16,1 C 9,7 km/h (2 Bft) 95,65 %
03.04.2016 13:42 16,1 C 57 % 1012,7 hPa 0,0 l/m 6,0 km/h (2 Bft) O-NO 57 1 min 0,000 mm 2,3 UV-I 460 W/m 7,6 C 16,1 C 8,0 km/h (2 Bft) 95,83 %
03.04.2016 13:43 16,1 C 57 % 1012,7 hPa 0,0 l/m 8,4 km/h (2 Bft) NO 52 1 min 0,000 mm 2,3 UV-I 480 W/m 7,6 C 15,1 C 12,9 km/h (3 Bft) 100,00 %
03.04.2016 13:44 16,2 C 59 % 1012,8 hPa 0,0 l/m 6,0 km/h (2 Bft) NO 34 1 min 0,000 mm 2,3 UV-I 448 W/m 8,2 C 16,2 C 8,0 km/h (2 Bft) 95,83 %
03.04.2016 13:45 16,2 C 59 % 1012,7 hPa 0,0 l/m 5,6 km/h (1 Bft) NO 46 1 min 0,000 mm 2,2 UV-I 450 W/m 8,2 C 16,2 C 8,0 km/h (2 Bft) 100,00 %
03.04.2016 13:46 16,1 C 55 % 1012,7 hPa 0,0 l/m 5,5 km/h (1 Bft) O-NO 76 1 min 0,000 mm 2,3 UV-I 474 W/m 7,1 C 16,1 C 8,0 km/h (2 Bft) 95,83 %
03.04.2016 13:47 16,0 C 57 % 1012,7 hPa 0,0 l/m 5,3 km/h (1 Bft) O-NO 67 1 min 0,000 mm 2,3 UV-I 460 W/m 7,5 C 16,0 C 9,7 km/h (2 Bft) 100,00 %
03.04.2016 13:48 16,1 C 60 % 1012,7 hPa 0,0 l/m 6,1 km/h (2 Bft) NO 56 1 min 0,000 mm 2,2 UV-I 462 W/m 8,3 C 16,1 C 8,0 km/h (2 Bft) 95,83 %
03.04.2016 13:49 16,1 C 58 % 1012,7 hPa 0,0 l/m 3,7 km/h (1 Bft) O-NO 64 1 min 0,000 mm 2,2 UV-I 432 W/m 7,8 C 16,1 C 6,4 km/h (2 Bft) 95,65 %
03.04.2016 13:50 16,1 C 57 % 1012,6 hPa 0,0 l/m 6,0 km/h (2 Bft) NO 35 1 min 0,000 mm 2,2 UV-I 436 W/m 7,6 C 16,1 C 9,7 km/h (2 Bft) 100,00 %
03.04.2016 13:51 16,2 C 60 % 1012,6 hPa 0,0 l/m 6,6 km/h (2 Bft) O 96 1 min 0,000 mm 2,2 UV-I 441 W/m 8,4 C 16,1 C 9,7 km/h (2 Bft) 96,15 %
03.04.2016 13:52 16,3 C 61 % 1012,6 hPa 0,0 l/m 7,4 km/h (2 Bft) O-NO 64 1 min 0,000 mm 2,2 UV-I 433 W/m 8,8 C 15,8 C 12,9 km/h (3 Bft) 100,00 %
03.04.2016 13:53 16,3 C 58 % 1012,6 hPa 0,0 l/m 8,2 km/h (2 Bft) O-NO 66 1 min 0,000 mm 2,1 UV-I 429 W/m 8,0 C 15,4 C 12,9 km/h (3 Bft) 95,83 %
03.04.2016 13:54 16,4 C 57 % 1012,6 hPa 0,0 l/m 6,4 km/h (2 Bft) O-NO 69 1 min 0,000 mm 2,1 UV-I 398 W/m 7,9 C 16,4 C 8,0 km/h (2 Bft) 100,00 %
03.04.2016 13:55 16,3 C 58 % 1012,6 hPa 0,0 l/m 5,8 km/h (2 Bft) O-NO 61 0 min 0,000 mm 2,1 UV-I 396 W/m 8,0 C 16,3 C 11,3 km/h (2 Bft) 95,83 %
03.04.2016 13:56 16,3 C 57 % 1012,6 hPa 0,0 l/m 6,9 km/h (2 Bft) O-NO 72 0 min 0,000 mm 2,1 UV-I 397 W/m 7,8 C 16,0 C 8,0 km/h (2 Bft) 100,00 %
03.04.2016 13:57 16,2 C 55 % 1012,6 hPa 0,0 l/m 3,6 km/h (1 Bft) O-NO 70 1 min 0,000 mm 2,1 UV-I 400 W/m 7,2 C 16,2 C 4,8 km/h (1 Bft) 95,83 %
03.04.2016 13:58 16,2 C 60 % 1012,6 hPa 0,0 l/m 3,2 km/h (1 Bft) NO 55 1 min 0,000 mm 2,1 UV-I 403 W/m 8,4 C 16,2 C 4,8 km/h (1 Bft) 95,65 %
03.04.2016 13:59 16,2 C 60 % 1012,5 hPa 0,0 l/m 5,5 km/h (1 Bft) NO 42 1 min 0,000 mm 2,1 UV-I 403 W/m 8,4 C 16,2 C 8,0 km/h (2 Bft) 100,00 %
03.04.2016 14:00 16,2 C 58 % 1012,5 hPa 0,0 l/m 5,2 km/h (1 Bft) NO 40 1 min 0,000 mm 2,1 UV-I 414 W/m 7,9 C 16,2 C 8,0 km/h (2 Bft) 91,30 %
03.04.2016 14:01 16,2 C 59 % 1012,5 hPa 0,0 l/m 6,5 km/h (2 Bft) NO 46 1 min 0,355 mm 2,1 UV-I 415 W/m 8,2 C 16,2 C 9,7 km/h (2 Bft) 100,00 %
03.04.2016 14:02 16,2 C 62 % 1012,6 hPa 0,0 l/m 4,7 km/h (1 Bft) O-NO 75 1 min 0,000 mm 2,1 UV-I 419 W/m 8,9 C 16,2 C 8,0 km/h (2 Bft) 100,00 %
03.04.2016 14:03 16,3 C 59 % 1012,5 hPa 0,0 l/m 6,6 km/h (2 Bft) O-NO 74 1 min 0,000 mm 2,1 UV-I 425 W/m 8,3 C 16,2 C 8,0 km/h (2 Bft) 100,00 %
03.04.2016 14:04 16,3 C 57 % 1012,5 hPa 0,0 l/m 6,1 km/h (2 Bft) O-NO 78 1 min 0,000 mm 2,1 UV-I 424 W/m 7,8 C 16,3 C 8,0 km/h (2 Bft) 91,30 %
03.04.2016 14:05 16,4 C 58 % 1012,5 hPa 0,0 l/m 6,0 km/h (2 Bft) O-NO 74 1 min 0,000 mm 2,2 UV-I 434 W/m 8,1 C 16,4 C 9,7 km/h (2 Bft) 100,00 %
03.04.2016 14:06 16,4 C 57 % 1012,5 hPa 0,0 l/m 5,0 km/h (1 Bft) NO 45 1 min 0,000 mm 2,2 UV-I 473 W/m 7,9 C 16,4 C 6,4 km/h (2 Bft) 95,65 %
03.04.2016 14:07 16,4 C 57 % 1012,5 hPa 0,0 l/m 5,6 km/h (1 Bft) NO 40 1 min 0,000 mm 2,3 UV-I 489 W/m 7,9 C 16,4 C 6,4 km/h (2 Bft) 96,30 %
03.04.2016 14:08 16,5 C 61 % 1012,5 hPa 0,0 l/m 4,5 km/h (1 Bft) NO 40 1 min 0,000 mm 2,3 UV-I 507 W/m 9,0 C 16,5 C 6,4 km/h (2 Bft) 95,65 %
03.04.2016 14:09 16,5 C 56 % 1012,5 hPa 0,0 l/m 3,5 km/h (1 Bft) O-NO 57 1 min 0,000 mm 2,3 UV-I 506 W/m 7,7 C 16,5 C 8,0 km/h (2 Bft) 100,00 %
03.04.2016 14:10 16,6 C 58 % 1012,4 hPa 0,0 l/m 6,0 km/h (2 Bft) O-NO 71 1 min 0,000 mm 2,3 UV-I 477 W/m 8,3 C 16,6 C 8,0 km/h (2 Bft) 90,91 %
03.04.2016 14:11 16,6 C 56 % 1012,5 hPa 0,0 l/m 6,5 km/h (2 Bft) O-NO 68 1 min 0,000 mm 2,2 UV-I 475 W/m 7,8 C 16,6 C 8,0 km/h (2 Bft) 100,00 %
03.04.2016 14:12 16,6 C 57 % 1012,4 hPa 0,0 l/m 7,4 km/h (2 Bft) NO 55 1 min 0,000 mm 2,3 UV-I 498 W/m 8,0 C 16,1 C 9,7 km/h (2 Bft) 96,15 %
03.04.2016 14:13 16,6 C 58 % 1012,4 hPa 0,0 l/m 6,2 km/h (2 Bft) O-NO 63 1 min 0,000 mm 2,3 UV-I 504 W/m 8,3 C 16,6 C 8,0 km/h (2 Bft) 95,83 %
03.04.2016 14:14 16,7 C 59 % 1012,4 hPa 0,0 l/m 4,5 km/h (1 Bft) O-NO 58 1 min 0,000 mm 2,3 UV-I 500 W/m 8,6 C 16,7 C 6,4 km/h (2 Bft) 100,00 %
03.04.2016 14:15 16,6 C 56 % 1012,3 hPa 0,0 l/m 6,1 km/h (2 Bft) O-NO 59 1 min 0,000 mm 2,3 UV-I 522 W/m 7,8 C 16,6 C 8,0 km/h (2 Bft) 100,00 %
03.04.2016 14:16 16,6 C 57 % 1012,3 hPa 0,0 l/m 5,0 km/h (1 Bft) O-NO 57 1 min 0,000 mm 2,4 UV-I 532 W/m 8,0 C 16,6 C 6,4 km/h (2 Bft) 95,65 %
03.04.2016 14:17 16,7 C 58 % 1012,3 hPa 0,0 l/m 6,0 km/h (2 Bft) O-NO 77 1 min 0,000 mm 2,4 UV-I 527 W/m 8,4 C 16,7 C 9,7 km/h (2 Bft) 100,00 %
03.04.2016 14:18 16,7 C 57 % 1012,2 hPa 0,0 l/m 6,1 km/h (2 Bft) NO 34 1 min 0,000 mm 2,3 UV-I 534 W/m 8,1 C 16,7 C 9,7 km/h (2 Bft) 95,65 %
03.04.2016 14:19 16,7 C 56 % 1012,3 hPa 0,0 l/m 6,6 km/h (2 Bft) NO 44 1 min 0,000 mm 2,3 UV-I 522 W/m 7,9 C 16,6 C 14,5 km/h (3 Bft) 100,00 %
03.04.2016 14:20 16,8 C 59 % 1012,3 hPa 0,0 l/m 8,9 km/h (2 Bft) NO 42 1 min 0,000 mm 2,3 UV-I 510 W/m 8,7 C 15,6 C 14,5 km/h (3 Bft) 100,00 %
03.04.2016 14:21 16,8 C 57 % 1012,3 hPa 0,0 l/m 6,2 km/h (2 Bft) NO 47 1 min 0,000 mm 2,3 UV-I 538 W/m 8,2 C 16,8 C 8,0 km/h (2 Bft) 100,00 %
03.04.2016 14:22 16,8 C 60 % 1012,3 hPa 0,0 l/m 5,4 km/h (1 Bft) NO 45 1 min 0,000 mm 2,4 UV-I 546 W/m 9,0 C 16,8 C 6,4 km/h (2 Bft) 100,00 %
03.04.2016 14:23 16,8 C 59 % 1012,3 hPa 0,0 l/m 6,8 km/h (2 Bft) NO 46 1 min 0,000 mm 2,4 UV-I 529 W/m 8,7 C 16,6 C 12,9 km/h (3 Bft) 100,00 %
03.04.2016 14:24 16,9 C 57 % 1012,3 hPa 0,0 l/m 7,2 km/h (2 Bft) NO 50 1 min 0,000 mm 2,4 UV-I 530 W/m 8,3 C 16,5 C 9,7 km/h (2 Bft) 100,00 %
03.04.2016 14:25 16,9 C 55 % 1012,3 hPa 0,0 l/m 8,6 km/h (2 Bft) O-NO 66 1 min 0,000 mm 2,4 UV-I 543 W/m 7,8 C 15,8 C 11,3 km/h (2 Bft) 96,15 %
03.04.2016 14:26 16,9 C 56 % 1012,2 hPa 0,0 l/m 8,0 km/h (2 Bft) O 95 1 min 0,000 mm 2,4 UV-I 558 W/m 8,1 C 16,1 C 11,3 km/h (2 Bft) 100,00 %
03.04.2016 14:27 16,8 C 54 % 1012,3 hPa 0,0 l/m 6,5 km/h (2 Bft) O-NO 72 1 min 0,000 mm 2,4 UV-I 567 W/m 7,4 C 16,8 C 8,0 km/h (2 Bft) 100,00 %
03.04.2016 14:28 16,8 C 56 % 1012,2 hPa 0,0 l/m 7,2 km/h (2 Bft) NO 45 1 min 0,000 mm 2,4 UV-I 558 W/m 8,0 C 16,4 C 12,9 km/h (3 Bft) 100,00 %
03.04.2016 14:29 16,8 C 56 % 1012,2 hPa 0,0 l/m 8,9 km/h (2 Bft) NO 53 1 min 0,000 mm 2,4 UV-I 551 W/m 8,0 C 15,6 C 11,3 km/h (2 Bft) 95,65 %
03.04.2016 14:30 16,9 C 57 % 1012,2 hPa 0,0 l/m 10,9 km/h (2 Bft) O-NO 57 1 min 0,000 mm 2,4 UV-I 554 W/m 8,3 C 14,9 C 14,5 km/h (3 Bft) 95,83 %
03.04.2016 14:31 16,9 C 56 % 1012,2 hPa 0,0 l/m 7,9 km/h (2 Bft) NO 54 1 min 0,000 mm 2,4 UV-I 547 W/m 8,1 C 16,1 C 11,3 km/h (2 Bft) 100,00 %
03.04.2016 14:32 16,9 C 56 % 1012,2 hPa 0,0 l/m 5,3 km/h (1 Bft) N-NO 31 1 min 0,000 mm 2,3 UV-I 515 W/m 8,1 C 16,9 C 8,0 km/h (2 Bft) 95,83 %
03.04.2016 14:33 16,9 C 54 % 1012,2 hPa 0,0 l/m 4,4 km/h (1 Bft) O-NO 71 1 min 0,000 mm 2,1 UV-I 453 W/m 7,5 C 16,9 C 6,4 km/h (2 Bft) 100,00 %
03.04.2016 14:34 16,8 C 55 % 1012,1 hPa 0,0 l/m 1,7 km/h (1 Bft) O-NO 71 1 min 0,000 mm 1,9 UV-I 409 W/m 7,7 C 16,8 C 3,2 km/h (1 Bft) 100,00 %
03.04.2016 14:35 16,8 C 55 % 1012,1 hPa 0,0 l/m 3,4 km/h (1 Bft) O-NO 64 0 min 0,000 mm 1,8 UV-I 372 W/m 7,7 C 16,8 C 4,8 km/h (1 Bft) 100,00 %
03.04.2016 14:36 16,8 C 56 % 1012,1 hPa 0,0 l/m 6,0 km/h (2 Bft) NO 40 0 min 0,000 mm 1,8 UV-I 368 W/m 8,0 C 16,8 C 9,7 km/h (2 Bft) 100,00 %
03.04.2016 14:37 16,8 C 60 % 1012,1 hPa 0,0 l/m 5,8 km/h (2 Bft) NO 34 0 min 0,000 mm 1,8 UV-I 364 W/m 9,0 C 16,8 C 6,4 km/h (2 Bft) 100,00 %
03.04.2016 14:38 16,8 C 59 % 1012,1 hPa 0,0 l/m 6,6 km/h (2 Bft) N-NO 32 0 min 0,000 mm 1,7 UV-I 352 W/m 8,7 C 16,7 C 9,7 km/h (2 Bft) 95,65 %
03.04.2016 14:39 16,8 C 60 % 1012,0 hPa 0,0 l/m 5,1 km/h (1 Bft) N-NO 28 0 min 0,000 mm 1,7 UV-I 349 W/m 9,0 C 16,8 C 6,4 km/h (2 Bft) 100,00 %
03.04.2016 14:40 16,8 C 60 % 1012,0 hPa 0,0 l/m 5,9 km/h (2 Bft) O-NO 68 0 min 0,000 mm 1,7 UV-I 342 W/m 9,0 C 16,8 C 9,7 km/h (2 Bft) 100,00 %
03.04.2016 14:41 16,8 C 59 % 1012,0 hPa 0,0 l/m 6,2 km/h (2 Bft) O-NO 70 0 min 0,000 mm 1,6 UV-I 338 W/m 8,7 C 16,8 C 8,0 km/h (2 Bft) 100,00 %
03.04.2016 14:42 16,8 C 58 % 1012,0 hPa 0,0 l/m 7,3 km/h (2 Bft) O-NO 61 0 min 0,000 mm 1,6 UV-I 335 W/m 8,5 C 16,3 C 12,9 km/h (3 Bft) 95,65 %
03.04.2016 14:43 16,9 C 56 % 1012,0 hPa 0,0 l/m 6,5 km/h (2 Bft) O 80 0 min 0,000 mm 1,6 UV-I 332 W/m 8,1 C 16,9 C 9,7 km/h (2 Bft) 100,00 %
03.04.2016 14:44 16,8 C 55 % 1012,0 hPa 0,0 l/m 7,1 km/h (2 Bft) O 89 0 min 0,000 mm 1,6 UV-I 329 W/m 7,7 C 16,4 C 8,0 km/h (2 Bft) 100,00 %
03.04.2016 14:45 16,8 C 57 % 1012,0 hPa 0,0 l/m 6,4 km/h (2 Bft) O-NO 70 0 min 0,000 mm 1,6 UV-I 331 W/m 8,2 C 16,8 C 8,0 km/h (2 Bft) 100,00 %
03.04.2016 14:46 16,8 C 57 % 1012,0 hPa 0,0 l/m 6,8 km/h (2 Bft) O-NO 65 0 min 0,000 mm 1,6 UV-I 338 W/m 8,2 C 16,6 C 11,3 km/h (2 Bft) 100,00 %
03.04.2016 14:47 16,9 C 58 % 1012,0 hPa 0,0 l/m 8,1 km/h (2 Bft) O-NO 71 0 min 0,000 mm 1,6 UV-I 343 W/m 8,6 C 16,0 C 9,7 km/h (2 Bft) 100,00 %
03.04.2016 14:48 16,9 C 58 % 1012,0 hPa 0,0 l/m 8,9 km/h (2 Bft) O 94 0 min 0,000 mm 1,6 UV-I 346 W/m 8,6 C 15,7 C 12,9 km/h (3 Bft) 95,65 %
03.04.2016 14:49 16,9 C 57 % 1011,9 hPa 0,0 l/m 5,2 km/h (1 Bft) O-NO 71 0 min 0,000 mm 1,6 UV-I 360 W/m 8,3 C 16,9 C 6,4 km/h (2 Bft) 100,00 %
03.04.2016 14:50 16,9 C 58 % 1012,0 hPa 0,0 l/m 4,7 km/h (1 Bft) O-NO 70 1 min 0,000 mm 1,7 UV-I 380 W/m 8,6 C 16,9 C 6,4 km/h (2 Bft) 100,00 %
03.04.2016 14:51 17,0 C 56 % 1011,9 hPa 0,0 l/m 5,0 km/h (1 Bft) NO 50 1 min 0,000 mm 1,8 UV-I 409 W/m 8,2 C 17,0 C 6,4 km/h (2 Bft) 100,00 %
03.04.2016 14:52 16,9 C 56 % 1012,0 hPa 0,0 l/m 4,0 km/h (1 Bft) O-NO 67 1 min 0,000 mm 1,9 UV-I 456 W/m 8,1 C 16,9 C 6,4 km/h (2 Bft) 100,00 %
03.04.2016 14:53 16,9 C 55 % 1011,9 hPa 0,0 l/m 4,3 km/h (1 Bft) O-NO 59 1 min 0,000 mm 1,8 UV-I 437 W/m 7,8 C 16,9 C 6,4 km/h (2 Bft) 100,00 %
03.04.2016 14:54 17,0 C 57 % 1011,9 hPa 0,0 l/m 4,3 km/h (1 Bft) O 85 1 min 0,000 mm 1,8 UV-I 430 W/m 8,4 C 17,0 C 4,8 km/h (1 Bft) 100,00 %
03.04.2016 14:55 17,0 C 55 % 1011,9 hPa 0,0 l/m 3,2 km/h (1 Bft) O 85 1 min 0,000 mm 1,8 UV-I 421 W/m 7,9 C 17,0 C 4,8 km/h (1 Bft) 100,00 %
03.04.2016 14:56 17,1 C 59 % 1011,9 hPa 0,0 l/m 5,1 km/h (1 Bft) NO 55 1 min 0,000 mm 1,8 UV-I 412 W/m 9,0 C 17,1 C 9,7 km/h (2 Bft) 100,00 %
03.04.2016 14:57 17,1 C 57 % 1011,9 hPa 0,0 l/m 7,4 km/h (2 Bft) O-NO 61 1 min 0,000 mm 1,7 UV-I 406 W/m 8,5 C 16,6 C 9,7 km/h (2 Bft) 100,00 %
03.04.2016 14:58 17,2 C 56 % 1011,9 hPa 0,0 l/m 9,1 km/h (2 Bft) O-NO 64 1 min 0,000 mm 1,7 UV-I 401 W/m 8,3 C 15,9 C 14,5 km/h (3 Bft) 100,00 %
03.04.2016 14:59 17,2 C 55 % 1011,9 hPa 0,0 l/m 9,1 km/h (2 Bft) O-NO 64 1 min 0,000 mm 1,7 UV-I 398 W/m 8,1 C 15,9 C 12,9 km/h (3 Bft) 95,65 %
03.04.2016 15:00 17,2 C 56 % 1011,9 hPa 0,0 l/m 6,4 km/h (2 Bft) O-NO 58 1 min 0,000 mm 1,7 UV-I 396 W/m 8,3 C 17,2 C 8,0 km/h (2 Bft) 100,00 %
03.04.2016 15:01 17,2 C 54 % 1011,9 hPa 0,0 l/m 6,1 km/h (2 Bft) O 80 1 min 0,280 mm 1,7 UV-I 389 W/m 7,8 C 17,2 C 9,7 km/h (2 Bft) 95,65 %
03.04.2016 15:02 17,2 C 54 % 1011,9 hPa 0,0 l/m 8,9 km/h (2 Bft) O-NO 68 1 min 0,000 mm 1,7 UV-I 389 W/m 7,8 C 16,0 C 14,5 km/h (3 Bft) 100,00 %
03.04.2016 15:03 17,2 C 55 % 1011,9 hPa 0,0 l/m 7,2 km/h (2 Bft) O 98 1 min 0,000 mm 1,7 UV-I 398 W/m 8,1 C 16,8 C 9,7 km/h (2 Bft) 100,00 %
03.04.2016 15:04 17,2 C 55 % 1011,9 hPa 0,0 l/m 7,0 km/h (2 Bft) NO 36 1 min 0,000 mm 1,7 UV-I 392 W/m 8,1 C 16,9 C 9,7 km/h (2 Bft) 100,00 %
03.04.2016 15:05 17,2 C 56 % 1011,9 hPa 0,0 l/m 5,1 km/h (1 Bft) NO 37 1 min 0,000 mm 1,6 UV-I 384 W/m 8,3 C 17,2 C 6,4 km/h (2 Bft) 95,65 %
03.04.2016 15:06 17,1 C 56 % 1011,9 hPa 0,0 l/m 5,0 km/h (1 Bft) N-NO 24 1 min 0,000 mm 1,6 UV-I 387 W/m 8,3 C 17,1 C 6,4 km/h (2 Bft) 100,00 %
03.04.2016 15:07 17,2 C 57 % 1011,9 hPa 0,0 l/m 4,4 km/h (1 Bft) NO 37 1 min 0,000 mm 1,6 UV-I 390 W/m 8,6 C 17,2 C 6,4 km/h (2 Bft) 95,65 %
03.04.2016 15:08 17,2 C 59 % 1011,9 hPa 0,0 l/m 5,2 km/h (1 Bft) NO 43 1 min 0,000 mm 1,6 UV-I 386 W/m 9,1 C 17,2 C 8,0 km/h (2 Bft) 100,00 %
03.04.2016 15:09 17,2 C 58 % 1011,9 hPa 0,0 l/m 6,0 km/h (2 Bft) NO 42 1 min 0,000 mm 1,6 UV-I 384 W/m 8,9 C 17,2 C 9,7 km/h (2 Bft) 100,00 %
03.04.2016 15:10 17,3 C 55 % 1011,9 hPa 0,0 l/m 5,0 km/h (1 Bft) O-NO 59 1 min 0,000 mm 1,6 UV-I 383 W/m 8,2 C 17,3 C 8,0 km/h (2 Bft) 100,00 %
03.04.2016 15:11 17,3 C 57 % 1011,9 hPa 0,0 l/m 7,0 km/h (2 Bft) NO 55 1 min 0,000 mm 1,6 UV-I 381 W/m 8,7 C 17,0 C 9,7 km/h (2 Bft) 95,65 %
03.04.2016 15:12 17,3 C 56 % 1011,9 hPa 0,0 l/m 7,2 km/h (2 Bft) O-NO 65 1 min 0,000 mm 1,6 UV-I 384 W/m 8,4 C 16,9 C 11,3 km/h (2 Bft) 100,00 %
03.04.2016 15:13 17,3 C 55 % 1011,9 hPa 0,0 l/m 5,7 km/h (1 Bft) O-NO 69 1 min 0,000 mm 1,6 UV-I 383 W/m 8,2 C 17,3 C 6,4 km/h (2 Bft) 100,00 %
03.04.2016 15:14 17,3 C 54 % 1011,9 hPa 0,0 l/m 4,0 km/h (1 Bft) O-NO 77 1 min 0,000 mm 1,6 UV-I 387 W/m 7,9 C 17,3 C 6,4 km/h (2 Bft) 100,00 %
03.04.2016 15:15 17,3 C 56 % 1011,9 hPa 0,0 l/m 3,6 km/h (1 Bft) O-NO 68 1 min 0,000 mm 1,6 UV-I 388 W/m 8,4 C 17,3 C 4,8 km/h (1 Bft) 100,00 %
03.04.2016 15:16 17,3 C 53 % 1011,9 hPa 0,0 l/m 3,4 km/h (1 Bft) O 88 1 min 0,000 mm 1,6 UV-I 396 W/m 7,6 C 17,3 C 6,4 km/h (2 Bft) 100,00 %
03.04.2016 15:17 17,3 C 54 % 1011,9 hPa 0,0 l/m 4,4 km/h (1 Bft) N-NO 32 1 min 0,000 mm 1,6 UV-I 399 W/m 7,9 C 17,3 C 9,7 km/h (2 Bft) 95,65 %
03.04.2016 15:18 17,4 C 56 % 1011,9 hPa 0,0 l/m 6,1 km/h (2 Bft) O-NO 60 1 min 0,000 mm 1,6 UV-I 403 W/m 8,5 C 17,4 C 9,7 km/h (2 Bft) 100,00 %
03.04.2016 15:19 17,4 C 54 % 1011,8 hPa 0,0 l/m 6,4 km/h (2 Bft) NO 45 1 min 0,000 mm 1,6 UV-I 404 W/m 8,0 C 17,4 C 9,7 km/h (2 Bft) 100,00 %
03.04.2016 15:20 17,4 C 54 % 1011,8 hPa 0,0 l/m 5,7 km/h (1 Bft) NO 49 1 min 0,000 mm 1,6 UV-I 397 W/m 8,0 C 17,4 C 8,0 km/h (2 Bft) 100,00 %
03.04.2016 15:21 17,5 C 53 % 1011,9 hPa 0,0 l/m 5,4 km/h (1 Bft) NO 51 1 min 0,000 mm 1,6 UV-I 396 W/m 7,8 C 17,5 C 8,0 km/h (2 Bft) 95,83 %
03.04.2016 15:22 17,5 C 53 % 1011,8 hPa 0,0 l/m 6,7 km/h (2 Bft) NO 51 1 min 0,000 mm 1,6 UV-I 399 W/m 7,8 C 17,4 C 8,0 km/h (2 Bft) 91,30 %
03.04.2016 15:23 17,4 C 55 % 1011,8 hPa 0,0 l/m 5,1 km/h (1 Bft) N-NO 24 1 min 0,000 mm 1,6 UV-I 414 W/m 8,3 C 17,4 C 6,4 km/h (2 Bft) 100,00 %
03.04.2016 15:24 17,4 C 56 % 1011,7 hPa 0,0 l/m 7,2 km/h (2 Bft) NO 41 1 min 0,000 mm 1,6 UV-I 418 W/m 8,5 C 17,0 C 9,7 km/h (2 Bft) 91,30 %
03.04.2016 15:25 17,4 C 55 % 1011,8 hPa 0,0 l/m 5,9 km/h (2 Bft) O-NO 63 1 min 0,000 mm 1,6 UV-I 413 W/m 8,3 C 17,4 C 8,0 km/h (2 Bft) 100,00 %
03.04.2016 15:26 17,5 C 57 % 1011,8 hPa 0,0 l/m 5,4 km/h (1 Bft) NO 36 1 min 0,000 mm 1,6 UV-I 421 W/m 8,9 C 17,5 C 9,7 km/h (2 Bft) 92,86 %
03.04.2016 15:27 17,6 C 55 % 1011,7 hPa 0,0 l/m 6,0 km/h (2 Bft) O-NO 66 1 min 0,000 mm 1,6 UV-I 421 W/m 8,5 C 17,6 C 8,0 km/h (2 Bft) 100,00 %
03.04.2016 15:28 17,6 C 55 % 1011,7 hPa 0,0 l/m 5,2 km/h (1 Bft) NO 40 1 min 0,000 mm 1,6 UV-I 420 W/m 8,5 C 17,6 C 8,0 km/h (2 Bft) 95,65 %
03.04.2016 15:29 17,7 C 54 % 1011,6 hPa 0,0 l/m 7,5 km/h (2 Bft) O-NO 58 1 min 0,000 mm 1,6 UV-I 410 W/m 8,3 C 17,2 C 11,3 km/h (2 Bft) 100,00 %
03.04.2016 15:30 17,7 C 55 % 1011,6 hPa 0,0 l/m 6,6 km/h (2 Bft) N-NO 30 1 min 0,000 mm 1,6 UV-I 415 W/m 8,5 C 17,6 C 11,3 km/h (2 Bft) 95,65 %
03.04.2016 15:31 17,7 C 54 % 1011,7 hPa 0,0 l/m 8,0 km/h (2 Bft) NO 47 1 min 0,000 mm 1,6 UV-I 422 W/m 8,3 C 16,9 C 9,7 km/h (2 Bft) 96,30 %
03.04.2016 15:32 17,7 C 54 % 1011,6 hPa 0,0 l/m 5,8 km/h (2 Bft) NO 54 1 min 0,000 mm 1,6 UV-I 420 W/m 8,3 C 17,7 C 8,0 km/h (2 Bft) 95,65 %
03.04.2016 15:33 17,6 C 54 % 1011,6 hPa 0,0 l/m 6,4 km/h (2 Bft) O-NO 59 1 min 0,000 mm 1,6 UV-I 420 W/m 8,2 C 17,6 C 8,0 km/h (2 Bft) 95,83 %
03.04.2016 15:34 17,6 C 53 % 1011,7 hPa 0,0 l/m 5,6 km/h (1 Bft) O-NO 78 1 min 0,000 mm 1,6 UV-I 428 W/m 7,9 C 17,6 C 8,0 km/h (2 Bft) 100,00 %
03.04.2016 15:35 17,6 C 54 % 1011,7 hPa 0,0 l/m 9,4 km/h (2 Bft) O 80 1 min 0,000 mm 1,6 UV-I 427 W/m 8,2 C 16,2 C 11,3 km/h (2 Bft) 95,83 %
03.04.2016 15:36 17,6 C 54 % 1011,6 hPa 0,0 l/m 6,9 km/h (2 Bft) O 79 1 min 0,000 mm 1,6 UV-I 439 W/m 8,2 C 17,4 C 11,3 km/h (2 Bft) 95,83 %
03.04.2016 15:37 17,6 C 54 % 1011,7 hPa 0,0 l/m 5,5 km/h (1 Bft) O-NO 67 1 min 0,000 mm 1,6 UV-I 475 W/m 8,2 C 17,6 C 6,4 km/h (2 Bft) 92,31 %
03.04.2016 15:38 17,6 C 55 % 1011,6 hPa 0,0 l/m 5,4 km/h (1 Bft) O 80 1 min 0,000 mm 1,7 UV-I 487 W/m 8,5 C 17,6 C 6,4 km/h (2 Bft) 100,00 %
03.04.2016 15:39 17,7 C 53 % 1011,7 hPa 0,0 l/m 3,9 km/h (1 Bft) O 92 1 min 0,000 mm 1,6 UV-I 476 W/m 8,0 C 17,7 C 6,4 km/h (2 Bft) 95,65 %
03.04.2016 15:40 17,7 C 55 % 1011,6 hPa 0,0 l/m 6,0 km/h (2 Bft) O-NO 69 1 min 0,000 mm 1,6 UV-I 448 W/m 8,5 C 17,7 C 8,0 km/h (2 Bft) 100,00 %
03.04.2016 15:41 17,7 C 56 % 1011,6 hPa 0,0 l/m 8,1 km/h (2 Bft) O-NO 65 1 min 0,000 mm 1,6 UV-I 464 W/m 8,8 C 16,9 C 9,7 km/h (2 Bft) 96,55 %
03.04.2016 15:42 17,8 C 54 % 1011,7 hPa 0,0 l/m 6,9 km/h (2 Bft) NO 48 1 min 0,000 mm 1,7 UV-I 496 W/m 8,4 C 17,6 C 9,7 km/h (2 Bft) 95,83 %
03.04.2016 15:43 17,8 C 54 % 1011,6 hPa 0,0 l/m 3,3 km/h (1 Bft) O-NO 71 1 min 0,000 mm 1,7 UV-I 507 W/m 8,4 C 17,8 C 4,8 km/h (1 Bft) 100,00 %
03.04.2016 15:44 17,8 C 54 % 1011,6 hPa 0,0 l/m 6,2 km/h (2 Bft) O-NO 62 1 min 0,000 mm 1,7 UV-I 504 W/m 8,4 C 17,8 C 14,5 km/h (3 Bft) 95,83 %
03.04.2016 15:45 17,8 C 55 % 1011,6 hPa 0,0 l/m 8,1 km/h (2 Bft) O-NO 63 1 min 0,000 mm 1,6 UV-I 480 W/m 8,6 C 17,0 C 11,3 km/h (2 Bft) 100,00 %
03.04.2016 15:46 17,8 C 54 % 1011,6 hPa 0,0 l/m 8,9 km/h (2 Bft) NO 54 1 min 0,000 mm 1,5 UV-I 439 W/m 8,4 C 16,7 C 12,9 km/h (3 Bft) 95,83 %
03.04.2016 15:47 17,9 C 54 % 1011,6 hPa 0,0 l/m 7,6 km/h (2 Bft) O-NO 66 1 min 0,000 mm 1,5 UV-I 430 W/m 8,5 C 17,3 C 14,5 km/h (3 Bft) 100,00 %
03.04.2016 15:48 17,9 C 55 % 1011,6 hPa 0,0 l/m 12,7 km/h (3 Bft) O 80 1 min 0,000 mm 1,5 UV-I 414 W/m 8,7 C 15,4 C 16,1 km/h (3 Bft) 95,83 %
03.04.2016 15:49 17,9 C 54 % 1011,6 hPa 0,0 l/m 8,8 km/h (2 Bft) O-NO 76 1 min 0,000 mm 1,4 UV-I 372 W/m 8,5 C 16,8 C 12,9 km/h (3 Bft) 100,00 %
03.04.2016 15:50 17,9 C 53 % 1011,6 hPa 0,0 l/m 10,0 km/h (2 Bft) O 83 1 min 0,000 mm 1,3 UV-I 335 W/m 8,2 C 16,3 C 12,9 km/h (3 Bft) 96,15 %
03.04.2016 15:51 17,9 C 55 % 1011,6 hPa 0,0 l/m 6,2 km/h (2 Bft) O-NO 68 1 min 0,000 mm 1,3 UV-I 316 W/m 8,7 C 17,9 C 8,0 km/h (2 Bft) 95,83 %
03.04.2016 15:52 17,8 C 53 % 1011,6 hPa 0,0 l/m 5,4 km/h (1 Bft) NO 55 0 min 0,000 mm 1,2 UV-I 304 W/m 8,1 C 17,8 C 8,0 km/h (2 Bft) 100,00 %
03.04.2016 15:53 17,7 C 56 % 1011,6 hPa 0,0 l/m 5,8 km/h (2 Bft) NO 56 0 min 0,000 mm 1,2 UV-I 290 W/m 8,8 C 17,7 C 8,0 km/h (2 Bft) 95,83 %
03.04.2016 15:54 17,7 C 55 % 1011,6 hPa 0,0 l/m 9,5 km/h (2 Bft) NO 53 0 min 0,000 mm 1,2 UV-I 287 W/m 8,5 C 16,3 C 14,5 km/h (3 Bft) 100,00 %
03.04.2016 15:55 17,7 C 55 % 1011,5 hPa 0,0 l/m 8,1 km/h (2 Bft) O 85 0 min 0,000 mm 1,1 UV-I 282 W/m 8,5 C 16,9 C 11,3 km/h (2 Bft) 100,00 %
03.04.2016 15:56 17,6 C 55 % 1011,6 hPa 0,0 l/m 7,8 km/h (2 Bft) O-NO 59 0 min 0,000 mm 1,1 UV-I 281 W/m 8,5 C 16,9 C 9,7 km/h (2 Bft) 100,00 %
03.04.2016 15:57 17,7 C 57 % 1011,5 hPa 0,0 l/m 5,1 km/h (1 Bft) O-NO 69 0 min 0,000 mm 1,1 UV-I 288 W/m 9,1 C 17,7 C 6,4 km/h (2 Bft) 100,00 %
03.04.2016 15:58 17,6 C 57 % 1011,6 hPa 0,0 l/m 4,5 km/h (1 Bft) O 88 0 min 0,000 mm 1,1 UV-I 290 W/m 9,0 C 17,6 C 6,4 km/h (2 Bft) 100,00 %
03.04.2016 15:59 17,6 C 57 % 1011,5 hPa 0,0 l/m 3,9 km/h (1 Bft) O 80 0 min 0,000 mm 1,1 UV-I 300 W/m 9,0 C 17,6 C 6,4 km/h (2 Bft) 100,00 %
03.04.2016 16:00 17,6 C 55 % 1011,6 hPa 0,0 l/m 2,8 km/h (1 Bft) O 80 1 min 0,000 mm 1,1 UV-I 319 W/m 8,5 C 17,6 C 3,2 km/h (1 Bft) 95,65 %
03.04.2016 16:01 17,7 C 57 % 1011,6 hPa 0,0 l/m 0,8 km/h (0 Bft) O 80 1 min 0,254 mm 1,2 UV-I 351 W/m 9,1 C 17,7 C 3,2 km/h (1 Bft) 100,00 %
03.04.2016 16:02 17,7 C 56 % 1011,6 hPa 0,0 l/m 0,4 km/h (0 Bft) O 80 1 min 0,000 mm 1,3 UV-I 393 W/m 8,8 C 17,7 C 1,6 km/h (1 Bft) 100,00 %
03.04.2016 16:03 17,8 C 60 % 1011,5 hPa 0,0 l/m 4,1 km/h (1 Bft) O-SO 102 1 min 0,000 mm 1,3 UV-I 441 W/m 9,9 C 17,8 C 6,4 km/h (2 Bft) 100,00 %
03.04.2016 16:04 17,8 C 57 % 1011,5 hPa 0,0 l/m 5,8 km/h (2 Bft) O-SO 108 1 min 0,000 mm 1,4 UV-I 436 W/m 9,2 C 17,8 C 6,4 km/h (2 Bft) 95,65 %
03.04.2016 16:05 17,9 C 58 % 1011,5 hPa 0,0 l/m 4,8 km/h (1 Bft) O 94 1 min 0,000 mm 1,4 UV-I 433 W/m 9,5 C 17,9 C 6,4 km/h (2 Bft) 100,00 %
03.04.2016 16:06 17,9 C 57 % 1011,5 hPa 0,0 l/m 2,9 km/h (1 Bft) O 94 1 min 0,000 mm 1,4 UV-I 446 W/m 9,3 C 17,9 C 3,2 km/h (1 Bft) 100,00 %
03.04.2016 16:07 17,9 C 58 % 1011,4 hPa 0,0 l/m 1,9 km/h (1 Bft) O 94 1 min 0,000 mm 1,4 UV-I 476 W/m 9,5 C 17,9 C 3,2 km/h (1 Bft) 100,00 %
03.04.2016 16:08 17,9 C 57 % 1011,4 hPa 0,0 l/m 1,7 km/h (1 Bft) O 94 1 min 0,000 mm 1,5 UV-I 541 W/m 9,3 C 17,9 C 3,2 km/h (1 Bft) 95,65 %
03.04.2016 16:09 18,1 C 58 % 1011,4 hPa 0,0 l/m 3,0 km/h (1 Bft) O 94 1 min 0,000 mm 1,4 UV-I 490 W/m 9,7 C 18,1 C 4,8 km/h (1 Bft) 100,00 %
03.04.2016 16:10 18,1 C 60 % 1011,5 hPa 0,0 l/m 7,4 km/h (2 Bft) O-SO 119 1 min 0,000 mm 1,3 UV-I 415 W/m 10,2 C 17,6 C 11,3 km/h (2 Bft) 100,00 %
03.04.2016 16:11 18,2 C 56 % 1011,4 hPa 0,0 l/m 9,5 km/h (2 Bft) O-SO 111 1 min 0,000 mm 1,4 UV-I 401 W/m 9,3 C 16,8 C 12,9 km/h (3 Bft) 100,00 %
03.04.2016 16:12 18,1 C 57 % 1011,4 hPa 0,0 l/m 2,9 km/h (1 Bft) O-SO 111 1 min 0,000 mm 1,4 UV-I 417 W/m 9,4 C 18,1 C 4,8 km/h (1 Bft) 100,00 %
03.04.2016 16:13 18,2 C 55 % 1011,4 hPa 0,0 l/m 5,8 km/h (2 Bft) SO 130 1 min 0,000 mm 1,2 UV-I 384 W/m 9,0 C 18,2 C 8,0 km/h (2 Bft) 100,00 %
03.04.2016 16:14 18,1 C 54 % 1011,4 hPa 0,0 l/m 4,9 km/h (1 Bft) O-SO 110 1 min 0,000 mm 1,2 UV-I 328 W/m 8,6 C 18,1 C 9,7 km/h (2 Bft) 100,00 %
03.04.2016 16:15 18,1 C 54 % 1011,4 hPa 0,0 l/m 4,5 km/h (1 Bft) S-SO 151 1 min 0,000 mm 1,2 UV-I 351 W/m 8,6 C 18,1 C 6,4 km/h (2 Bft) 100,00 %
03.04.2016 16:16 18,0 C 55 % 1011,3 hPa 0,0 l/m 1,9 km/h (1 Bft) SO 141 1 min 0,000 mm 1,2 UV-I 367 W/m 8,8 C 18,0 C 3,2 km/h (1 Bft) 100,00 %
03.04.2016 16:17 18,1 C 55 % 1011,4 hPa 0,0 l/m 5,3 km/h (1 Bft) O-NO 77 1 min 0,000 mm 1,2 UV-I 390 W/m 8,9 C 18,1 C 8,0 km/h (2 Bft) 95,83 %
03.04.2016 16:18 18,1 C 55 % 1011,3 hPa 0,0 l/m 5,0 km/h (1 Bft) O 94 1 min 0,000 mm 1,2 UV-I 340 W/m 8,9 C 18,1 C 9,7 km/h (2 Bft) 100,00 %
03.04.2016 16:19 18,1 C 54 % 1011,3 hPa 0,0 l/m 5,1 km/h (1 Bft) O-SO 123 1 min 0,000 mm 1,0 UV-I 287 W/m 8,6 C 18,1 C 8,0 km/h (2 Bft) 100,00 %
03.04.2016 16:20 18,1 C 55 % 1011,3 hPa 0,0 l/m 4,2 km/h (1 Bft) O-SO 111 0 min 0,000 mm 1,0 UV-I 265 W/m 8,9 C 18,1 C 6,4 km/h (2 Bft) 100,00 %
03.04.2016 16:21 18,1 C 56 % 1011,3 hPa 0,0 l/m 5,8 km/h (2 Bft) O-SO 118 0 min 0,000 mm 1,0 UV-I 246 W/m 9,2 C 18,1 C 6,4 km/h (2 Bft) 95,65 %
03.04.2016 16:22 18,0 C 55 % 1011,3 hPa 0,0 l/m 3,4 km/h (1 Bft) O-SO 102 0 min 0,000 mm 0,9 UV-I 239 W/m 8,8 C 18,0 C 6,4 km/h (2 Bft) 100,00 %
03.04.2016 16:23 18,0 C 56 % 1011,2 hPa 0,0 l/m 4,2 km/h (1 Bft) O-SO 114 0 min 0,000 mm 0,9 UV-I 240 W/m 9,1 C 18,0 C 9,7 km/h (2 Bft) 95,65 %
03.04.2016 16:24 17,9 C 55 % 1011,3 hPa 0,0 l/m 6,6 km/h (2 Bft) SO 132 0 min 0,000 mm 0,9 UV-I 228 W/m 8,7 C 17,8 C 8,0 km/h (2 Bft) 100,00 %
03.04.2016 16:25 17,9 C 56 % 1011,3 hPa 0,0 l/m 5,8 km/h (2 Bft) SO 132 0 min 0,000 mm 0,9 UV-I 222 W/m 9,0 C 17,9 C 6,4 km/h (2 Bft) 100,00 %
03.04.2016 16:26 17,9 C 56 % 1011,3 hPa 0,0 l/m 6,0 km/h (2 Bft) SO 125 0 min 0,000 mm 0,8 UV-I 216 W/m 9,0 C 17,9 C 8,0 km/h (2 Bft) 100,00 %
03.04.2016 16:27 17,9 C 55 % 1011,3 hPa 0,0 l/m 3,4 km/h (1 Bft) O-SO 120 0 min 0,000 mm 0,8 UV-I 209 W/m 8,7 C 17,9 C 4,8 km/h (1 Bft) 95,65 %
03.04.2016 16:28 17,9 C 56 % 1011,3 hPa 0,0 l/m 1,4 km/h (1 Bft) SO 130 0 min 0,000 mm 0,8 UV-I 207 W/m 9,0 C 17,9 C 3,2 km/h (1 Bft) 100,00 %
03.04.2016 16:29 17,8 C 56 % 1011,2 hPa 0,0 l/m 1,3 km/h (1 Bft) SO 130 0 min 0,000 mm 0,8 UV-I 207 W/m 8,9 C 17,8 C 4,8 km/h (1 Bft) 91,30 %
03.04.2016 16:30 17,8 C 59 % 1011,2 hPa 0,0 l/m 3,9 km/h (1 Bft) SO 128 0 min 0,000 mm 0,8 UV-I 204 W/m 9,7 C 17,8 C 4,8 km/h (1 Bft) 100,00 %
03.04.2016 16:31 17,8 C 59 % 1011,3 hPa 0,0 l/m 3,5 km/h (1 Bft) SO 126 0 min 0,000 mm 0,8 UV-I 202 W/m 9,7 C 17,8 C 4,8 km/h (1 Bft) 95,65 %
03.04.2016 16:32 17,8 C 60 % 1011,2 hPa 0,0 l/m 5,4 km/h (1 Bft) SO 138 0 min 0,000 mm 0,7 UV-I 204 W/m 9,9 C 17,8 C 6,4 km/h (2 Bft) 100,00 %
03.04.2016 16:33 17,8 C 58 % 1011,2 hPa 0,0 l/m 4,9 km/h (1 Bft) O-SO 109 0 min 0,000 mm 0,7 UV-I 202 W/m 9,4 C 17,8 C 6,4 km/h (2 Bft) 100,00 %
03.04.2016 16:34 17,8 C 59 % 1011,2 hPa 0,0 l/m 4,2 km/h (1 Bft) O-SO 109 0 min 0,000 mm 0,7 UV-I 204 W/m 9,7 C 17,8 C 4,8 km/h (1 Bft) 100,00 %
03.04.2016 16:35 17,8 C 59 % 1011,2 hPa 0,0 l/m 3,8 km/h (1 Bft) O-SO 109 0 min 0,000 mm 0,7 UV-I 207 W/m 9,7 C 17,8 C 4,8 km/h (1 Bft) 100,00 %
03.04.2016 16:36 17,8 C 59 % 1011,1 hPa 0,0 l/m 3,0 km/h (1 Bft) O-SO 109 0 min 0,000 mm 0,7 UV-I 206 W/m 9,7 C 17,8 C 6,4 km/h (2 Bft) 100,00 %
03.04.2016 16:37 17,8 C 59 % 1011,2 hPa 0,0 l/m 6,0 km/h (2 Bft) O 96 0 min 0,000 mm 0,7 UV-I 207 W/m 9,7 C 17,8 C 9,7 km/h (2 Bft) 100,00 %
03.04.2016 16:38 17,8 C 58 % 1011,2 hPa 0,0 l/m 7,0 km/h (2 Bft) O-NO 65 0 min 0,000 mm 0,7 UV-I 208 W/m 9,4 C 17,5 C 9,7 km/h (2 Bft) 96,15 %
03.04.2016 16:39 17,8 C 57 % 1011,1 hPa 0,0 l/m 6,5 km/h (2 Bft) O-NO 78 0 min 0,000 mm 0,7 UV-I 213 W/m 9,2 C 17,8 C 8,0 km/h (2 Bft) 100,00 %
03.04.2016 16:40 17,8 C 58 % 1011,1 hPa 0,0 l/m 5,1 km/h (1 Bft) O-SO 109 0 min 0,000 mm 0,7 UV-I 214 W/m 9,4 C 17,8 C 6,4 km/h (2 Bft) 100,00 %
03.04.2016 16:41 17,7 C 59 % 1011,1 hPa 0,0 l/m 3,8 km/h (1 Bft) O-SO 109 0 min 0,000 mm 0,7 UV-I 213 W/m 9,6 C 17,7 C 4,8 km/h (1 Bft) 100,00 %
03.04.2016 16:42 17,8 C 57 % 1011,1 hPa 0,0 l/m 3,5 km/h (1 Bft) O-SO 113 0 min 0,000 mm 0,7 UV-I 214 W/m 9,2 C 17,8 C 4,8 km/h (1 Bft) 92,31 %
03.04.2016 16:43 17,8 C 58 % 1011,1 hPa 0,0 l/m 4,0 km/h (1 Bft) SO 125 0 min 0,000 mm 0,7 UV-I 214 W/m 9,4 C 17,8 C 4,8 km/h (1 Bft) 95,83 %
03.04.2016 16:44 17,8 C 60 % 1011,1 hPa 0,0 l/m 4,4 km/h (1 Bft) O 94 0 min 0,000 mm 0,7 UV-I 214 W/m 9,9 C 17,8 C 6,4 km/h (2 Bft) 100,00 %
03.04.2016 16:45 17,8 C 58 % 1011,1 hPa 0,0 l/m 6,2 km/h (2 Bft) O 80 0 min 0,000 mm 0,7 UV-I 214 W/m 9,4 C 17,8 C 9,7 km/h (2 Bft) 100,00 %
03.04.2016 16:46 17,8 C 57 % 1011,1 hPa 0,0 l/m 4,1 km/h (1 Bft) O-SO 113 0 min 0,000 mm 0,7 UV-I 214 W/m 9,2 C 17,8 C 6,4 km/h (2 Bft) 95,65 %
03.04.2016 16:47 17,8 C 59 % 1011,1 hPa 0,0 l/m 4,8 km/h (1 Bft) O-SO 107 0 min 0,000 mm 0,7 UV-I 214 W/m 9,7 C 17,8 C 6,4 km/h (2 Bft) 100,00 %
03.04.2016 16:48 17,8 C 58 % 1011,1 hPa 0,0 l/m 4,6 km/h (1 Bft) SO 136 0 min 0,000 mm 0,6 UV-I 214 W/m 9,4 C 17,8 C 6,4 km/h (2 Bft) 95,65 %
03.04.2016 16:49 17,8 C 58 % 1011,1 hPa 0,0 l/m 2,1 km/h (1 Bft) SO 136 0 min 0,000 mm 0,6 UV-I 214 W/m 9,4 C 17,8 C 3,2 km/h (1 Bft) 100,00 %
03.04.2016 16:50 17,8 C 59 % 1011,1 hPa 0,0 l/m 2,0 km/h (1 Bft) SO 136 0 min 0,000 mm 0,6 UV-I 213 W/m 9,7 C 17,8 C 3,2 km/h (1 Bft) 100,00 %
03.04.2016 16:51 17,8 C 58 % 1011,1 hPa 0,0 l/m 3,6 km/h (1 Bft) SO 136 0 min 0,000 mm 0,6 UV-I 213 W/m 9,4 C 17,8 C 4,8 km/h (1 Bft) 100,00 %
03.04.2016 16:52 17,8 C 58 % 1011,1 hPa 0,0 l/m 3,2 km/h (1 Bft) SO 136 0 min 0,000 mm 0,6 UV-I 213 W/m 9,4 C 17,8 C 4,8 km/h (1 Bft) 100,00 %
03.04.2016 16:53 17,8 C 57 % 1011,1 hPa 0,0 l/m 4,0 km/h (1 Bft) O-SO 112 0 min 0,000 mm 0,6 UV-I 213 W/m 9,2 C 17,8 C 6,4 km/h (2 Bft) 95,83 %
03.04.2016 16:54 17,9 C 60 % 1011,1 hPa 0,0 l/m 3,8 km/h (1 Bft) O-SO 112 0 min 0,000 mm 0,6 UV-I 214 W/m 10,0 C 17,9 C 4,8 km/h (1 Bft) 100,00 %
03.04.2016 16:55 17,9 C 61 % 1011,1 hPa 0,0 l/m 4,6 km/h (1 Bft) O-SO 119 0 min 0,000 mm 0,6 UV-I 216 W/m 10,3 C 17,9 C 9,7 km/h (2 Bft) 100,00 %
03.04.2016 16:56 17,9 C 57 % 1011,1 hPa 0,0 l/m 4,9 km/h (1 Bft) O 101 0 min 0,000 mm 0,6 UV-I 221 W/m 9,3 C 17,9 C 9,7 km/h (2 Bft) 97,14 %
03.04.2016 16:57 17,9 C 59 % 1011,0 hPa 0,0 l/m 6,6 km/h (2 Bft) O-SO 106 0 min 0,000 mm 0,6 UV-I 230 W/m 9,8 C 17,8 C 9,7 km/h (2 Bft) 100,00 %
03.04.2016 16:58 17,9 C 57 % 1011,0 hPa 0,0 l/m 9,1 km/h (2 Bft) O 88 1 min 0,000 mm 0,6 UV-I 238 W/m 9,3 C 16,7 C 11,3 km/h (2 Bft) 100,00 %
03.04.2016 16:59 17,9 C 56 % 1011,0 hPa 0,0 l/m 6,1 km/h (2 Bft) O 101 1 min 0,000 mm 0,6 UV-I 242 W/m 9,0 C 17,9 C 11,3 km/h (2 Bft) 95,65 %
03.04.2016 17:00 17,9 C 57 % 1011,0 hPa 0,0 l/m 5,0 km/h (1 Bft) O-NO 59 1 min 0,000 mm 0,6 UV-I 247 W/m 9,3 C 17,9 C 6,4 km/h (2 Bft) 100,00 %
03.04.2016 17:01 17,9 C 57 % 1011,0 hPa 0,0 l/m 4,6 km/h (1 Bft) O-NO 76 1 min 0,177 mm 0,6 UV-I 253 W/m 9,3 C 17,9 C 6,4 km/h (2 Bft) 100,00 %
03.04.2016 17:02 17,9 C 58 % 1011,0 hPa 0,0 l/m 5,0 km/h (1 Bft) SO 143 1 min 0,000 mm 0,6 UV-I 262 W/m 9,5 C 17,9 C 8,0 km/h (2 Bft) 100,00 %
03.04.2016 17:03 17,9 C 56 % 1011,0 hPa 0,0 l/m 4,7 km/h (1 Bft) O-SO 105 1 min 0,000 mm 0,6 UV-I 285 W/m 9,0 C 17,9 C 6,4 km/h (2 Bft) 100,00 %
03.04.2016 17:04 17,9 C 55 % 1011,0 hPa 0,0 l/m 5,6 km/h (1 Bft) O 94 1 min 0,000 mm 0,6 UV-I 307 W/m 8,7 C 17,9 C 9,7 km/h (2 Bft) 100,00 %
03.04.2016 17:05 17,9 C 59 % 1011,0 hPa 0,0 l/m 3,5 km/h (1 Bft) O 94 1 min 0,000 mm 0,6 UV-I 315 W/m 9,8 C 17,9 C 4,8 km/h (1 Bft) 100,00 %
03.04.2016 17:06 17,9 C 58 % 1011,0 hPa 0,0 l/m 3,5 km/h (1 Bft) O-NO 75 1 min 0,000 mm 0,6 UV-I 328 W/m 9,5 C 17,9 C 4,8 km/h (1 Bft) 100,00 %
03.04.2016 17:07 18,0 C 56 % 1011,0 hPa 0,0 l/m 3,6 km/h (1 Bft) O-SO 111 1 min 0,000 mm 0,7 UV-I 365 W/m 9,1 C 18,0 C 6,4 km/h (2 Bft) 100,00 %
03.04.2016 17:08 18,1 C 57 % 1010,9 hPa 0,0 l/m 3,3 km/h (1 Bft) O 96 1 min 0,000 mm 0,7 UV-I 399 W/m 9,4 C 18,1 C 4,8 km/h (1 Bft) 100,00 %
03.04.2016 17:09 18,2 C 56 % 1010,9 hPa 0,0 l/m 4,7 km/h (1 Bft) O-NO 67 1 min 0,000 mm 0,7 UV-I 411 W/m 9,3 C 18,2 C 8,0 km/h (2 Bft) 100,00 %
03.04.2016 17:10 18,2 C 57 % 1010,9 hPa 0,0 l/m 5,4 km/h (1 Bft) O-NO 68 1 min 0,000 mm 0,7 UV-I 420 W/m 9,5 C 18,2 C 6,4 km/h (2 Bft) 96,15 %
03.04.2016 17:11 18,2 C 58 % 1010,9 hPa 0,0 l/m 3,9 km/h (1 Bft) O 86 1 min 0,000 mm 0,7 UV-I 418 W/m 9,8 C 18,2 C 4,8 km/h (1 Bft) 95,65 %
03.04.2016 17:12 18,3 C 58 % 1010,9 hPa 0,0 l/m 5,4 km/h (1 Bft) O-NO 66 1 min 0,000 mm 0,7 UV-I 420 W/m 9,9 C 18,3 C 8,0 km/h (2 Bft) 95,83 %
03.04.2016 17:13 18,4 C 56 % 1010,9 hPa 0,0 l/m 5,2 km/h (1 Bft) O-NO 73 1 min 0,000 mm 0,7 UV-I 417 W/m 9,5 C 18,4 C 6,4 km/h (2 Bft) 100,00 %
03.04.2016 17:14 18,5 C 57 % 1010,9 hPa 0,0 l/m 6,0 km/h (2 Bft) O 94 1 min 0,000 mm 0,7 UV-I 418 W/m 9,8 C 18,5 C 9,7 km/h (2 Bft) 96,15 %
03.04.2016 17:15 18,5 C 56 % 1010,8 hPa 0,0 l/m 9,3 km/h (2 Bft) O 84 1 min 0,000 mm 0,7 UV-I 420 W/m 9,6 C 17,2 C 14,5 km/h (3 Bft) 100,00 %
03.04.2016 17:16 18,5 C 55 % 1010,8 hPa 0,0 l/m 8,0 km/h (2 Bft) NO 55 1 min 0,000 mm 0,7 UV-I 414 W/m 9,3 C 17,8 C 11,3 km/h (2 Bft) 100,00 %
03.04.2016 17:17 18,6 C 56 % 1010,8 hPa 0,0 l/m 8,7 km/h (2 Bft) O-NO 69 1 min 0,000 mm 0,7 UV-I 401 W/m 9,6 C 17,6 C 14,5 km/h (3 Bft) 100,00 %
03.04.2016 17:18 18,6 C 54 % 1010,8 hPa 0,0 l/m 11,1 km/h (2 Bft) O-NO 77 1 min 0,000 mm 0,7 UV-I 391 W/m 9,1 C 16,7 C 14,5 km/h (3 Bft) 100,00 %
03.04.2016 17:19 18,6 C 54 % 1010,7 hPa 0,0 l/m 8,8 km/h (2 Bft) O-NO 70 1 min 0,000 mm 0,7 UV-I 381 W/m 9,1 C 17,6 C 12,9 km/h (3 Bft) 100,00 %
03.04.2016 17:20 18,6 C 53 % 1010,7 hPa 0,0 l/m 11,3 km/h (2 Bft) O 80 1 min 0,000 mm 0,7 UV-I 379 W/m 8,8 C 16,6 C 14,5 km/h (3 Bft) 100,00 %
03.04.2016 17:21 18,6 C 53 % 1010,7 hPa 0,0 l/m 12,4 km/h (3 Bft) O-NO 69 1 min 0,000 mm 0,7 UV-I 370 W/m 8,8 C 16,3 C 14,5 km/h (3 Bft) 96,30 %
03.04.2016 17:22 18,5 C 54 % 1010,7 hPa 0,0 l/m 11,1 km/h (2 Bft) O-NO 62 1 min 0,000 mm 0,7 UV-I 364 W/m 9,0 C 16,6 C 16,1 km/h (3 Bft) 100,00 %
03.04.2016 17:23 18,6 C 54 % 1010,7 hPa 0,0 l/m 13,4 km/h (3 Bft) O-NO 63 1 min 0,000 mm 0,6 UV-I 349 W/m 9,1 C 16,0 C 17,7 km/h (3 Bft) 96,30 %
03.04.2016 17:24 18,5 C 54 % 1010,6 hPa 0,0 l/m 11,8 km/h (2 Bft) O-NO 61 1 min 0,000 mm 0,6 UV-I 346 W/m 9,0 C 16,4 C 14,5 km/h (3 Bft) 95,65 %
03.04.2016 17:25 18,5 C 56 % 1010,6 hPa 0,0 l/m 9,9 km/h (2 Bft) O-NO 57 1 min 0,000 mm 0,6 UV-I 334 W/m 9,6 C 17,0 C 16,1 km/h (3 Bft) 100,00 %
03.04.2016 17:26 18,5 C 56 % 1010,6 hPa 0,0 l/m 11,1 km/h (2 Bft) O-NO 66 1 min 0,000 mm 0,6 UV-I 318 W/m 9,6 C 16,6 C 14,5 km/h (3 Bft) 91,30 %
03.04.2016 17:27 18,5 C 57 % 1010,6 hPa 0,0 l/m 10,9 km/h (2 Bft) O 83 1 min 0,000 mm 0,6 UV-I 316 W/m 9,8 C 16,7 C 14,5 km/h (3 Bft) 100,00 %
03.04.2016 17:28 18,5 C 56 % 1010,6 hPa 0,0 l/m 12,1 km/h (2 Bft) O-NO 78 1 min 0,000 mm 0,6 UV-I 310 W/m 9,6 C 16,3 C 14,5 km/h (3 Bft) 91,67 %
03.04.2016 17:29 18,4 C 55 % 1010,6 hPa 0,0 l/m 13,5 km/h (3 Bft) O-NO 69 1 min 0,000 mm 0,6 UV-I 304 W/m 9,2 C 15,7 C 17,7 km/h (3 Bft) 100,00 %
03.04.2016 17:30 18,4 C 53 % 1010,6 hPa 0,0 l/m 17,6 km/h (3 Bft) O-NO 61 1 min 0,000 mm 0,6 UV-I 304 W/m 8,6 C 14,7 C 22,5 km/h (4 Bft) 95,83 %
03.04.2016 17:31 18,4 C 52 % 1010,6 hPa 0,0 l/m 16,9 km/h (3 Bft) O-NO 66 1 min 0,000 mm 0,5 UV-I 302 W/m 8,4 C 14,8 C 24,1 km/h (4 Bft) 95,65 %
03.04.2016 17:32 18,4 C 52 % 1010,6 hPa 0,0 l/m 18,2 km/h (3 Bft) O-NO 73 1 min 0,000 mm 0,5 UV-I 298 W/m 8,4 C 14,5 C 25,7 km/h (4 Bft) 95,83 %
03.04.2016 17:33 18,4 C 52 % 1010,6 hPa 0,0 l/m 20,2 km/h (4 Bft) O-NO 71 1 min 0,000 mm 0,5 UV-I 291 W/m 8,4 C 14,1 C 24,1 km/h (4 Bft) 100,00 %
03.04.2016 17:34 18,3 C 51 % 1010,5 hPa 0,0 l/m 20,4 km/h (4 Bft) O-NO 72 1 min 0,000 mm 0,5 UV-I 279 W/m 8,0 C 13,9 C 24,1 km/h (4 Bft) 95,83 %
03.04.2016 17:35 18,3 C 52 % 1010,5 hPa 0,0 l/m 16,5 km/h (3 Bft) O 88 1 min 0,000 mm 0,5 UV-I 273 W/m 8,3 C 14,8 C 20,9 km/h (4 Bft) 86,96 %
03.04.2016 17:36 18,3 C 52 % 1010,5 hPa 0,0 l/m 14,1 km/h (3 Bft) O 86 1 min 0,000 mm 0,5 UV-I 263 W/m 8,3 C 15,4 C 19,3 km/h (3 Bft) 100,00 %
03.04.2016 17:37 18,3 C 52 % 1010,5 hPa 0,0 l/m 18,3 km/h (3 Bft) O-NO 75 1 min 0,000 mm 0,5 UV-I 253 W/m 8,3 C 14,4 C 20,9 km/h (4 Bft) 95,65 %
03.04.2016 17:38 18,3 C 51 % 1010,5 hPa 0,0 l/m 18,2 km/h (3 Bft) O-NO 65 1 min 0,000 mm 0,4 UV-I 239 W/m 8,0 C 14,4 C 24,1 km/h (4 Bft) 100,00 %
03.04.2016 17:39 18,2 C 52 % 1010,5 hPa 0,0 l/m 14,8 km/h (3 Bft) O-NO 78 1 min 0,000 mm 0,0 UV-I 223 W/m 8,2 C 15,1 C 19,3 km/h (3 Bft) 95,65 %
03.04.2016 17:40 18,2 C 52 % 1010,5 hPa 0,0 l/m 14,1 km/h (3 Bft) O 98 1 min 0,000 mm 0,0 UV-I 212 W/m 8,2 C 15,3 C 19,3 km/h (3 Bft) 100,00 %
03.04.2016 17:41 18,2 C 55 % 1010,6 hPa 0,0 l/m 9,0 km/h (2 Bft) O-NO 75 1 min 0,000 mm 0,0 UV-I 207 W/m 9,0 C 17,0 C 12,9 km/h (3 Bft) 96,15 %
03.04.2016 17:42 18,2 C 55 % 1010,5 hPa 0,0 l/m 10,1 km/h (2 Bft) O-NO 62 1 min 0,000 mm 0,0 UV-I 200 W/m 9,0 C 16,6 C 14,5 km/h (3 Bft) 95,83 %
03.04.2016 17:43 18,1 C 55 % 1010,6 hPa 0,0 l/m 14,0 km/h (3 Bft) O-NO 61 1 min 0,000 mm 0,0 UV-I 190 W/m 8,9 C 15,2 C 17,7 km/h (3 Bft) 100,00 %
03.04.2016 17:44 18,1 C 54 % 1010,5 hPa 0,0 l/m 13,1 km/h (3 Bft) NO 48 1 min 0,000 mm 0,0 UV-I 187 W/m 8,6 C 15,5 C 17,7 km/h (3 Bft) 95,83 %
03.04.2016 17:45 18,1 C 54 % 1010,5 hPa 0,0 l/m 15,6 km/h (3 Bft) N-NO 32 1 min 0,000 mm 0,0 UV-I 185 W/m 8,6 C 14,8 C 20,9 km/h (4 Bft) 95,65 %
03.04.2016 17:46 18,1 C 54 % 1010,5 hPa 0,0 l/m 11,4 km/h (2 Bft) O-NO 74 1 min 0,000 mm 0,0 UV-I 179 W/m 8,6 C 16,0 C 14,5 km/h (3 Bft) 95,83 %
03.04.2016 17:47 18,1 C 54 % 1010,5 hPa 0,0 l/m 15,7 km/h (3 Bft) O 92 1 min 0,000 mm 0,0 UV-I 167 W/m 8,6 C 14,8 C 20,9 km/h (4 Bft) 100,00 %
03.04.2016 17:48 18,0 C 54 % 1010,5 hPa 0,0 l/m 14,6 km/h (3 Bft) O 80 1 min 0,000 mm 0,0 UV-I 164 W/m 8,6 C 14,9 C 19,3 km/h (3 Bft) 95,83 %
03.04.2016 17:49 17,9 C 55 % 1010,5 hPa 0,0 l/m 13,7 km/h (3 Bft) O-NO 65 0 min 0,000 mm 0,0 UV-I 146 W/m 8,7 C 15,1 C 19,3 km/h (3 Bft) 100,00 %
03.04.2016 17:50 17,9 C 54 % 1010,5 hPa 0,0 l/m 15,8 km/h (3 Bft) O-NO 77 0 min 0,000 mm 0,0 UV-I 138 W/m 8,5 C 14,5 C 19,3 km/h (3 Bft) 91,67 %
03.04.2016 17:51 17,8 C 56 % 1010,5 hPa 0,0 l/m 13,9 km/h (3 Bft) O-NO 69 0 min 0,000 mm 0,0 UV-I 128 W/m 8,9 C 14,9 C 16,1 km/h (3 Bft) 100,00 %
03.04.2016 17:52 17,8 C 57 % 1010,4 hPa 0,0 l/m 12,9 km/h (3 Bft) O 92 0 min 0,000 mm 0,0 UV-I 122 W/m 9,2 C 15,2 C 17,7 km/h (3 Bft) 95,65 %
03.04.2016 17:53 17,7 C 57 % 1010,4 hPa 0,0 l/m 14,1 km/h (3 Bft) O-NO 65 0 min 0,000 mm 0,0 UV-I 117 W/m 9,1 C 14,7 C 19,3 km/h (3 Bft) 100,00 %
03.04.2016 17:54 17,6 C 57 % 1010,4 hPa 0,0 l/m 12,6 km/h (3 Bft) O 79 0 min 0,000 mm 0,0 UV-I 113 W/m 9,0 C 15,1 C 16,1 km/h (3 Bft) 100,00 %
03.04.2016 17:55 17,6 C 56 % 1010,4 hPa 0,0 l/m 12,7 km/h (3 Bft) O-SO 106 0 min 0,000 mm 0,0 UV-I 108 W/m 8,7 C 15,0 C 17,7 km/h (3 Bft) 100,00 %
03.04.2016 17:56 17,5 C 57 % 1010,4 hPa 0,0 l/m 13,4 km/h (3 Bft) O-NO 68 0 min 0,000 mm 0,0 UV-I 104 W/m 8,9 C 14,7 C 17,7 km/h (3 Bft) 100,00 %
03.04.2016 17:57 17,4 C 58 % 1010,4 hPa 0,0 l/m 11,8 km/h (2 Bft) O 90 0 min 0,000 mm 0,0 UV-I 101 W/m 9,1 C 15,1 C 19,3 km/h (3 Bft) 95,83 %
03.04.2016 17:58 17,4 C 57 % 1010,4 hPa 0,0 l/m 11,9 km/h (2 Bft) O-NO 59 0 min 0,000 mm 0,0 UV-I 98 W/m 8,8 C 15,1 C 16,1 km/h (3 Bft) 96,15 %
03.04.2016 17:59 17,3 C 58 % 1010,4 hPa 0,0 l/m 15,3 km/h (3 Bft) O-NO 65 0 min 0,000 mm 0,0 UV-I 97 W/m 9,0 C 13,9 C 20,9 km/h (4 Bft) 96,30 %
03.04.2016 18:00 17,3 C 58 % 1010,4 hPa 0,0 l/m 15,3 km/h (3 Bft) O-NO 75 0 min 0,000 mm 0,0 UV-I 95 W/m 9,0 C 13,9 C 20,9 km/h (4 Bft) 100,00 %
03.04.2016 18:01 17,3 C 57 % 1010,4 hPa 0,0 l/m 18,4 km/h (3 Bft) O 90 0 min 0,229 mm 0,0 UV-I 92 W/m 8,7 C 13,1 C 22,5 km/h (4 Bft) 100,00 %
03.04.2016 18:02 17,3 C 56 % 1010,4 hPa 0,0 l/m 16,8 km/h (3 Bft) O 79 0 min 0,000 mm 0,0 UV-I 91 W/m 8,4 C 13,5 C 20,9 km/h (4 Bft) 100,00 %
03.04.2016 18:03 17,3 C 57 % 1010,4 hPa 0,0 l/m 12,5 km/h (3 Bft) O-NO 78 0 min 0,000 mm 0,0 UV-I 90 W/m 8,7 C 14,8 C 16,1 km/h (3 Bft) 96,30 %
03.04.2016 18:04 17,3 C 57 % 1010,4 hPa 0,0 l/m 14,3 km/h (3 Bft) O 86 0 min 0,000 mm 0,0 UV-I 89 W/m 8,7 C 14,2 C 19,3 km/h (3 Bft) 100,00 %
03.04.2016 18:05 17,2 C 57 % 1010,4 hPa 0,0 l/m 14,6 km/h (3 Bft) O 82 0 min 0,000 mm 0,0 UV-I 88 W/m 8,6 C 14,0 C 17,7 km/h (3 Bft) 96,30 %
03.04.2016 18:06 17,2 C 58 % 1010,4 hPa 0,0 l/m 13,4 km/h (3 Bft) O-NO 78 0 min 0,000 mm 0,0 UV-I 86 W/m 8,9 C 14,3 C 17,7 km/h (3 Bft) 100,00 %
03.04.2016 18:07 17,2 C 58 % 1010,4 hPa 0,0 l/m 12,4 km/h (3 Bft) O-NO 59 0 min 0,000 mm 0,0 UV-I 86 W/m 8,9 C 14,7 C 19,3 km/h (3 Bft) 100,00 %
03.04.2016 18:08 17,1 C 59 % 1010,4 hPa 0,0 l/m 11,7 km/h (2 Bft) O-NO 63 0 min 0,000 mm 0,0 UV-I 85 W/m 9,0 C 14,8 C 14,5 km/h (3 Bft) 100,00 %
03.04.2016 18:09 17,1 C 59 % 1010,3 hPa 0,0 l/m 11,1 km/h (2 Bft) O-NO 77 0 min 0,000 mm 0,0 UV-I 84 W/m 9,0 C 15,0 C 14,5 km/h (3 Bft) 100,00 %
03.04.2016 18:10 17,0 C 59 % 1010,4 hPa 0,0 l/m 9,9 km/h (2 Bft) O-NO 58 0 min 0,000 mm 0,0 UV-I 83 W/m 8,9 C 15,4 C 14,5 km/h (3 Bft) 100,00 %
03.04.2016 18:11 16,9 C 60 % 1010,4 hPa 0,0 l/m 10,2 km/h (2 Bft) O 84 0 min 0,000 mm 0,0 UV-I 83 W/m 9,1 C 15,1 C 12,9 km/h (3 Bft) 100,00 %
03.04.2016 18:12 16,9 C 59 % 1010,4 hPa 0,0 l/m 8,5 km/h (2 Bft) O 82 0 min 0,000 mm 0,0 UV-I 81 W/m 8,8 C 15,9 C 12,9 km/h (3 Bft) 100,00 %
03.04.2016 18:13 16,9 C 60 % 1010,4 hPa 0,0 l/m 8,9 km/h (2 Bft) O-NO 67 0 min 0,000 mm 0,0 UV-I 78 W/m 9,1 C 15,7 C 12,9 km/h (3 Bft) 96,15 %
03.04.2016 18:14 16,9 C 59 % 1010,4 hPa 0,0 l/m 11,1 km/h (2 Bft) O-NO 77 0 min 0,000 mm 0,0 UV-I 77 W/m 8,8 C 14,8 C 14,5 km/h (3 Bft) 100,00 %
03.04.2016 18:15 16,9 C 59 % 1010,4 hPa 0,0 l/m 6,3 km/h (2 Bft) O-NO 74 0 min 0,000 mm 0,0 UV-I 76 W/m 8,8 C 16,9 C 9,7 km/h (2 Bft) 100,00 %
03.04.2016 18:16 16,9 C 59 % 1010,4 hPa 0,0 l/m 9,4 km/h (2 Bft) O 84 0 min 0,000 mm 0,0 UV-I 75 W/m 8,8 C 15,5 C 14,5 km/h (3 Bft) 100,00 %
03.04.2016 18:17 16,9 C 59 % 1010,4 hPa 0,0 l/m 9,1 km/h (2 Bft) NO 49 0 min 0,000 mm 0,0 UV-I 74 W/m 8,8 C 15,6 C 12,9 km/h (3 Bft) 100,00 %
03.04.2016 18:18 16,9 C 59 % 1010,4 hPa 0,0 l/m 10,2 km/h (2 Bft) O-NO 57 0 min 0,000 mm 0,0 UV-I 72 W/m 8,8 C 15,1 C 14,5 km/h (3 Bft) 95,83 %
03.04.2016 18:19 16,9 C 59 % 1010,4 hPa 0,0 l/m 8,8 km/h (2 Bft) O-NO 58 0 min 0,000 mm 0,0 UV-I 71 W/m 8,8 C 15,7 C 12,9 km/h (3 Bft) 100,00 %
03.04.2016 18:20 16,9 C 59 % 1010,4 hPa 0,0 l/m 7,6 km/h (2 Bft) NO 54 0 min 0,000 mm 0,0 UV-I 70 W/m 8,8 C 16,3 C 11,3 km/h (2 Bft) 100,00 %
03.04.2016 18:21 16,9 C 59 % 1010,4 hPa 0,0 l/m 8,6 km/h (2 Bft) O-NO 69 0 min 0,000 mm 0,0 UV-I 69 W/m 8,8 C 15,8 C 14,5 km/h (3 Bft) 100,00 %
03.04.2016 18:22 16,8 C 60 % 1010,4 hPa 0,0 l/m 9,9 km/h (2 Bft) NO 51 0 min 0,000 mm 0,0 UV-I 68 W/m 9,0 C 15,1 C 12,9 km/h (3 Bft) 95,83 %
03.04.2016 18:23 16,8 C 60 % 1010,4 hPa 0,0 l/m 7,4 km/h (2 Bft) O-NO 67 0 min 0,000 mm 0,0 UV-I 67 W/m 9,0 C 16,3 C 9,7 km/h (2 Bft) 100,00 %
03.04.2016 18:24 16,8 C 60 % 1010,4 hPa 0,0 l/m 8,1 km/h (2 Bft) O-NO 65 0 min 0,000 mm 0,0 UV-I 65 W/m 9,0 C 15,9 C 12,9 km/h (3 Bft) 100,00 %
03.04.2016 18:25 16,8 C 60 % 1010,4 hPa 0,0 l/m 8,4 km/h (2 Bft) NO 55 0 min 0,000 mm 0,0 UV-I 63 W/m 9,0 C 15,8 C 9,7 km/h (2 Bft) 95,65 %
03.04.2016 18:26 16,7 C 60 % 1010,3 hPa 0,0 l/m 9,5 km/h (2 Bft) NO 55 0 min 0,000 mm 0,0 UV-I 62 W/m 8,9 C 15,2 C 14,5 km/h (3 Bft) 100,00 %
03.04.2016 18:27 16,7 C 60 % 1010,3 hPa 0,0 l/m 8,2 km/h (2 Bft) NO 50 0 min 0,000 mm 0,0 UV-I 61 W/m 8,9 C 15,8 C 12,9 km/h (3 Bft) 100,00 %
03.04.2016 18:28 16,7 C 60 % 1010,3 hPa 0,0 l/m 7,8 km/h (2 Bft) NO 55 0 min 0,000 mm 0,0 UV-I 58 W/m 8,9 C 16,0 C 9,7 km/h (2 Bft) 100,00 %
03.04.2016 18:29 16,7 C 61 % 1010,3 hPa 0,0 l/m 7,6 km/h (2 Bft) NO 55 0 min 0,000 mm 0,0 UV-I 58 W/m 9,1 C 16,1 C 9,7 km/h (2 Bft) 100,00 %
03.04.2016 18:30 16,6 C 61 % 1010,3 hPa 0,0 l/m 7,4 km/h (2 Bft) O-NO 74 0 min 0,000 mm 0,0 UV-I 56 W/m 9,0 C 16,1 C 9,7 km/h (2 Bft) 100,00 %
03.04.2016 18:31 16,6 C 60 % 1010,3 hPa 0,0 l/m 8,5 km/h (2 Bft) O-NO 70 0 min 0,000 mm 0,0 UV-I 54 W/m 8,8 C 15,5 C 12,9 km/h (3 Bft) 100,00 %
03.04.2016 18:32 16,6 C 60 % 1010,3 hPa 0,0 l/m 8,3 km/h (2 Bft) O-NO 64 0 min 0,000 mm 0,0 UV-I 54 W/m 8,8 C 15,6 C 11,3 km/h (2 Bft) 100,00 %
03.04.2016 18:33 16,6 C 61 % 1010,2 hPa 0,0 l/m 9,5 km/h (2 Bft) NO 53 0 min 0,000 mm 0,0 UV-I 53 W/m 9,0 C 15,1 C 11,3 km/h (2 Bft) 100,00 %
03.04.2016 18:34 16,6 C 61 % 1010,2 hPa 0,0 l/m 9,3 km/h (2 Bft) NO 42 0 min 0,000 mm 0,0 UV-I 53 W/m 9,0 C 15,2 C 12,9 km/h (3 Bft) 100,00 %
03.04.2016 18:35 16,6 C 60 % 1010,3 hPa 0,0 l/m 6,4 km/h (2 Bft) NO 49 0 min 0,000 mm 0,0 UV-I 51 W/m 8,8 C 16,6 C 9,7 km/h (2 Bft) 100,00 %
03.04.2016 18:36 16,5 C 61 % 1010,3 hPa 0,0 l/m 5,2 km/h (1 Bft) O-NO 67 0 min 0,000 mm 0,0 UV-I 51 W/m 9,0 C 16,5 C 9,7 km/h (2 Bft) 100,00 %
03.04.2016 18:37 16,4 C 62 % 1010,3 hPa 0,0 l/m 3,4 km/h (1 Bft) O-NO 63 0 min 0,000 mm 0,0 UV-I 50 W/m 9,1 C 16,4 C 4,8 km/h (1 Bft) 95,83 %
03.04.2016 18:38 16,4 C 62 % 1010,3 hPa 0,0 l/m 3,8 km/h (1 Bft) NO 44 0 min 0,000 mm 0,0 UV-I 49 W/m 9,1 C 16,4 C 6,4 km/h (2 Bft) 95,65 %
03.04.2016 18:39 16,3 C 64 % 1010,3 hPa 0,0 l/m 4,8 km/h (1 Bft) NO 44 0 min 0,000 mm 0,0 UV-I 49 W/m 9,5 C 16,3 C 8,0 km/h (2 Bft) 100,00 %
03.04.2016 18:40 16,2 C 64 % 1010,2 hPa 0,0 l/m 6,0 km/h (2 Bft) NO 40 0 min 0,000 mm 0,0 UV-I 47 W/m 9,4 C 16,2 C 8,0 km/h (2 Bft) 100,00 %
03.04.2016 18:41 16,1 C 64 % 1010,2 hPa 0,0 l/m 3,4 km/h (1 Bft) NO 40 0 min 0,000 mm 0,0 UV-I 47 W/m 9,3 C 16,1 C 4,8 km/h (1 Bft) 100,00 %
03.04.2016 18:42 16,0 C 64 % 1010,2 hPa 0,0 l/m 3,2 km/h (1 Bft) NO 40 0 min 0,000 mm 0,0 UV-I 47 W/m 9,2 C 16,0 C 4,8 km/h (1 Bft) 100,00 %
03.04.2016 18:43 15,9 C 65 % 1010,2 hPa 0,0 l/m 5,5 km/h (1 Bft) NO 36 0 min 0,000 mm 0,0 UV-I 46 W/m 9,3 C 15,9 C 9,7 km/h (2 Bft) 100,00 %
03.04.2016 18:44 15,9 C 65 % 1010,2 hPa 0,0 l/m 4,6 km/h (1 Bft) NO 40 0 min 0,000 mm 0,0 UV-I 46 W/m 9,3 C 15,9 C 6,4 km/h (2 Bft) 100,00 %
03.04.2016 18:45 15,8 C 66 % 1010,2 hPa 0,0 l/m 4,8 km/h (1 Bft) NO 49 0 min 0,000 mm 0,0 UV-I 45 W/m 9,5 C 15,8 C 6,4 km/h (2 Bft) 100,00 %
03.04.2016 18:46 15,8 C 66 % 1010,2 hPa 0,0 l/m 4,8 km/h (1 Bft) NO 44 0 min 0,000 mm 0,0 UV-I 44 W/m 9,5 C 15,8 C 6,4 km/h (2 Bft) 95,65 %
03.04.2016 18:47 15,7 C 66 % 1010,2 hPa 0,0 l/m 6,4 km/h (2 Bft) O-NO 59 0 min 0,000 mm 0,0 UV-I 44 W/m 9,4 C 15,7 C 9,7 km/h (2 Bft) 100,00 %
03.04.2016 18:48 15,7 C 66 % 1010,2 hPa 0,0 l/m 6,2 km/h (2 Bft) N-NO 30 0 min 0,000 mm 0,0 UV-I 42 W/m 9,4 C 15,7 C 8,0 km/h (2 Bft) 100,00 %
03.04.2016 18:49 15,7 C 65 % 1010,2 hPa 0,0 l/m 5,5 km/h (1 Bft) O-NO 57 0 min 0,000 mm 0,0 UV-I 42 W/m 9,1 C 15,7 C 8,0 km/h (2 Bft) 100,00 %
03.04.2016 18:50 15,7 C 65 % 1010,2 hPa 0,0 l/m 5,9 km/h (2 Bft) NO 34 0 min 0,000 mm 0,0 UV-I 41 W/m 9,1 C 15,7 C 9,7 km/h (2 Bft) 100,00 %
03.04.2016 18:51 15,8 C 65 % 1010,2 hPa 0,0 l/m 6,0 km/h (2 Bft) N-NO 31 0 min 0,000 mm 0,0 UV-I 40 W/m 9,2 C 15,8 C 8,0 km/h (2 Bft) 100,00 %
03.04.2016 18:52 15,7 C 66 % 1010,2 hPa 0,0 l/m 4,1 km/h (1 Bft) O-NO 70 0 min 0,000 mm 0,0 UV-I 40 W/m 9,4 C 15,7 C 4,8 km/h (1 Bft) 100,00 %
03.04.2016 18:53 15,7 C 65 % 1010,2 hPa 0,0 l/m 5,9 km/h (2 Bft) O-NO 62 0 min 0,000 mm 0,0 UV-I 39 W/m 9,1 C 15,7 C 6,4 km/h (2 Bft) 96,15 %
03.04.2016 18:54 15,7 C 65 % 1010,2 hPa 0,0 l/m 7,0 km/h (2 Bft) O-NO 57 0 min 0,000 mm 0,0 UV-I 38 W/m 9,1 C 15,4 C 9,7 km/h (2 Bft) 95,83 %
03.04.2016 18:55 15,7 C 65 % 1010,2 hPa 0,0 l/m 5,8 km/h (2 Bft) O-NO 69 0 min 0,000 mm 0,0 UV-I 37 W/m 9,1 C 15,7 C 8,0 km/h (2 Bft) 100,00 %
03.04.2016 18:56 15,8 C 65 % 1010,2 hPa 0,0 l/m 5,2 km/h (1 Bft) NO 53 0 min 0,000 mm 0,0 UV-I 37 W/m 9,2 C 15,8 C 8,0 km/h (2 Bft) 100,00 %
03.04.2016 18:57 15,8 C 65 % 1010,1 hPa 0,0 l/m 6,0 km/h (2 Bft) NO 42 0 min 0,000 mm 0,0 UV-I 35 W/m 9,2 C 15,8 C 8,0 km/h (2 Bft) 100,00 %
03.04.2016 18:58 15,8 C 65 % 1010,1 hPa 0,0 l/m 5,9 km/h (2 Bft) O-NO 60 0 min 0,000 mm 0,0 UV-I 35 W/m 9,2 C 15,8 C 8,0 km/h (2 Bft) 100,00 %
03.04.2016 18:59 15,8 C 65 % 1010,2 hPa 0,0 l/m 6,2 km/h (2 Bft) N-NO 28 0 min 0,000 mm 0,0 UV-I 35 W/m 9,2 C 15,8 C 8,0 km/h (2 Bft) 95,65 %
03.04.2016 19:00 15,8 C 65 % 1010,2 hPa 0,0 l/m 4,4 km/h (1 Bft) O-NO 61 0 min 0,000 mm 0,0 UV-I 33 W/m 9,2 C 15,8 C 6,4 km/h (2 Bft) 100,00 %
03.04.2016 19:01 15,8 C 65 % 1010,2 hPa 0,0 l/m 6,4 km/h (2 Bft) O-NO 61 0 min 0,076 mm 0,0 UV-I 33 W/m 9,2 C 15,8 C 9,7 km/h (2 Bft) 95,65 %
03.04.2016 19:02 15,8 C 65 % 1010,1 hPa 0,0 l/m 8,1 km/h (2 Bft) O-NO 59 0 min 0,000 mm 0,0 UV-I 32 W/m 9,2 C 14,9 C 9,7 km/h (2 Bft) 96,30 %
03.04.2016 19:03 15,7 C 65 % 1010,1 hPa 0,0 l/m 9,5 km/h (2 Bft) O-NO 58 0 min 0,000 mm 0,0 UV-I 30 W/m 9,1 C 14,1 C 12,9 km/h (3 Bft) 95,65 %
03.04.2016 19:04 15,7 C 65 % 1010,1 hPa 0,0 l/m 10,2 km/h (2 Bft) NO 43 0 min 0,000 mm 0,0 UV-I 30 W/m 9,1 C 13,8 C 12,9 km/h (3 Bft) 100,00 %
03.04.2016 19:05 15,7 C 66 % 1010,1 hPa 0,0 l/m 10,3 km/h (2 Bft) NO 36 0 min 0,000 mm 0,0 UV-I 28 W/m 9,4 C 13,8 C 14,5 km/h (3 Bft) 95,65 %
03.04.2016 19:06 15,7 C 66 % 1010,1 hPa 0,0 l/m 9,0 km/h (2 Bft) NO 39 0 min 0,000 mm 0,0 UV-I 27 W/m 9,4 C 14,3 C 11,3 km/h (2 Bft) 100,00 %
03.04.2016 19:07 15,6 C 66 % 1010,1 hPa 0,0 l/m 10,5 km/h (2 Bft) NO 55 0 min 0,000 mm 0,0 UV-I 26 W/m 9,3 C 13,6 C 14,5 km/h (3 Bft) 100,00 %
03.04.2016 19:08 15,6 C 66 % 1010,0 hPa 0,0 l/m 11,3 km/h (2 Bft) O-NO 59 0 min 0,000 mm 0,0 UV-I 25 W/m 9,3 C 13,2 C 16,1 km/h (3 Bft) 100,00 %
03.04.2016 19:09 15,6 C 66 % 1010,1 hPa 0,0 l/m 13,1 km/h (3 Bft) O-NO 71 0 min 0,000 mm 0,0 UV-I 25 W/m 9,3 C 12,6 C 17,7 km/h (3 Bft) 91,30 %
03.04.2016 19:10 15,6 C 66 % 1010,1 hPa 0,0 l/m 11,1 km/h (2 Bft) O-NO 72 0 min 0,000 mm 0,0 UV-I 23 W/m 9,3 C 13,3 C 16,1 km/h (3 Bft) 100,00 %
03.04.2016 19:11 15,6 C 66 % 1010,1 hPa 0,0 l/m 12,5 km/h (3 Bft) O-NO 63 0 min 0,000 mm 0,0 UV-I 22 W/m 9,3 C 12,8 C 14,5 km/h (3 Bft) 100,00 %
03.04.2016 19:12 15,5 C 66 % 1010,1 hPa 0,0 l/m 10,7 km/h (2 Bft) O-NO 70 0 min 0,000 mm 0,0 UV-I 21 W/m 9,2 C 13,4 C 14,5 km/h (3 Bft) 100,00 %
03.04.2016 19:13 15,5 C 66 % 1010,0 hPa 0,0 l/m 12,4 km/h (3 Bft) O-NO 67 0 min 0,000 mm 0,0 UV-I 20 W/m 9,2 C 12,7 C 16,1 km/h (3 Bft) 100,00 %
03.04.2016 19:14 15,4 C 66 % 1010,1 hPa 0,0 l/m 8,9 km/h (2 Bft) N-NO 29 0 min 0,000 mm 0,0 UV-I 19 W/m 9,1 C 14,1 C 12,9 km/h (3 Bft) 95,65 %
03.04.2016 19:15 15,5 C 66 % 1010,0 hPa 0,0 l/m 9,9 km/h (2 Bft) O-NO 57 0 min 0,000 mm 0,0 UV-I 18 W/m 9,2 C 13,7 C 14,5 km/h (3 Bft) 100,00 %
03.04.2016 19:16 15,4 C 66 % 1010,0 hPa 0,0 l/m 12,4 km/h (3 Bft) O-NO 66 0 min 0,000 mm 0,0 UV-I 16 W/m 9,1 C 12,6 C 16,1 km/h (3 Bft) 95,65 %
03.04.2016 19:17 15,4 C 66 % 1010,0 hPa 0,0 l/m 11,2 km/h (2 Bft) O-NO 65 0 min 0,000 mm 0,0 UV-I 16 W/m 9,1 C 13,0 C 14,5 km/h (3 Bft) 100,00 %
03.04.2016 19:18 15,4 C 66 % 1010,0 hPa 0,0 l/m 13,0 km/h (3 Bft) O-NO 59 0 min 0,000 mm 0,0 UV-I 14 W/m 9,1 C 12,4 C 16,1 km/h (3 Bft) 96,15 %
03.04.2016 19:19 15,4 C 67 % 1010,0 hPa 0,0 l/m 13,0 km/h (3 Bft) O-NO 59 0 min 0,000 mm 0,0 UV-I 13 W/m 9,3 C 12,4 C 16,1 km/h (3 Bft) 95,83 %
03.04.2016 19:20 15,4 C 67 % 1009,9 hPa 0,0 l/m 12,9 km/h (3 Bft) O-NO 74 0 min 0,000 mm 0,0 UV-I 12 W/m 9,3 C 12,4 C 16,1 km/h (3 Bft) 92,31 %
03.04.2016 19:21 15,3 C 67 % 1009,9 hPa 0,0 l/m 13,6 km/h (3 Bft) O-NO 65 0 min 0,000 mm 0,0 UV-I 12 W/m 9,2 C 12,0 C 17,7 km/h (3 Bft) 95,83 %
03.04.2016 19:22 15,3 C 67 % 1009,9 hPa 0,0 l/m 12,9 km/h (3 Bft) O-NO 69 0 min 0,000 mm 0,0 UV-I 11 W/m 9,2 C 12,3 C 16,1 km/h (3 Bft) 95,65 %
03.04.2016 19:23 15,3 C 67 % 1009,8 hPa 0,0 l/m 12,9 km/h (3 Bft) O 85 0 min 0,000 mm 0,0 UV-I 10 W/m 9,2 C 12,3 C 16,1 km/h (3 Bft) 95,83 %
03.04.2016 19:24 15,2 C 67 % 1009,9 hPa 0,0 l/m 12,3 km/h (3 Bft) O-NO 62 0 min 0,000 mm 0,0 UV-I 9 W/m 9,1 C 12,4 C 16,1 km/h (3 Bft) 100,00 %
03.04.2016 19:25 15,2 C 67 % 1009,9 hPa 0,0 l/m 10,9 km/h (2 Bft) O-NO 72 0 min 0,000 mm 0,0 UV-I 9 W/m 9,1 C 12,9 C 12,9 km/h (3 Bft) 95,83 %
03.04.2016 19:26 15,2 C 67 % 1009,9 hPa 0,0 l/m 10,1 km/h (2 Bft) NO 51 0 min 0,000 mm 0,0 UV-I 8 W/m 9,1 C 13,3 C 14,5 km/h (3 Bft) 95,65 %
03.04.2016 19:27 15,2 C 67 % 1009,9 hPa 0,0 l/m 10,4 km/h (2 Bft) O-NO 71 0 min 0,000 mm 0,0 UV-I 7 W/m 9,1 C 13,2 C 14,5 km/h (3 Bft) 100,00 %
03.04.2016 19:28 15,2 C 67 % 1009,8 hPa 0,0 l/m 11,8 km/h (2 Bft) O-NO 69 0 min 0,000 mm 0,0 UV-I 7 W/m 9,1 C 12,6 C 14,5 km/h (3 Bft) 95,65 %
03.04.2016 19:29 15,2 C 67 % 1009,8 hPa 0,0 l/m 11,7 km/h (2 Bft) O-NO 59 0 min 0,000 mm 0,0 UV-I 5 W/m 9,1 C 12,6 C 14,5 km/h (3 Bft) 100,00 %
03.04.2016 19:30 15,2 C 67 % 1009,8 hPa 0,0 l/m 10,1 km/h (2 Bft) O-NO 69 0 min 0,000 mm 0,0 UV-I 5 W/m 9,1 C 13,3 C 14,5 km/h (3 Bft) 95,65 %
03.04.2016 19:31 15,2 C 66 % 1009,8 hPa 0,0 l/m 10,1 km/h (2 Bft) NO 52 0 min 0,000 mm 0,0 UV-I 5 W/m 8,9 C 13,3 C 16,1 km/h (3 Bft) 95,83 %
03.04.2016 19:32 15,2 C 67 % 1009,8 hPa 0,0 l/m 8,7 km/h (2 Bft) NO 56 0 min 0,000 mm 0,0 UV-I 2 W/m 9,1 C 14,0 C 11,3 km/h (2 Bft) 98,41 %
03.04.2016 19:33 15,2 C 67 % 1009,8 hPa 0,0 l/m 9,4 km/h (2 Bft) O-NO 61 0 min 0,000 mm 0,0 UV-I 0 W/m 9,1 C 13,6 C 12,9 km/h (3 Bft) 97,37 %
03.04.2016 19:34 15,2 C 67 % 1009,9 hPa 0,0 l/m 10,1 km/h (2 Bft) O-NO 59 0 min 0,000 mm 0,0 UV-I 0 W/m 9,1 C 13,3 C 14,5 km/h (3 Bft) 95,83 %
03.04.2016 19:35 15,1 C 67 % 1009,9 hPa 0,0 l/m 9,3 km/h (2 Bft) O-NO 67 0 min 0,000 mm 0,0 UV-I 0 W/m 9,0 C 13,6 C 12,9 km/h (3 Bft) 100,00 %
03.04.2016 19:36 15,1 C 67 % 1009,8 hPa 0,0 l/m 9,1 km/h (2 Bft) O-NO 69 0 min 0,000 mm 0,0 UV-I 0 W/m 9,0 C 13,6 C 16,1 km/h (3 Bft) 95,83 %
03.04.2016 19:37 15,1 C 67 % 1009,9 hPa 0,0 l/m 7,4 km/h (2 Bft) O-NO 71 0 min 0,000 mm 0,0 UV-I 0 W/m 9,0 C 14,5 C 9,7 km/h (2 Bft) 95,65 %
03.04.2016 19:38 15,1 C 67 % 1009,9 hPa 0,0 l/m 7,0 km/h (2 Bft) O-NO 71 0 min 0,000 mm 0,0 UV-I 0 W/m 9,0 C 14,8 C 11,3 km/h (2 Bft) 95,83 %
03.04.2016 19:39 15,1 C 67 % 1010,0 hPa 0,0 l/m 6,9 km/h (2 Bft) O-NO 59 0 min 0,000 mm 0,0 UV-I 0 W/m 9,0 C 14,8 C 12,9 km/h (3 Bft) 96,15 %
03.04.2016 19:40 15,1 C 67 % 1010,0 hPa 0,0 l/m 7,0 km/h (2 Bft) O-NO 69 0 min 0,000 mm 0,0 UV-I 0 W/m 9,0 C 14,8 C 11,3 km/h (2 Bft) 100,00 %
03.04.2016 19:41 15,1 C 67 % 1010,0 hPa 0,0 l/m 6,7 km/h (2 Bft) O-NO 72 0 min 0,000 mm 0,0 UV-I 0 W/m 9,0 C 14,9 C 8,0 km/h (2 Bft) 95,65 %
03.04.2016 19:42 15,0 C 67 % 1009,9 hPa 0,0 l/m 6,6 km/h (2 Bft) O-NO 76 0 min 0,000 mm 0,0 UV-I 0 W/m 8,9 C 14,9 C 8,0 km/h (2 Bft) 100,00 %
03.04.2016 19:43 15,0 C 67 % 1010,0 hPa 0,0 l/m 6,0 km/h (2 Bft) NO 37 0 min 0,000 mm 0,0 UV-I 0 W/m 8,9 C 15,0 C 8,0 km/h (2 Bft) 96,15 %
03.04.2016 19:44 15,0 C 67 % 1009,9 hPa 0,0 l/m 7,2 km/h (2 Bft) NO 53 0 min 0,000 mm 0,0 UV-I 0 W/m 8,9 C 14,5 C 9,7 km/h (2 Bft) 95,83 %
03.04.2016 19:45 14,9 C 67 % 1009,9 hPa 0,0 l/m 8,5 km/h (2 Bft) NO 44 0 min 0,000 mm 0,0 UV-I 0 W/m 8,8 C 13,7 C 9,7 km/h (2 Bft) 95,65 %
03.04.2016 19:46 14,9 C 67 % 1009,9 hPa 0,0 l/m 8,4 km/h (2 Bft) O-NO 71 0 min 0,000 mm 0,0 UV-I 0 W/m 8,8 C 13,8 C 14,5 km/h (3 Bft) 96,30 %
03.04.2016 19:47 14,9 C 67 % 1009,9 hPa 0,0 l/m 7,4 km/h (2 Bft) O-NO 58 0 min 0,000 mm 0,0 UV-I 0 W/m 8,8 C 14,3 C 9,7 km/h (2 Bft) 100,00 %
03.04.2016 19:48 14,9 C 67 % 1009,9 hPa 0,0 l/m 8,4 km/h (2 Bft) O-NO 57 0 min 0,000 mm 0,0 UV-I 0 W/m 8,8 C 13,8 C 9,7 km/h (2 Bft) 92,31 %
03.04.2016 19:49 14,9 C 67 % 1009,9 hPa 0,0 l/m 9,0 km/h (2 Bft) O-NO 61 0 min 0,000 mm 0,0 UV-I 0 W/m 8,8 C 13,5 C 12,9 km/h (3 Bft) 100,00 %
03.04.2016 19:50 14,8 C 67 % 1010,0 hPa 0,0 l/m 8,5 km/h (2 Bft) O-NO 58 0 min 0,000 mm 0,0 UV-I 0 W/m 8,7 C 13,6 C 12,9 km/h (3 Bft) 95,65 %
03.04.2016 19:51 14,8 C 67 % 1010,0 hPa 0,0 l/m 9,9 km/h (2 Bft) O-NO 65 0 min 0,000 mm 0,0 UV-I 0 W/m 8,7 C 12,9 C 12,9 km/h (3 Bft) 100,00 %
03.04.2016 19:52 14,8 C 67 % 1010,0 hPa 0,0 l/m 9,3 km/h (2 Bft) NO 55 0 min 0,000 mm 0,0 UV-I 0 W/m 8,7 C 13,2 C 14,5 km/h (3 Bft) 96,15 %
03.04.2016 19:53 14,8 C 67 % 1010,0 hPa 0,0 l/m 8,5 km/h (2 Bft) O-NO 71 0 min 0,000 mm 0,0 UV-I 0 W/m 8,7 C 13,6 C 12,9 km/h (3 Bft) 95,83 %
03.04.2016 19:54 14,8 C 67 % 1010,0 hPa 0,0 l/m 8,4 km/h (2 Bft) O-NO 62 0 min 0,000 mm 0,0 UV-I 0 W/m 8,7 C 13,7 C 12,9 km/h (3 Bft) 95,65 %
03.04.2016 19:55 14,8 C 68 % 1010,0 hPa 0,0 l/m 7,4 km/h (2 Bft) O 79 0 min 0,000 mm 0,0 UV-I 0 W/m 9,0 C 14,2 C 12,9 km/h (3 Bft) 100,00 %
03.04.2016 19:56 14,7 C 67 % 1010,0 hPa 0,0 l/m 8,3 km/h (2 Bft) O-NO 77 0 min 0,000 mm 0,0 UV-I 0 W/m 8,6 C 13,6 C 11,3 km/h (2 Bft) 100,00 %
03.04.2016 19:57 14,7 C 68 % 1010,0 hPa 0,0 l/m 7,5 km/h (2 Bft) NO 44 0 min 0,000 mm 0,0 UV-I 0 W/m 8,9 C 14,1 C 9,7 km/h (2 Bft) 100,00 %
03.04.2016 19:58 14,7 C 67 % 1010,0 hPa 0,0 l/m 8,1 km/h (2 Bft) NO 45 0 min 0,000 mm 0,0 UV-I 0 W/m 8,6 C 13,7 C 12,9 km/h (3 Bft) 95,65 %
03.04.2016 19:59 14,7 C 67 % 1010,0 hPa 0,0 l/m 8,0 km/h (2 Bft) O-NO 63 0 min 0,000 mm 0,0 UV-I 0 W/m 8,6 C 13,8 C 11,3 km/h (2 Bft) 100,00 %
03.04.2016 20:00 14,7 C 67 % 1009,9 hPa 0,0 l/m 10,2 km/h (2 Bft) O-NO 66 0 min 0,000 mm 0,0 UV-I 0 W/m 8,6 C 12,7 C 14,5 km/h (3 Bft) 100,00 %
03.04.2016 20:01 14,7 C 67 % 1009,9 hPa 0,0 l/m 9,3 km/h (2 Bft) O-NO 61 0 min 0,051 mm 0,0 UV-I 0 W/m 8,6 C 13,1 C 14,5 km/h (3 Bft) 91,67 %
03.04.2016 20:02 14,7 C 67 % 1009,9 hPa 0,0 l/m 10,5 km/h (2 Bft) O-NO 57 0 min 0,000 mm 0,0 UV-I 0 W/m 8,6 C 12,6 C 16,1 km/h (3 Bft) 91,67 %
03.04.2016 20:03 14,7 C 67 % 1009,9 hPa 0,0 l/m 12,1 km/h (2 Bft) NO 41 0 min 0,000 mm 0,0 UV-I 0 W/m 8,6 C 11,9 C 14,5 km/h (3 Bft) 96,15 %
03.04.2016 20:04 14,7 C 67 % 1009,9 hPa 0,0 l/m 10,4 km/h (2 Bft) O-NO 66 0 min 0,000 mm 0,0 UV-I 0 W/m 8,6 C 12,6 C 14,5 km/h (3 Bft) 100,00 %
03.04.2016 20:05 14,7 C 67 % 1009,9 hPa 0,0 l/m 11,4 km/h (2 Bft) O-NO 63 0 min 0,000 mm 0,0 UV-I 0 W/m 8,6 C 12,2 C 14,5 km/h (3 Bft) 100,00 %
03.04.2016 20:06 14,7 C 67 % 1009,9 hPa 0,0 l/m 10,1 km/h (2 Bft) O-NO 69 0 min 0,000 mm 0,0 UV-I 0 W/m 8,6 C 12,7 C 14,5 km/h (3 Bft) 100,00 %
03.04.2016 20:07 14,7 C 67 % 1009,9 hPa 0,0 l/m 10,0 km/h (2 Bft) O-NO 66 0 min 0,000 mm 0,0 UV-I 0 W/m 8,6 C 12,8 C 14,5 km/h (3 Bft) 100,00 %
03.04.2016 20:08 14,7 C 67 % 1009,9 hPa 0,0 l/m 11,5 km/h (2 Bft) O-NO 61 0 min 0,000 mm 0,0 UV-I 0 W/m 8,6 C 12,1 C 16,1 km/h (3 Bft) 100,00 %
03.04.2016 20:09 14,7 C 67 % 1009,9 hPa 0,0 l/m 9,9 km/h (2 Bft) O 79 0 min 0,000 mm 0,0 UV-I 0 W/m 8,6 C 12,8 C 14,5 km/h (3 Bft) 91,30 %
03.04.2016 20:10 14,7 C 67 % 1009,9 hPa 0,0 l/m 10,8 km/h (2 Bft) O-NO 69 0 min 0,000 mm 0,0 UV-I 0 W/m 8,6 C 12,4 C 16,1 km/h (3 Bft) 100,00 %
03.04.2016 20:11 14,7 C 67 % 1009,9 hPa 0,0 l/m 10,7 km/h (2 Bft) NO 54 0 min 0,000 mm 0,0 UV-I 0 W/m 8,6 C 12,5 C 12,9 km/h (3 Bft) 100,00 %
03.04.2016 20:12 14,6 C 67 % 1009,9 hPa 0,0 l/m 12,0 km/h (2 Bft) O-NO 61 0 min 0,000 mm 0,0 UV-I 0 W/m 8,5 C 11,8 C 19,3 km/h (3 Bft) 100,00 %
03.04.2016 20:13 14,6 C 67 % 1009,9 hPa 0,0 l/m 10,7 km/h (2 Bft) O 89 0 min 0,000 mm 0,0 UV-I 0 W/m 8,5 C 12,4 C 16,1 km/h (3 Bft) 100,00 %
03.04.2016 20:14 14,6 C 67 % 1009,9 hPa 0,0 l/m 11,5 km/h (2 Bft) O-NO 74 0 min 0,000 mm 0,0 UV-I 0 W/m 8,5 C 12,0 C 16,1 km/h (3 Bft) 100,00 %
03.04.2016 20:15 14,6 C 67 % 1009,9 hPa 0,0 l/m 10,8 km/h (2 Bft) NO 51 0 min 0,000 mm 0,0 UV-I 0 W/m 8,5 C 12,3 C 16,1 km/h (3 Bft) 100,00 %
03.04.2016 20:16 14,6 C 67 % 1010,0 hPa 0,0 l/m 13,9 km/h (3 Bft) O 83 0 min 0,000 mm 0,0 UV-I 0 W/m 8,5 C 11,1 C 16,1 km/h (3 Bft) 100,00 %
03.04.2016 20:17 14,6 C 68 % 1010,0 hPa 0,0 l/m 14,5 km/h (3 Bft) O-NO 65 0 min 0,000 mm 0,0 UV-I 0 W/m 8,8 C 10,9 C 19,3 km/h (3 Bft) 100,00 %
03.04.2016 20:18 14,6 C 67 % 1009,9 hPa 0,0 l/m 13,3 km/h (3 Bft) O-NO 58 0 min 0,000 mm 0,0 UV-I 0 W/m 8,5 C 11,3 C 19,3 km/h (3 Bft) 100,00 %
03.04.2016 20:19 14,6 C 67 % 1009,9 hPa 0,0 l/m 13,3 km/h (3 Bft) O-NO 73 0 min 0,000 mm 0,0 UV-I 0 W/m 8,5 C 11,3 C 17,7 km/h (3 Bft) 100,00 %
03.04.2016 20:20 14,6 C 67 % 1009,9 hPa 0,0 l/m 15,2 km/h (3 Bft) O-NO 77 0 min 0,000 mm 0,0 UV-I 0 W/m 8,5 C 10,6 C 19,3 km/h (3 Bft) 95,83 %
03.04.2016 20:21 14,6 C 67 % 1010,0 hPa 0,0 l/m 14,4 km/h (3 Bft) O-NO 73 0 min 0,000 mm 0,0 UV-I 0 W/m 8,5 C 10,9 C 19,3 km/h (3 Bft) 100,00 %
03.04.2016 20:22 14,7 C 67 % 1009,9 hPa 0,0 l/m 15,5 km/h (3 Bft) O-NO 77 0 min 0,000 mm 0,0 UV-I 0 W/m 8,6 C 10,7 C 20,9 km/h (4 Bft) 100,00 %
03.04.2016 20:23 14,7 C 66 % 1009,9 hPa 0,0 l/m 11,5 km/h (2 Bft) O-NO 57 0 min 0,000 mm 0,0 UV-I 0 W/m 8,4 C 12,1 C 16,1 km/h (3 Bft) 100,00 %
03.04.2016 20:24 14,7 C 66 % 1009,9 hPa 0,0 l/m 15,0 km/h (3 Bft) NO 56 0 min 0,000 mm 0,0 UV-I 0 W/m 8,4 C 10,8 C 19,3 km/h (3 Bft) 100,00 %
03.04.2016 20:25 14,7 C 66 % 1009,9 hPa 0,0 l/m 13,1 km/h (3 Bft) NO 44 0 min 0,000 mm 0,0 UV-I 0 W/m 8,4 C 11,5 C 19,3 km/h (3 Bft) 100,00 %
03.04.2016 20:26 14,8 C 66 % 1009,9 hPa 0,0 l/m 13,0 km/h (3 Bft) O 81 0 min 0,000 mm 0,0 UV-I 0 W/m 8,5 C 11,7 C 19,3 km/h (3 Bft) 100,00 %
03.04.2016 20:27 14,8 C 66 % 1009,9 hPa 0,0 l/m 14,0 km/h (3 Bft) O-NO 67 0 min 0,000 mm 0,0 UV-I 0 W/m 8,5 C 11,3 C 19,3 km/h (3 Bft) 100,00 %
03.04.2016 20:28 14,8 C 66 % 1009,9 hPa 0,0 l/m 13,2 km/h (3 Bft) O 82 0 min 0,000 mm 0,0 UV-I 0 W/m 8,5 C 11,6 C 19,3 km/h (3 Bft) 100,00 %
03.04.2016 20:29 14,9 C 65 % 1009,8 hPa 0,0 l/m 17,8 km/h (3 Bft) O-NO 69 0 min 0,000 mm 0,0 UV-I 0 W/m 8,4 C 10,2 C 20,9 km/h (4 Bft) 100,00 %
03.04.2016 20:30 14,9 C 65 % 1009,8 hPa 0,0 l/m 18,2 km/h (3 Bft) O 89 0 min 0,000 mm 0,0 UV-I 0 W/m 8,4 C 10,1 C 22,5 km/h (4 Bft) 100,00 %
03.04.2016 20:31 14,9 C 64 % 1009,8 hPa 0,0 l/m 15,0 km/h (3 Bft) O 89 0 min 0,000 mm 0,0 UV-I 0 W/m 8,2 C 11,1 C 17,7 km/h (3 Bft) 100,00 %
03.04.2016 20:32 15,0 C 64 % 1009,8 hPa 0,0 l/m 19,2 km/h (3 Bft) O 79 0 min 0,000 mm 0,0 UV-I 0 W/m 8,2 C 10,0 C 25,7 km/h (4 Bft) 100,00 %
03.04.2016 20:33 15,0 C 64 % 1009,8 hPa 0,0 l/m 19,0 km/h (3 Bft) O 82 0 min 0,000 mm 0,0 UV-I 0 W/m 8,2 C 10,0 C 24,1 km/h (4 Bft) 100,00 %
03.04.2016 20:34 15,1 C 64 % 1009,8 hPa 0,0 l/m 16,6 km/h (3 Bft) O-NO 69 0 min 0,000 mm 0,0 UV-I 0 W/m 8,3 C 10,8 C 20,9 km/h (4 Bft) 100,00 %
03.04.2016 20:35 15,1 C 64 % 1009,7 hPa 0,0 l/m 14,1 km/h (3 Bft) O-NO 71 0 min 0,000 mm 0,0 UV-I 0 W/m 8,3 C 11,6 C 20,9 km/h (4 Bft) 100,00 %
03.04.2016 20:36 15,1 C 64 % 1009,8 hPa 0,0 l/m 12,5 km/h (3 Bft) NO 56 0 min 0,000 mm 0,0 UV-I 0 W/m 8,3 C 12,2 C 17,7 km/h (3 Bft) 96,15 %
03.04.2016 20:37 15,1 C 64 % 1009,7 hPa 0,0 l/m 13,9 km/h (3 Bft) O 96 0 min 0,000 mm 0,0 UV-I 0 W/m 8,3 C 11,7 C 19,3 km/h (3 Bft) 100,00 %
03.04.2016 20:38 15,2 C 64 % 1009,7 hPa 0,0 l/m 12,1 km/h (2 Bft) O 86 0 min 0,000 mm 0,0 UV-I 0 W/m 8,4 C 12,5 C 17,7 km/h (3 Bft) 100,00 %
03.04.2016 20:39 15,2 C 64 % 1009,8 hPa 0,0 l/m 9,9 km/h (2 Bft) O-NO 61 0 min 0,000 mm 0,0 UV-I 0 W/m 8,4 C 13,4 C 16,1 km/h (3 Bft) 100,00 %
03.04.2016 20:40 15,1 C 64 % 1009,8 hPa 0,0 l/m 11,7 km/h (2 Bft) O 88 0 min 0,000 mm 0,0 UV-I 0 W/m 8,3 C 12,5 C 19,3 km/h (3 Bft) 100,00 %
03.04.2016 20:41 15,1 C 64 % 1009,8 hPa 0,0 l/m 15,0 km/h (3 Bft) O-SO 109 0 min 0,000 mm 0,0 UV-I 0 W/m 8,3 C 11,3 C 17,7 km/h (3 Bft) 100,00 %
03.04.2016 20:42 15,1 C 64 % 1009,8 hPa 0,0 l/m 16,0 km/h (3 Bft) O 87 0 min 0,000 mm 0,0 UV-I 0 W/m 8,3 C 11,0 C 20,9 km/h (4 Bft) 100,00 %
03.04.2016 20:43 15,1 C 64 % 1009,8 hPa 0,0 l/m 14,6 km/h (3 Bft) O 88 0 min 0,000 mm 0,0 UV-I 0 W/m 8,3 C 11,4 C 20,9 km/h (4 Bft) 100,00 %
03.04.2016 20:44 15,1 C 64 % 1009,8 hPa 0,0 l/m 13,9 km/h (3 Bft) O-SO 111 0 min 0,000 mm 0,0 UV-I 0 W/m 8,3 C 11,7 C 19,3 km/h (3 Bft) 100,00 %
03.04.2016 20:45 15,1 C 64 % 1009,8 hPa 0,0 l/m 12,0 km/h (2 Bft) O 88 0 min 0,000 mm 0,0 UV-I 0 W/m 8,3 C 12,4 C 19,3 km/h (3 Bft) 95,65 %
03.04.2016 20:46 15,1 C 64 % 1009,8 hPa 0,0 l/m 14,4 km/h (3 Bft) O-SO 119 0 min 0,000 mm 0,0 UV-I 0 W/m 8,3 C 11,5 C 20,9 km/h (4 Bft) 100,00 %
03.04.2016 20:47 15,0 C 64 % 1009,7 hPa 0,0 l/m 11,9 km/h (2 Bft) O 84 0 min 0,000 mm 0,0 UV-I 0 W/m 8,2 C 12,3 C 22,5 km/h (4 Bft) 100,00 %
03.04.2016 20:48 15,0 C 64 % 1009,8 hPa 0,0 l/m 12,1 km/h (2 Bft) O 92 0 min 0,000 mm 0,0 UV-I 0 W/m 8,2 C 12,2 C 19,3 km/h (3 Bft) 100,00 %
03.04.2016 20:49 15,1 C 64 % 1009,7 hPa 0,0 l/m 17,0 km/h (3 Bft) O-NO 74 0 min 0,000 mm 0,0 UV-I 0 W/m 8,3 C 10,7 C 20,9 km/h (4 Bft) 100,00 %
03.04.2016 20:50 15,1 C 64 % 1009,7 hPa 0,0 l/m 15,2 km/h (3 Bft) O 82 0 min 0,000 mm 0,0 UV-I 0 W/m 8,3 C 11,2 C 20,9 km/h (4 Bft) 95,83 %
03.04.2016 20:51 15,1 C 64 % 1009,7 hPa 0,0 l/m 16,7 km/h (3 Bft) O-NO 65 0 min 0,000 mm 0,0 UV-I 0 W/m 8,3 C 10,8 C 25,7 km/h (4 Bft) 100,00 %
03.04.2016 20:52 15,1 C 64 % 1009,7 hPa 0,0 l/m 11,6 km/h (2 Bft) O 101 0 min 0,000 mm 0,0 UV-I 0 W/m 8,3 C 12,5 C 17,7 km/h (3 Bft) 100,00 %
03.04.2016 20:53 15,1 C 64 % 1009,7 hPa 0,0 l/m 10,6 km/h (2 Bft) O 82 0 min 0,000 mm 0,0 UV-I 0 W/m 8,3 C 13,0 C 14,5 km/h (3 Bft) 100,00 %
03.04.2016 20:54 15,1 C 64 % 1009,7 hPa 0,0 l/m 12,8 km/h (3 Bft) O-NO 75 0 min 0,000 mm 0,0 UV-I 0 W/m 8,3 C 12,1 C 17,7 km/h (3 Bft) 100,00 %
03.04.2016 20:55 15,1 C 64 % 1009,7 hPa 0,0 l/m 14,7 km/h (3 Bft) NO 55 0 min 0,000 mm 0,0 UV-I 0 W/m 8,3 C 11,4 C 20,9 km/h (4 Bft) 100,00 %
03.04.2016 20:56 15,0 C 64 % 1009,7 hPa 0,0 l/m 13,3 km/h (3 Bft) NO 55 0 min 0,000 mm 0,0 UV-I 0 W/m 8,2 C 11,8 C 19,3 km/h (3 Bft) 100,00 %
03.04.2016 20:57 15,0 C 64 % 1009,7 hPa 0,0 l/m 14,1 km/h (3 Bft) O-NO 61 0 min 0,000 mm 0,0 UV-I 0 W/m 8,2 C 11,5 C 19,3 km/h (3 Bft) 100,00 %
03.04.2016 20:58 15,0 C 64 % 1009,7 hPa 0,0 l/m 13,0 km/h (3 Bft) O-NO 69 0 min 0,000 mm 0,0 UV-I 0 W/m 8,2 C 11,9 C 20,9 km/h (4 Bft) 100,00 %
03.04.2016 20:59 15,0 C 64 % 1009,7 hPa 0,0 l/m 16,0 km/h (3 Bft) O-NO 71 0 min 0,000 mm 0,0 UV-I 0 W/m 8,2 C 10,9 C 19,3 km/h (3 Bft) 100,00 %
03.04.2016 21:00 15,0 C 64 % 1009,7 hPa 0,0 l/m 13,7 km/h (3 Bft) O-NO 69 0 min 0,000 mm 0,0 UV-I 0 W/m 8,2 C 11,6 C 19,3 km/h (3 Bft) 100,00 %
03.04.2016 21:01 15,0 C 64 % 1009,7 hPa 0,0 l/m 11,5 km/h (2 Bft) O 90 0 min 0,051 mm 0,0 UV-I 0 W/m 8,2 C 12,5 C 16,1 km/h (3 Bft) 100,00 %
03.04.2016 21:02 14,9 C 64 % 1009,6 hPa 0,0 l/m 13,3 km/h (3 Bft) O-NO 77 0 min 0,000 mm 0,0 UV-I 0 W/m 8,2 C 11,7 C 17,7 km/h (3 Bft) 100,00 %
03.04.2016 21:03 15,0 C 64 % 1009,7 hPa 0,0 l/m 14,0 km/h (3 Bft) O-NO 77 0 min 0,000 mm 0,0 UV-I 0 W/m 8,2 C 11,5 C 19,3 km/h (3 Bft) 100,00 %
03.04.2016 21:04 14,9 C 64 % 1009,5 hPa 0,0 l/m 14,6 km/h (3 Bft) O 84 0 min 0,000 mm 0,0 UV-I 0 W/m 8,2 C 11,2 C 16,1 km/h (3 Bft) 100,00 %
03.04.2016 21:05 14,9 C 64 % 1009,5 hPa 0,0 l/m 14,8 km/h (3 Bft) O-NO 62 0 min 0,000 mm 0,0 UV-I 0 W/m 8,2 C 11,1 C 17,7 km/h (3 Bft) 100,00 %
03.04.2016 21:06 14,9 C 64 % 1009,5 hPa 0,0 l/m 11,9 km/h (2 Bft) O-NO 71 0 min 0,000 mm 0,0 UV-I 0 W/m 8,2 C 12,2 C 17,7 km/h (3 Bft) 95,83 %
03.04.2016 21:07 14,9 C 64 % 1009,5 hPa 0,0 l/m 11,6 km/h (2 Bft) O-NO 71 0 min 0,000 mm 0,0 UV-I 0 W/m 8,2 C 12,3 C 17,7 km/h (3 Bft) 100,00 %
03.04.2016 21:08 14,9 C 64 % 1009,5 hPa 0,0 l/m 13,2 km/h (3 Bft) O-NO 74 0 min 0,000 mm 0,0 UV-I 0 W/m 8,2 C 11,7 C 17,7 km/h (3 Bft) 95,83 %
03.04.2016 21:09 14,8 C 64 % 1009,4 hPa 0,0 l/m 12,7 km/h (3 Bft) O-NO 65 0 min 0,000 mm 0,0 UV-I 0 W/m 8,1 C 11,8 C 20,9 km/h (4 Bft) 91,67 %
03.04.2016 21:10 14,8 C 64 % 1009,4 hPa 0,0 l/m 12,7 km/h (3 Bft) O-NO 71 0 min 0,000 mm 0,0 UV-I 0 W/m 8,1 C 11,8 C 17,7 km/h (3 Bft) 100,00 %
03.04.2016 21:11 14,8 C 65 % 1009,4 hPa 0,0 l/m 11,3 km/h (2 Bft) O-NO 57 0 min 0,000 mm 0,0 UV-I 0 W/m 8,3 C 12,3 C 14,5 km/h (3 Bft) 100,00 %
03.04.2016 21:12 14,7 C 65 % 1009,4 hPa 0,0 l/m 8,2 km/h (2 Bft) O-NO 64 0 min 0,000 mm 0,0 UV-I 0 W/m 8,2 C 13,7 C 11,3 km/h (2 Bft) 100,00 %
03.04.2016 21:13 14,7 C 65 % 1009,4 hPa 0,0 l/m 7,6 km/h (2 Bft) O-NO 67 0 min 0,000 mm 0,0 UV-I 0 W/m 8,2 C 14,0 C 11,3 km/h (2 Bft) 95,83 %
03.04.2016 21:14 14,7 C 65 % 1009,4 hPa 0,0 l/m 7,9 km/h (2 Bft) O-NO 68 0 min 0,000 mm 0,0 UV-I 0 W/m 8,2 C 13,8 C 11,3 km/h (2 Bft) 100,00 %
03.04.2016 21:15 14,6 C 65 % 1009,5 hPa 0,0 l/m 7,4 km/h (2 Bft) O-NO 63 0 min 0,000 mm 0,0 UV-I 0 W/m 8,1 C 14,0 C 9,7 km/h (2 Bft) 100,00 %
03.04.2016 21:16 14,6 C 65 % 1009,5 hPa 0,0 l/m 4,8 km/h (1 Bft) O-NO 72 0 min 0,000 mm 0,0 UV-I 0 W/m 8,1 C 14,6 C 6,4 km/h (2 Bft) 100,00 %
03.04.2016 21:17 14,6 C 65 % 1009,5 hPa 0,0 l/m 5,8 km/h (2 Bft) O-NO 64 0 min 0,000 mm 0,0 UV-I 0 W/m 8,1 C 14,6 C 9,7 km/h (2 Bft) 100,00 %
03.04.2016 21:18 14,6 C 65 % 1009,5 hPa 0,0 l/m 7,7 km/h (2 Bft) O-NO 65 0 min 0,000 mm 0,0 UV-I 0 W/m 8,1 C 13,8 C 11,3 km/h (2 Bft) 95,65 %
03.04.2016 21:19 14,5 C 65 % 1009,5 hPa 0,0 l/m 6,1 km/h (2 Bft) O-NO 67 0 min 0,000 mm 0,0 UV-I 0 W/m 8,0 C 14,5 C 6,4 km/h (2 Bft) 95,83 %
03.04.2016 21:20 14,5 C 65 % 1009,5 hPa 0,0 l/m 6,5 km/h (2 Bft) O-NO 63 0 min 0,000 mm 0,0 UV-I 0 W/m 8,0 C 14,5 C 8,0 km/h (2 Bft) 100,00 %
03.04.2016 21:21 14,5 C 65 % 1009,5 hPa 0,0 l/m 6,9 km/h (2 Bft) O-NO 67 0 min 0,000 mm 0,0 UV-I 0 W/m 8,0 C 14,2 C 11,3 km/h (2 Bft) 95,83 %
03.04.2016 21:22 14,4 C 65 % 1009,5 hPa 0,0 l/m 11,7 km/h (2 Bft) NO 45 0 min 0,000 mm 0,0 UV-I 0 W/m 7,9 C 11,7 C 14,5 km/h (3 Bft) 95,65 %
03.04.2016 21:23 14,5 C 65 % 1009,5 hPa 0,0 l/m 8,2 km/h (2 Bft) O-NO 69 0 min 0,000 mm 0,0 UV-I 0 W/m 8,0 C 13,5 C 12,9 km/h (3 Bft) 95,83 %
03.04.2016 21:24 14,4 C 65 % 1009,5 hPa 0,0 l/m 7,7 km/h (2 Bft) O-NO 69 0 min 0,000 mm 0,0 UV-I 0 W/m 7,9 C 13,6 C 11,3 km/h (2 Bft) 95,65 %
03.04.2016 21:25 14,4 C 65 % 1009,4 hPa 0,0 l/m 8,7 km/h (2 Bft) O-NO 64 0 min 0,000 mm 0,0 UV-I 0 W/m 7,9 C 13,1 C 12,9 km/h (3 Bft) 95,83 %
03.04.2016 21:26 14,4 C 65 % 1009,4 hPa 0,0 l/m 9,7 km/h (2 Bft) O-NO 62 0 min 0,000 mm 0,0 UV-I 0 W/m 7,9 C 12,6 C 14,5 km/h (3 Bft) 95,65 %
03.04.2016 21:27 14,4 C 65 % 1009,5 hPa 0,0 l/m 11,2 km/h (2 Bft) O-NO 76 0 min 0,000 mm 0,0 UV-I 0 W/m 7,9 C 11,9 C 14,5 km/h (3 Bft) 95,83 %
03.04.2016 21:28 14,4 C 65 % 1009,5 hPa 0,0 l/m 11,0 km/h (2 Bft) O-NO 76 0 min 0,000 mm 0,0 UV-I 0 W/m 7,9 C 12,0 C 14,5 km/h (3 Bft) 86,96 %
03.04.2016 21:29 14,4 C 65 % 1009,5 hPa 0,0 l/m 8,0 km/h (2 Bft) O 85 0 min 0,000 mm 0,0 UV-I 0 W/m 7,9 C 13,5 C 11,3 km/h (2 Bft) 100,00 %
03.04.2016 21:30 14,4 C 65 % 1009,5 hPa 0,0 l/m 8,0 km/h (2 Bft) O-NO 69 0 min 0,000 mm 0,0 UV-I 0 W/m 7,9 C 13,5 C 11,3 km/h (2 Bft) 96,30 %
03.04.2016 21:31 14,4 C 65 % 1009,5 hPa 0,0 l/m 10,7 km/h (2 Bft) NO 38 0 min 0,000 mm 0,0 UV-I 0 W/m 7,9 C 12,1 C 16,1 km/h (3 Bft) 100,00 %
03.04.2016 21:32 14,4 C 65 % 1009,5 hPa 0,0 l/m 7,6 km/h (2 Bft) O-NO 59 0 min 0,000 mm 0,0 UV-I 0 W/m 7,9 C 13,7 C 11,3 km/h (2 Bft) 96,30 %
03.04.2016 21:33 14,4 C 65 % 1009,5 hPa 0,0 l/m 7,0 km/h (2 Bft) NO 54 0 min 0,000 mm 0,0 UV-I 0 W/m 7,9 C 14,1 C 9,7 km/h (2 Bft) 100,00 %
03.04.2016 21:34 14,4 C 66 % 1009,5 hPa 0,0 l/m 4,8 km/h (1 Bft) NO 52 0 min 0,000 mm 0,0 UV-I 0 W/m 8,1 C 14,4 C 6,4 km/h (2 Bft) 95,83 %
03.04.2016 21:35 14,3 C 66 % 1009,5 hPa 0,0 l/m 4,8 km/h (1 Bft) O-NO 59 0 min 0,000 mm 0,0 UV-I 0 W/m 8,0 C 14,3 C 8,0 km/h (2 Bft) 91,30 %
03.04.2016 21:36 14,3 C 66 % 1009,4 hPa 0,0 l/m 6,0 km/h (2 Bft) O-NO 59 0 min 0,000 mm 0,0 UV-I 0 W/m 8,0 C 14,3 C 8,0 km/h (2 Bft) 100,00 %
03.04.2016 21:37 14,2 C 66 % 1009,4 hPa 0,0 l/m 7,7 km/h (2 Bft) O-NO 61 0 min 0,000 mm 0,0 UV-I 0 W/m 7,9 C 13,4 C 11,3 km/h (2 Bft) 91,30 %
03.04.2016 21:38 14,2 C 66 % 1009,4 hPa 0,0 l/m 6,8 km/h (2 Bft) O 86 0 min 0,000 mm 0,0 UV-I 0 W/m 7,9 C 14,0 C 9,7 km/h (2 Bft) 100,00 %
03.04.2016 21:39 14,2 C 66 % 1009,4 hPa 0,0 l/m 7,1 km/h (2 Bft) NO 51 0 min 0,000 mm 0,0 UV-I 0 W/m 7,9 C 13,8 C 11,3 km/h (2 Bft) 91,30 %
03.04.2016 21:40 14,1 C 66 % 1009,4 hPa 0,0 l/m 6,8 km/h (2 Bft) O-NO 75 0 min 0,000 mm 0,0 UV-I 0 W/m 7,8 C 13,9 C 11,3 km/h (2 Bft) 100,00 %
03.04.2016 21:41 14,1 C 66 % 1009,5 hPa 0,0 l/m 6,3 km/h (2 Bft) O-NO 65 0 min 0,000 mm 0,0 UV-I 0 W/m 7,8 C 14,1 C 11,3 km/h (2 Bft) 91,30 %
03.04.2016 21:42 14,0 C 67 % 1009,4 hPa 0,0 l/m 6,6 km/h (2 Bft) O-NO 72 0 min 0,000 mm 0,0 UV-I 0 W/m 8,0 C 13,9 C 11,3 km/h (2 Bft) 100,00 %
03.04.2016 21:43 13,8 C 68 % 1009,4 hPa 0,0 l/m 6,3 km/h (2 Bft) NO 41 0 min 0,000 mm 0,0 UV-I 0 W/m 8,0 C 13,8 C 9,7 km/h (2 Bft) 93,33 %
03.04.2016 21:44 13,7 C 68 % 1009,4 hPa 0,0 l/m 5,8 km/h (2 Bft) NO 40 0 min 0,000 mm 0,0 UV-I 0 W/m 7,9 C 13,7 C 8,0 km/h (2 Bft) 100,00 %
03.04.2016 21:45 13,4 C 69 % 1009,5 hPa 0,0 l/m 5,5 km/h (1 Bft) NO 46 0 min 0,000 mm 0,0 UV-I 0 W/m 7,8 C 13,4 C 6,4 km/h (2 Bft) 95,83 %
03.04.2016 21:46 13,3 C 70 % 1009,4 hPa 0,0 l/m 4,3 km/h (1 Bft) N-NO 31 0 min 0,000 mm 0,0 UV-I 0 W/m 7,9 C 13,3 C 4,8 km/h (1 Bft) 95,65 %
03.04.2016 21:47 13,1 C 71 % 1009,4 hPa 0,0 l/m 5,3 km/h (1 Bft) N-NO 23 0 min 0,000 mm 0,0 UV-I 0 W/m 8,0 C 13,1 C 8,0 km/h (2 Bft) 95,83 %
03.04.2016 21:48 13,0 C 71 % 1009,5 hPa 0,0 l/m 5,3 km/h (1 Bft) N-NO 26 0 min 0,000 mm 0,0 UV-I 0 W/m 7,9 C 13,0 C 6,4 km/h (2 Bft) 95,65 %
03.04.2016 21:49 12,9 C 71 % 1009,5 hPa 0,0 l/m 5,7 km/h (1 Bft) N-NO 31 0 min 0,000 mm 0,0 UV-I 0 W/m 7,8 C 12,9 C 8,0 km/h (2 Bft) 100,00 %
03.04.2016 21:50 12,9 C 71 % 1009,5 hPa 0,0 l/m 4,7 km/h (1 Bft) N-NO 32 0 min 0,000 mm 0,0 UV-I 0 W/m 7,8 C 12,9 C 6,4 km/h (2 Bft) 95,65 %
03.04.2016 21:51 12,8 C 71 % 1009,5 hPa 0,0 l/m 5,0 km/h (1 Bft) N-NO 20 0 min 0,000 mm 0,0 UV-I 0 W/m 7,7 C 12,8 C 8,0 km/h (2 Bft) 100,00 %
03.04.2016 21:52 12,9 C 71 % 1009,6 hPa 0,0 l/m 6,1 km/h (2 Bft) N-NO 28 0 min 0,000 mm 0,0 UV-I 0 W/m 7,8 C 12,9 C 8,0 km/h (2 Bft) 91,30 %
03.04.2016 21:53 12,9 C 71 % 1009,5 hPa 0,0 l/m 5,3 km/h (1 Bft) NO 34 0 min 0,000 mm 0,0 UV-I 0 W/m 7,8 C 12,9 C 6,4 km/h (2 Bft) 100,00 %
03.04.2016 21:54 12,9 C 71 % 1009,6 hPa 0,0 l/m 6,0 km/h (2 Bft) N 11 0 min 0,000 mm 0,0 UV-I 0 W/m 7,8 C 12,9 C 8,0 km/h (2 Bft) 95,65 %
03.04.2016 21:55 12,9 C 71 % 1009,5 hPa 0,0 l/m 6,6 km/h (2 Bft) N-NO 32 0 min 0,000 mm 0,0 UV-I 0 W/m 7,8 C 12,8 C 8,0 km/h (2 Bft) 100,00 %
03.04.2016 21:56 13,0 C 71 % 1009,5 hPa 0,0 l/m 5,5 km/h (1 Bft) N-NO 33 0 min 0,000 mm 0,0 UV-I 0 W/m 7,9 C 13,0 C 6,4 km/h (2 Bft) 100,00 %
03.04.2016 21:57 12,9 C 71 % 1009,5 hPa 0,0 l/m 6,8 km/h (2 Bft) N-NO 28 0 min 0,000 mm 0,0 UV-I 0 W/m 7,8 C 12,7 C 8,0 km/h (2 Bft) 100,00 %
03.04.2016 21:58 12,9 C 71 % 1009,5 hPa 0,0 l/m 6,2 km/h (2 Bft) N-NO 33 0 min 0,000 mm 0,0 UV-I 0 W/m 7,8 C 12,9 C 8,0 km/h (2 Bft) 95,65 %
03.04.2016 21:59 12,9 C 71 % 1009,5 hPa 0,0 l/m 6,6 km/h (2 Bft) NO 51 0 min 0,000 mm 0,0 UV-I 0 W/m 7,8 C 12,8 C 8,0 km/h (2 Bft) 95,83 %
03.04.2016 22:00 12,9 C 71 % 1009,4 hPa 0,0 l/m 7,2 km/h (2 Bft) N-NO 26 0 min 0,000 mm 0,0 UV-I 0 W/m 7,8 C 12,4 C 8,0 km/h (2 Bft) 100,00 %
03.04.2016 22:01 12,9 C 71 % 1009,4 hPa 0,0 l/m 7,6 km/h (2 Bft) O-NO 64 0 min 0,025 mm 0,0 UV-I 0 W/m 7,8 C 12,1 C 11,3 km/h (2 Bft) 100,00 %
03.04.2016 22:02 12,9 C 71 % 1009,4 hPa 0,0 l/m 5,8 km/h (2 Bft) O-NO 63 0 min 0,000 mm 0,0 UV-I 0 W/m 7,8 C 12,9 C 8,0 km/h (2 Bft) 95,65 %
03.04.2016 22:03 13,0 C 71 % 1009,4 hPa 0,0 l/m 5,1 km/h (1 Bft) O-NO 63 0 min 0,000 mm 0,0 UV-I 0 W/m 7,9 C 13,0 C 6,4 km/h (2 Bft) 96,30 %
03.04.2016 22:04 13,1 C 70 % 1009,4 hPa 0,0 l/m 5,5 km/h (1 Bft) NO 54 0 min 0,000 mm 0,0 UV-I 0 W/m 7,8 C 13,1 C 6,4 km/h (2 Bft) 95,65 %
03.04.2016 22:05 13,2 C 70 % 1009,5 hPa 0,0 l/m 5,8 km/h (2 Bft) O-NO 63 0 min 0,000 mm 0,0 UV-I 0 W/m 7,9 C 13,2 C 8,0 km/h (2 Bft) 100,00 %
03.04.2016 22:06 13,2 C 70 % 1009,5 hPa 0,0 l/m 5,4 km/h (1 Bft) O-NO 67 0 min 0,000 mm 0,0 UV-I 0 W/m 7,9 C 13,2 C 6,4 km/h (2 Bft) 95,65 %
03.04.2016 22:07 13,2 C 70 % 1009,5 hPa 0,0 l/m 5,2 km/h (1 Bft) NO 55 0 min 0,000 mm 0,0 UV-I 0 W/m 7,9 C 13,2 C 8,0 km/h (2 Bft) 95,83 %
03.04.2016 22:08 13,2 C 70 % 1009,5 hPa 0,0 l/m 4,9 km/h (1 Bft) O-NO 63 0 min 0,000 mm 0,0 UV-I 0 W/m 7,9 C 13,2 C 6,4 km/h (2 Bft) 100,00 %
03.04.2016 22:09 13,2 C 70 % 1009,5 hPa 0,0 l/m 6,3 km/h (2 Bft) O 79 0 min 0,000 mm 0,0 UV-I 0 W/m 7,9 C 13,2 C 8,0 km/h (2 Bft) 95,65 %
03.04.2016 22:10 13,1 C 70 % 1009,5 hPa 0,0 l/m 7,1 km/h (2 Bft) O-NO 67 0 min 0,000 mm 0,0 UV-I 0 W/m 7,8 C 12,7 C 8,0 km/h (2 Bft) 100,00 %
03.04.2016 22:11 13,1 C 71 % 1009,5 hPa 0,0 l/m 7,1 km/h (2 Bft) O-NO 66 0 min 0,000 mm 0,0 UV-I 0 W/m 8,0 C 12,7 C 9,7 km/h (2 Bft) 95,65 %
03.04.2016 22:12 13,1 C 70 % 1009,4 hPa 0,0 l/m 5,5 km/h (1 Bft) O-NO 60 0 min 0,000 mm 0,0 UV-I 0 W/m 7,8 C 13,1 C 8,0 km/h (2 Bft) 100,00 %
03.04.2016 22:13 13,1 C 71 % 1009,4 hPa 0,0 l/m 6,8 km/h (2 Bft) NO 53 0 min 0,000 mm 0,0 UV-I 0 W/m 8,0 C 12,9 C 8,0 km/h (2 Bft) 94,12 %
03.04.2016 22:14 13,1 C 70 % 1009,5 hPa 0,0 l/m 5,3 km/h (1 Bft) O-NO 58 0 min 0,000 mm 0,0 UV-I 0 W/m 7,8 C 13,1 C 6,4 km/h (2 Bft) 100,00 %
03.04.2016 22:15 13,1 C 70 % 1009,4 hPa 0,0 l/m 5,7 km/h (1 Bft) NO 55 0 min 0,000 mm 0,0 UV-I 0 W/m 7,8 C 13,1 C 6,4 km/h (2 Bft) 100,00 %
03.04.2016 22:16 13,2 C 70 % 1009,4 hPa 0,0 l/m 5,8 km/h (2 Bft) NO 45 0 min 0,000 mm 0,0 UV-I 0 W/m 7,9 C 13,2 C 8,0 km/h (2 Bft) 100,00 %
03.04.2016 22:17 13,2 C 70 % 1009,4 hPa 0,0 l/m 5,4 km/h (1 Bft) O-NO 57 0 min 0,000 mm 0,0 UV-I 0 W/m 7,9 C 13,2 C 6,4 km/h (2 Bft) 95,65 %
03.04.2016 22:18 13,3 C 70 % 1009,4 hPa 0,0 l/m 4,9 km/h (1 Bft) NO 49 0 min 0,000 mm 0,0 UV-I 0 W/m 7,9 C 13,3 C 6,4 km/h (2 Bft) 100,00 %
03.04.2016 22:19 13,2 C 70 % 1009,4 hPa 0,0 l/m 4,6 km/h (1 Bft) NO 48 0 min 0,000 mm 0,0 UV-I 0 W/m 7,9 C 13,2 C 6,4 km/h (2 Bft) 95,65 %
03.04.2016 22:20 13,2 C 70 % 1009,4 hPa 0,0 l/m 3,6 km/h (1 Bft) NO 44 0 min 0,000 mm 0,0 UV-I 0 W/m 7,9 C 13,2 C 4,8 km/h (1 Bft) 100,00 %
03.04.2016 22:21 13,1 C 70 % 1009,3 hPa 0,0 l/m 3,1 km/h (1 Bft) NO 44 0 min 0,000 mm 0,0 UV-I 0 W/m 7,8 C 13,1 C 4,8 km/h (1 Bft) 100,00 %
03.04.2016 22:22 13,1 C 70 % 1009,4 hPa 0,0 l/m 4,8 km/h (1 Bft) NO 40 0 min 0,000 mm 0,0 UV-I 0 W/m 7,8 C 13,1 C 8,0 km/h (2 Bft) 100,00 %
03.04.2016 22:23 13,0 C 71 % 1009,4 hPa 0,0 l/m 4,0 km/h (1 Bft) NO 40 0 min 0,000 mm 0,0 UV-I 0 W/m 7,9 C 13,0 C 6,4 km/h (2 Bft) 100,00 %
03.04.2016 22:24 12,9 C 71 % 1009,4 hPa 0,0 l/m 5,5 km/h (1 Bft) NO 43 0 min 0,000 mm 0,0 UV-I 0 W/m 7,8 C 12,9 C 6,4 km/h (2 Bft) 100,00 %
03.04.2016 22:25 12,8 C 71 % 1009,4 hPa 0,0 l/m 5,6 km/h (1 Bft) NO 38 0 min 0,000 mm 0,0 UV-I 0 W/m 7,7 C 12,8 C 8,0 km/h (2 Bft) 100,00 %
03.04.2016 22:26 12,8 C 71 % 1009,4 hPa 0,0 l/m 5,4 km/h (1 Bft) NO 42 0 min 0,000 mm 0,0 UV-I 0 W/m 7,7 C 12,8 C 6,4 km/h (2 Bft) 95,65 %
03.04.2016 22:27 12,7 C 72 % 1009,5 hPa 0,0 l/m 4,2 km/h (1 Bft) NO 42 0 min 0,000 mm 0,0 UV-I 0 W/m 7,8 C 12,7 C 6,4 km/h (2 Bft) 100,00 %
03.04.2016 22:28 12,7 C 72 % 1009,5 hPa 0,0 l/m 3,2 km/h (1 Bft) NO 42 0 min 0,000 mm 0,0 UV-I 0 W/m 7,8 C 12,7 C 4,8 km/h (1 Bft) 100,00 %
03.04.2016 22:29 12,6 C 72 % 1009,5 hPa 0,0 l/m 4,5 km/h (1 Bft) N-NO 32 0 min 0,000 mm 0,0 UV-I 0 W/m 7,7 C 12,6 C 6,4 km/h (2 Bft) 100,00 %
03.04.2016 22:30 12,6 C 72 % 1009,4 hPa 0,0 l/m 4,9 km/h (1 Bft) N-NO 32 0 min 0,000 mm 0,0 UV-I 0 W/m 7,7 C 12,6 C 6,4 km/h (2 Bft) 95,65 %
03.04.2016 22:31 12,6 C 72 % 1009,4 hPa 0,0 l/m 4,5 km/h (1 Bft) NO 36 0 min 0,000 mm 0,0 UV-I 0 W/m 7,7 C 12,6 C 4,8 km/h (1 Bft) 100,00 %
03.04.2016 22:32 12,5 C 72 % 1009,5 hPa 0,0 l/m 4,6 km/h (1 Bft) NO 44 0 min 0,000 mm 0,0 UV-I 0 W/m 7,6 C 12,5 C 4,8 km/h (1 Bft) 95,65 %
03.04.2016 22:33 12,5 C 72 % 1009,4 hPa 0,0 l/m 4,6 km/h (1 Bft) N-NO 12 0 min 0,000 mm 0,0 UV-I 0 W/m 7,6 C 12,5 C 6,4 km/h (2 Bft) 100,00 %
03.04.2016 22:34 12,6 C 72 % 1009,4 hPa 0,0 l/m 4,0 km/h (1 Bft) NO 41 0 min 0,000 mm 0,0 UV-I 0 W/m 7,7 C 12,6 C 4,8 km/h (1 Bft) 100,00 %
03.04.2016 22:35 12,6 C 72 % 1009,5 hPa 0,0 l/m 4,0 km/h (1 Bft) NO 40 0 min 0,000 mm 0,0 UV-I 0 W/m 7,7 C 12,6 C 4,8 km/h (1 Bft) 100,00 %
03.04.2016 22:36 12,6 C 72 % 1009,4 hPa 0,0 l/m 3,4 km/h (1 Bft) NO 40 0 min 0,000 mm 0,0 UV-I 0 W/m 7,7 C 12,6 C 4,8 km/h (1 Bft) 100,00 %
03.04.2016 22:37 12,6 C 71 % 1009,5 hPa 0,0 l/m 3,4 km/h (1 Bft) NO 40 0 min 0,000 mm 0,0 UV-I 0 W/m 7,5 C 12,6 C 4,8 km/h (1 Bft) 100,00 %
03.04.2016 22:38 12,6 C 71 % 1009,5 hPa 0,0 l/m 3,6 km/h (1 Bft) NO 40 0 min 0,000 mm 0,0 UV-I 0 W/m 7,5 C 12,6 C 4,8 km/h (1 Bft) 100,00 %
03.04.2016 22:39 12,7 C 71 % 1009,5 hPa 0,0 l/m 2,7 km/h (1 Bft) NO 40 0 min 0,000 mm 0,0 UV-I 0 W/m 7,6 C 12,7 C 3,2 km/h (1 Bft) 100,00 %
03.04.2016 22:40 12,7 C 71 % 1009,5 hPa 0,0 l/m 3,8 km/h (1 Bft) NO 40 0 min 0,000 mm 0,0 UV-I 0 W/m 7,6 C 12,7 C 4,8 km/h (1 Bft) 100,00 %
03.04.2016 22:41 12,8 C 71 % 1009,5 hPa 0,0 l/m 3,6 km/h (1 Bft) NO 40 0 min 0,000 mm 0,0 UV-I 0 W/m 7,7 C 12,8 C 4,8 km/h (1 Bft) 95,83 %
03.04.2016 22:42 12,8 C 71 % 1009,5 hPa 0,0 l/m 3,8 km/h (1 Bft) NO 40 0 min 0,000 mm 0,0 UV-I 0 W/m 7,7 C 12,8 C 4,8 km/h (1 Bft) 100,00 %
03.04.2016 22:43 12,8 C 70 % 1009,5 hPa 0,0 l/m 4,0 km/h (1 Bft) NO 40 0 min 0,000 mm 0,0 UV-I 0 W/m 7,5 C 12,8 C 4,8 km/h (1 Bft) 100,00 %
03.04.2016 22:44 12,8 C 70 % 1009,5 hPa 0,0 l/m 4,2 km/h (1 Bft) NO 37 0 min 0,000 mm 0,0 UV-I 0 W/m 7,5 C 12,8 C 6,4 km/h (2 Bft) 100,00 %
03.04.2016 22:45 12,8 C 70 % 1009,4 hPa 0,0 l/m 5,1 km/h (1 Bft) NO 37 0 min 0,000 mm 0,0 UV-I 0 W/m 7,5 C 12,8 C 6,4 km/h (2 Bft) 100,00 %
03.04.2016 22:46 12,8 C 70 % 1009,4 hPa 0,0 l/m 4,3 km/h (1 Bft) NO 37 0 min 0,000 mm 0,0 UV-I 0 W/m 7,5 C 12,8 C 6,4 km/h (2 Bft) 100,00 %
03.04.2016 22:47 12,8 C 70 % 1009,4 hPa 0,0 l/m 4,2 km/h (1 Bft) NO 37 0 min 0,000 mm 0,0 UV-I 0 W/m 7,5 C 12,8 C 4,8 km/h (1 Bft) 100,00 %
03.04.2016 22:48 12,8 C 70 % 1009,4 hPa 0,0 l/m 4,1 km/h (1 Bft) NO 37 0 min 0,000 mm 0,0 UV-I 0 W/m 7,5 C 12,8 C 4,8 km/h (1 Bft) 100,00 %
03.04.2016 22:49 12,8 C 70 % 1009,4 hPa 0,0 l/m 5,0 km/h (1 Bft) NO 37 0 min 0,000 mm 0,0 UV-I 0 W/m 7,5 C 12,8 C 6,4 km/h (2 Bft) 100,00 %
03.04.2016 22:50 12,8 C 70 % 1009,4 hPa 0,0 l/m 4,8 km/h (1 Bft) NO 39 0 min 0,000 mm 0,0 UV-I 0 W/m 7,5 C 12,8 C 6,4 km/h (2 Bft) 100,00 %
03.04.2016 22:51 12,8 C 70 % 1009,3 hPa 0,0 l/m 4,4 km/h (1 Bft) NO 40 0 min 0,000 mm 0,0 UV-I 0 W/m 7,5 C 12,8 C 4,8 km/h (1 Bft) 100,00 %
03.04.2016 22:52 12,8 C 70 % 1009,3 hPa 0,0 l/m 4,1 km/h (1 Bft) NO 40 0 min 0,000 mm 0,0 UV-I 0 W/m 7,5 C 12,8 C 6,4 km/h (2 Bft) 95,83 %
03.04.2016 22:53 12,8 C 70 % 1009,3 hPa 0,0 l/m 3,6 km/h (1 Bft) NO 40 0 min 0,000 mm 0,0 UV-I 0 W/m 7,5 C 12,8 C 4,8 km/h (1 Bft) 100,00 %
03.04.2016 22:54 12,8 C 70 % 1009,3 hPa 0,0 l/m 2,8 km/h (1 Bft) NO 40 0 min 0,000 mm 0,0 UV-I 0 W/m 7,5 C 12,8 C 4,8 km/h (1 Bft) 100,00 %
03.04.2016 22:55 12,8 C 70 % 1009,3 hPa 0,0 l/m 2,2 km/h (1 Bft) NO 43 0 min 0,000 mm 0,0 UV-I 0 W/m 7,5 C 12,8 C 4,8 km/h (1 Bft) 100,00 %
03.04.2016 22:56 12,7 C 71 % 1009,3 hPa 0,0 l/m 2,7 km/h (1 Bft) NO 44 0 min 0,000 mm 0,0 UV-I 0 W/m 7,6 C 12,7 C 4,8 km/h (1 Bft) 100,00 %
03.04.2016 22:57 12,5 C 72 % 1009,3 hPa 0,0 l/m 3,6 km/h (1 Bft) O-NO 59 0 min 0,000 mm 0,0 UV-I 0 W/m 7,6 C 12,5 C 4,8 km/h (1 Bft) 100,00 %
03.04.2016 22:58 12,3 C 72 % 1009,3 hPa 0,0 l/m 3,2 km/h (1 Bft) O-NO 59 0 min 0,000 mm 0,0 UV-I 0 W/m 7,4 C 12,3 C 3,2 km/h (1 Bft) 100,00 %
03.04.2016 22:59 12,3 C 72 % 1009,3 hPa 0,0 l/m 1,7 km/h (1 Bft) O-NO 59 0 min 0,000 mm 0,0 UV-I 0 W/m 7,4 C 12,3 C 3,2 km/h (1 Bft) 100,00 %
03.04.2016 23:00 12,3 C 72 % 1009,3 hPa 0,0 l/m 2,1 km/h (1 Bft) O-NO 59 0 min 0,000 mm 0,0 UV-I 0 W/m 7,4 C 12,3 C 3,2 km/h (1 Bft) 100,00 %
03.04.2016 23:01 12,2 C 72 % 1009,3 hPa 0,0 l/m 1,6 km/h (1 Bft) O-NO 59 0 min 0,026 mm 0,0 UV-I 0 W/m 7,3 C 12,2 C 3,2 km/h (1 Bft) 100,00 %
03.04.2016 23:02 12,1 C 73 % 1009,3 hPa 0,0 l/m 1,1 km/h (1 Bft) O-NO 59 0 min 0,000 mm 0,0 UV-I 0 W/m 7,4 C 12,1 C 1,6 km/h (1 Bft) 100,00 %
03.04.2016 23:03 12,0 C 73 % 1009,3 hPa 0,0 l/m 1,0 km/h (0 Bft) O-NO 59 0 min 0,000 mm 0,0 UV-I 0 W/m 7,3 C 12,0 C 1,6 km/h (1 Bft) 95,65 %
03.04.2016 23:04 11,9 C 74 % 1009,3 hPa 0,0 l/m 0,1 km/h (0 Bft) O-NO 59 0 min 0,000 mm 0,0 UV-I 0 W/m 7,4 C 11,9 C 1,6 km/h (1 Bft) 100,00 %
03.04.2016 23:05 11,8 C 74 % 1009,3 hPa 0,0 l/m 0,0 km/h (0 Bft) O-NO 59 0 min 0,000 mm 0,0 UV-I 0 W/m 7,3 C 11,8 C 0,0 km/h (0 Bft) 100,00 %
03.04.2016 23:06 11,7 C 75 % 1009,3 hPa 0,0 l/m 0,0 km/h (0 Bft) O-NO 59 0 min 0,000 mm 0,0 UV-I 0 W/m 7,4 C 11,7 C 0,0 km/h (0 Bft) 100,00 %
03.04.2016 23:07 11,6 C 75 % 1009,3 hPa 0,0 l/m 0,2 km/h (0 Bft) O-NO 59 0 min 0,000 mm 0,0 UV-I 0 W/m 7,3 C 11,6 C 1,6 km/h (1 Bft) 100,00 %
03.04.2016 23:08 11,4 C 76 % 1009,3 hPa 0,0 l/m 1,5 km/h (1 Bft) O-NO 59 0 min 0,000 mm 0,0 UV-I 0 W/m 7,3 C 11,4 C 3,2 km/h (1 Bft) 100,00 %
03.04.2016 23:09 11,3 C 76 % 1009,3 hPa 0,0 l/m 1,1 km/h (1 Bft) O-NO 59 0 min 0,000 mm 0,0 UV-I 0 W/m 7,2 C 11,3 C 1,6 km/h (1 Bft) 100,00 %
03.04.2016 23:10 11,2 C 77 % 1009,3 hPa 0,0 l/m 1,9 km/h (1 Bft) O-NO 59 0 min 0,000 mm 0,0 UV-I 0 W/m 7,3 C 11,2 C 3,2 km/h (1 Bft) 100,00 %
03.04.2016 23:11 11,1 C 77 % 1009,3 hPa 0,0 l/m 1,9 km/h (1 Bft) O-NO 59 0 min 0,000 mm 0,0 UV-I 0 W/m 7,2 C 11,1 C 3,2 km/h (1 Bft) 100,00 %
03.04.2016 23:12 11,0 C 77 % 1009,3 hPa 0,0 l/m 1,9 km/h (1 Bft) O-NO 59 0 min 0,000 mm 0,0 UV-I 0 W/m 7,1 C 11,0 C 3,2 km/h (1 Bft) 100,00 %
03.04.2016 23:13 10,9 C 78 % 1009,3 hPa 0,0 l/m 2,0 km/h (1 Bft) O-NO 59 0 min 0,000 mm 0,0 UV-I 0 W/m 7,2 C 10,9 C 3,2 km/h (1 Bft) 100,00 %
03.04.2016 23:14 10,8 C 78 % 1009,3 hPa 0,0 l/m 1,8 km/h (1 Bft) O-NO 59 0 min 0,000 mm 0,0 UV-I 0 W/m 7,1 C 10,8 C 3,2 km/h (1 Bft) 95,65 %
03.04.2016 23:15 10,8 C 78 % 1009,3 hPa 0,0 l/m 1,7 km/h (1 Bft) O-NO 59 0 min 0,000 mm 0,0 UV-I 0 W/m 7,1 C 10,8 C 3,2 km/h (1 Bft) 95,83 %
03.04.2016 23:16 10,8 C 79 % 1009,3 hPa 0,0 l/m 1,5 km/h (1 Bft) O-NO 59 0 min 0,000 mm 0,0 UV-I 0 W/m 7,3 C 10,8 C 1,6 km/h (1 Bft) 100,00 %
03.04.2016 23:17 10,7 C 79 % 1009,3 hPa 0,0 l/m 1,7 km/h (1 Bft) O-NO 59 0 min 0,000 mm 0,0 UV-I 0 W/m 7,2 C 10,7 C 3,2 km/h (1 Bft) 100,00 %
03.04.2016 23:18 10,7 C 79 % 1009,3 hPa 0,0 l/m 0,9 km/h (0 Bft) O-NO 59 0 min 0,000 mm 0,0 UV-I 0 W/m 7,2 C 10,7 C 1,6 km/h (1 Bft) 100,00 %
03.04.2016 23:19 10,6 C 79 % 1009,3 hPa 0,0 l/m 0,2 km/h (0 Bft) O-NO 59 0 min 0,000 mm 0,0 UV-I 0 W/m 7,1 C 10,6 C 1,6 km/h (1 Bft) 100,00 %
03.04.2016 23:20 10,5 C 79 % 1009,3 hPa 0,0 l/m 0,6 km/h (0 Bft) O-NO 59 0 min 0,000 mm 0,0 UV-I 0 W/m 7,0 C 10,5 C 1,6 km/h (1 Bft) 100,00 %
03.04.2016 23:21 10,4 C 80 % 1009,3 hPa 0,0 l/m 0,5 km/h (0 Bft) O-NO 59 0 min 0,000 mm 0,0 UV-I 0 W/m 7,1 C 10,4 C 1,6 km/h (1 Bft) 100,00 %
03.04.2016 23:22 10,4 C 80 % 1009,3 hPa 0,0 l/m 1,1 km/h (1 Bft) O-NO 59 0 min 0,000 mm 0,0 UV-I 0 W/m 7,1 C 10,4 C 1,6 km/h (1 Bft) 100,00 %
03.04.2016 23:23 10,3 C 80 % 1009,3 hPa 0,0 l/m 1,4 km/h (1 Bft) O-NO 59 0 min 0,000 mm 0,0 UV-I 0 W/m 7,0 C 10,3 C 3,2 km/h (1 Bft) 100,00 %
03.04.2016 23:24 10,3 C 80 % 1009,2 hPa 0,0 l/m 1,4 km/h (1 Bft) O-NO 59 0 min 0,000 mm 0,0 UV-I 0 W/m 7,0 C 10,3 C 3,2 km/h (1 Bft) 100,00 %
03.04.2016 23:25 10,3 C 80 % 1009,2 hPa 0,0 l/m 2,1 km/h (1 Bft) O-NO 59 0 min 0,000 mm 0,0 UV-I 0 W/m 7,0 C 10,3 C 3,2 km/h (1 Bft) 95,65 %
03.04.2016 23:26 10,3 C 80 % 1009,2 hPa 0,0 l/m 1,8 km/h (1 Bft) O-NO 59 0 min 0,000 mm 0,0 UV-I 0 W/m 7,0 C 10,3 C 3,2 km/h (1 Bft) 100,00 %
03.04.2016 23:27 10,4 C 80 % 1009,2 hPa 0,0 l/m 1,1 km/h (1 Bft) O-NO 59 0 min 0,000 mm 0,0 UV-I 0 W/m 7,1 C 10,4 C 1,6 km/h (1 Bft) 95,65 %
03.04.2016 23:28 10,4 C 80 % 1009,2 hPa 0,0 l/m 1,5 km/h (1 Bft) O-NO 59 0 min 0,000 mm 0,0 UV-I 0 W/m 7,1 C 10,4 C 3,2 km/h (1 Bft) 95,83 %
03.04.2016 23:29 10,6 C 80 % 1009,2 hPa 0,0 l/m 1,5 km/h (1 Bft) O-NO 59 0 min 0,000 mm 0,0 UV-I 0 W/m 7,3 C 10,6 C 3,2 km/h (1 Bft) 96,15 %
03.04.2016 23:30 10,7 C 80 % 1009,1 hPa 0,0 l/m 1,1 km/h (1 Bft) O-NO 59 0 min 0,000 mm 0,0 UV-I 0 W/m 7,4 C 10,7 C 1,6 km/h (1 Bft) 96,30 %
03.04.2016 23:31 10,7 C 79 % 1009,2 hPa 0,0 l/m 1,2 km/h (1 Bft) O-NO 59 0 min 0,000 mm 0,0 UV-I 0 W/m 7,2 C 10,7 C 1,6 km/h (1 Bft) 95,65 %
03.04.2016 23:32 10,7 C 79 % 1009,2 hPa 0,0 l/m 0,6 km/h (0 Bft) O-NO 59 0 min 0,000 mm 0,0 UV-I 0 W/m 7,2 C 10,7 C 1,6 km/h (1 Bft) 95,83 %
03.04.2016 23:33 10,7 C 79 % 1009,2 hPa 0,0 l/m 0,0 km/h (0 Bft) O-NO 59 0 min 0,000 mm 0,0 UV-I 0 W/m 7,2 C 10,7 C 0,0 km/h (0 Bft) 100,00 %
03.04.2016 23:34 10,7 C 79 % 1009,2 hPa 0,0 l/m 0,0 km/h (0 Bft) O-NO 59 0 min 0,000 mm 0,0 UV-I 0 W/m 7,2 C 10,7 C 0,0 km/h (0 Bft) 95,83 %
03.04.2016 23:35 10,7 C 79 % 1009,2 hPa 0,0 l/m 0,0 km/h (0 Bft) O-NO 59 0 min 0,000 mm 0,0 UV-I 0 W/m 7,2 C 10,7 C 0,0 km/h (0 Bft) 100,00 %
03.04.2016 23:36 10,7 C 79 % 1009,2 hPa 0,0 l/m 0,0 km/h (0 Bft) O-NO 59 0 min 0,000 mm 0,0 UV-I 0 W/m 7,2 C 10,7 C 0,0 km/h (0 Bft) 95,83 %
03.04.2016 23:37 10,7 C 79 % 1009,2 hPa 0,0 l/m 0,0 km/h (0 Bft) O-NO 59 0 min 0,000 mm 0,0 UV-I 0 W/m 7,2 C 10,7 C 0,0 km/h (0 Bft) 95,65 %
03.04.2016 23:38 10,6 C 79 % 1009,2 hPa 0,0 l/m 0,0 km/h (0 Bft) O-NO 59 0 min 0,000 mm 0,0 UV-I 0 W/m 7,1 C 10,6 C 0,0 km/h (0 Bft) 100,00 %
03.04.2016 23:39 10,6 C 79 % 1009,2 hPa 0,0 l/m 0,0 km/h (0 Bft) O-NO 59 0 min 0,000 mm 0,0 UV-I 0 W/m 7,1 C 10,6 C 0,0 km/h (0 Bft) 95,65 %
03.04.2016 23:40 10,5 C 79 % 1009,2 hPa 0,0 l/m 0,0 km/h (0 Bft) O-NO 59 0 min 0,000 mm 0,0 UV-I 0 W/m 7,0 C 10,5 C 0,0 km/h (0 Bft) 100,00 %
03.04.2016 23:41 10,4 C 80 % 1009,2 hPa 0,0 l/m 0,0 km/h (0 Bft) O-NO 59 0 min 0,000 mm 0,0 UV-I 0 W/m 7,1 C 10,4 C 0,0 km/h (0 Bft) 91,30 %
03.04.2016 23:42 10,3 C 80 % 1009,2 hPa 0,0 l/m 0,0 km/h (0 Bft) O-NO 59 0 min 0,000 mm 0,0 UV-I 0 W/m 7,0 C 10,3 C 0,0 km/h (0 Bft) 100,00 %
03.04.2016 23:43 10,2 C 80 % 1009,2 hPa 0,0 l/m 0,5 km/h (0 Bft) O-NO 59 0 min 0,000 mm 0,0 UV-I 0 W/m 6,9 C 10,2 C 1,6 km/h (1 Bft) 91,30 %
03.04.2016 23:44 10,1 C 80 % 1009,2 hPa 0,0 l/m 0,5 km/h (0 Bft) O-NO 59 0 min 0,000 mm 0,0 UV-I 0 W/m 6,8 C 10,1 C 1,6 km/h (1 Bft) 95,83 %
03.04.2016 23:45 9,8 C 81 % 1009,2 hPa 0,0 l/m 1,4 km/h (1 Bft) O-NO 59 0 min 0,000 mm 0,0 UV-I 0 W/m 6,7 C 9,8 C 3,2 km/h (1 Bft) 100,00 %
03.04.2016 23:46 9,7 C 81 % 1009,2 hPa 0,0 l/m 2,0 km/h (1 Bft) O-NO 59 0 min 0,000 mm 0,0 UV-I 0 W/m 6,6 C 9,7 C 3,2 km/h (1 Bft) 91,67 %
03.04.2016 23:47 9,6 C 82 % 1009,1 hPa 0,0 l/m 1,3 km/h (1 Bft) O-NO 59 0 min 0,000 mm 0,0 UV-I 0 W/m 6,7 C 9,6 C 1,6 km/h (1 Bft) 100,00 %
03.04.2016 23:48 9,5 C 83 % 1009,2 hPa 0,0 l/m 1,9 km/h (1 Bft) O-NO 59 0 min 0,000 mm 0,0 UV-I 0 W/m 6,8 C 9,5 C 3,2 km/h (1 Bft) 95,83 %
03.04.2016 23:49 9,5 C 83 % 1009,2 hPa 0,0 l/m 2,8 km/h (1 Bft) O 93 0 min 0,000 mm 0,0 UV-I 0 W/m 6,8 C 9,5 C 3,2 km/h (1 Bft) 95,83 %
03.04.2016 23:50 9,4 C 83 % 1009,2 hPa 0,0 l/m 2,5 km/h (1 Bft) O 93 0 min 0,000 mm 0,0 UV-I 0 W/m 6,7 C 9,4 C 3,2 km/h (1 Bft) 91,30 %
03.04.2016 23:51 9,4 C 83 % 1009,2 hPa 0,0 l/m 3,4 km/h (1 Bft) O 96 0 min 0,000 mm 0,0 UV-I 0 W/m 6,7 C 9,4 C 4,8 km/h (1 Bft) 100,00 %
03.04.2016 23:52 9,4 C 83 % 1009,2 hPa 0,0 l/m 3,2 km/h (1 Bft) O 96 0 min 0,000 mm 0,0 UV-I 0 W/m 6,7 C 9,4 C 3,2 km/h (1 Bft) 95,65 %
03.04.2016 23:53 9,4 C 83 % 1009,2 hPa 0,0 l/m 3,0 km/h (1 Bft) O 96 0 min 0,000 mm 0,0 UV-I 0 W/m 6,7 C 9,4 C 3,2 km/h (1 Bft) 97,22 %
03.04.2016 23:54 9,3 C 83 % 1009,2 hPa 0,0 l/m 2,5 km/h (1 Bft) O-SO 105 0 min 0,000 mm 0,0 UV-I 0 W/m 6,6 C 9,3 C 4,8 km/h (1 Bft) 100,00 %
03.04.2016 23:55 9,3 C 83 % 1009,2 hPa 0,0 l/m 3,4 km/h (1 Bft) O-SO 105 0 min 0,000 mm 0,0 UV-I 0 W/m 6,6 C 9,3 C 4,8 km/h (1 Bft) 95,83 %
03.04.2016 23:56 9,3 C 83 % 1009,2 hPa 0,0 l/m 3,6 km/h (1 Bft) O-SO 105 0 min 0,000 mm 0,0 UV-I 0 W/m 6,6 C 9,3 C 4,8 km/h (1 Bft) 86,96 %
03.04.2016 23:57 9,3 C 84 % 1009,2 hPa 0,0 l/m 3,7 km/h (1 Bft) O-SO 111 0 min 0,000 mm 0,0 UV-I 0 W/m 6,7 C 9,3 C 4,8 km/h (1 Bft) 95,83 %
03.04.2016 23:58 9,3 C 84 % 1009,2 hPa 0,0 l/m 3,7 km/h (1 Bft) O-SO 111 0 min 0,000 mm 0,0 UV-I 0 W/m 6,7 C 9,3 C 4,8 km/h (1 Bft) 100,00 %
03.04.2016 23:59 9,3 C 84 % 1009,2 hPa 0,0 l/m 3,8 km/h (1 Bft) SO 137 0 min 0,000 mm 0,0 UV-I 0 W/m 6,7 C 9,3 C 4,8 km/h (1 Bft) 96,30 %
_ Min-Zeit 06:54 17:34 23:30 - 04:31 - - - - - - 06:11 01:03 04:31 00:06
Minimum _ 3,1 C 51 % 1009,1 hPa - 0,0 km/h (0 Bft) - - - - - - 1,7 C 2,2 C 0,0 km/h (0 Bft) 86,96 %
_ Max-Zeit 17:16 06:58 00:02 00:00 17:34 - - 13:27 13:01 12:41 12:40 16:55 17:14 01:03 00:00
Maximum _ 18,6 C 92 % 1015,8 hPa 0,0 l/m 20,4 km/h
O-NO (4 Bft)
- - 2 min 0,356 mm 3,4 UV-I 762 W/m 10,3 C 18,5 C 25,7 km/h
O-NO (4 Bft)
100,00 %
Durchschnitt _ 11,3 C 71 % 1012,7 hPa #0,0 l/m 6,2 km/h (2 Bft) O-NO - #8:40 h #2,769 mm 1,7 UV-I 332 W/m 6,0 C 10,4 C 8,9 km/h (2 Bft) 98,40 %